<?xml version="1.0" encoding="UTF-8" standalone="no" ?>
<gpx xmlns="http://www.topografix.com/GPX/1/1" xmlns:xsi="http://www.w3.org/2001/XMLSchema-instance" xsi:schemaLocation="http://www.topografix.com/GPX/1/1 http://www.topografix.com/GPX/1/1/gpx.xsd" version="1.1" creator="VisuGPX - https://www.visugpx.com">
  <metadata>
    <name>130316ROBSebastienPourraqueBernardin</name>
    <desc><![CDATA[Sortie sympathique de remise en selle pour notre Relève!]]></desc>
  </metadata>
  <trk>
    <name><![CDATA[130316ROBSebastienPourraqueBernardin]]></name>
    <cmt><![CDATA[HR decrease: 133/99/34]]></cmt>
    <trkseg>
      <trkpt lat="43.40403" lon="6.06501">
        <ele>232.80000305176</ele>
        <time>2013-03-16T13:08:17Z</time>
      </trkpt>
      <trkpt lat="43.40403" lon="6.06501">
        <ele>232.60000610352</ele>
        <time>2013-03-16T13:08:22Z</time>
      </trkpt>
      <trkpt lat="43.40403" lon="6.06501">
        <ele>232.60000610352</ele>
        <time>2013-03-16T13:08:30Z</time>
      </trkpt>
      <trkpt lat="43.40403" lon="6.065">
        <ele>232.60000610352</ele>
        <time>2013-03-16T13:08:35Z</time>
      </trkpt>
      <trkpt lat="43.40401" lon="6.06497">
        <ele>232.60000610352</ele>
        <time>2013-03-16T13:08:37Z</time>
      </trkpt>
      <trkpt lat="43.40396" lon="6.06491">
        <ele>232.60000610352</ele>
        <time>2013-03-16T13:08:42Z</time>
      </trkpt>
      <trkpt lat="43.4039" lon="6.06491">
        <ele>232.60000610352</ele>
        <time>2013-03-16T13:08:48Z</time>
      </trkpt>
      <trkpt lat="43.40385" lon="6.06494">
        <ele>232.60000610352</ele>
        <time>2013-03-16T13:08:54Z</time>
      </trkpt>
      <trkpt lat="43.40376" lon="6.06501">
        <ele>232.60000610352</ele>
        <time>2013-03-16T13:08:59Z</time>
      </trkpt>
      <trkpt lat="43.40361" lon="6.0651">
        <ele>232.60000610352</ele>
        <time>2013-03-16T13:09:04Z</time>
      </trkpt>
      <trkpt lat="43.40356" lon="6.06514">
        <ele>232.60000610352</ele>
        <time>2013-03-16T13:09:06Z</time>
      </trkpt>
      <trkpt lat="43.40334" lon="6.0653">
        <ele>232.60000610352</ele>
        <time>2013-03-16T13:09:14Z</time>
      </trkpt>
      <trkpt lat="43.40314" lon="6.06543">
        <ele>232.60000610352</ele>
        <time>2013-03-16T13:09:20Z</time>
      </trkpt>
      <trkpt lat="43.40296" lon="6.06547">
        <ele>232.60000610352</ele>
        <time>2013-03-16T13:09:25Z</time>
      </trkpt>
      <trkpt lat="43.40276" lon="6.06555">
        <ele>232.60000610352</ele>
        <time>2013-03-16T13:09:31Z</time>
      </trkpt>
      <trkpt lat="43.40268" lon="6.06559">
        <ele>232.60000610352</ele>
        <time>2013-03-16T13:09:33Z</time>
      </trkpt>
      <trkpt lat="43.40252" lon="6.06567">
        <ele>232.60000610352</ele>
        <time>2013-03-16T13:09:38Z</time>
      </trkpt>
      <trkpt lat="43.40246" lon="6.06571">
        <ele>232.60000610352</ele>
        <time>2013-03-16T13:09:40Z</time>
      </trkpt>
      <trkpt lat="43.40237" lon="6.06589">
        <ele>232.60000610352</ele>
        <time>2013-03-16T13:09:45Z</time>
      </trkpt>
      <trkpt lat="43.40234" lon="6.06602">
        <ele>232.60000610352</ele>
        <time>2013-03-16T13:09:50Z</time>
      </trkpt>
      <trkpt lat="43.40221" lon="6.06621">
        <ele>232.60000610352</ele>
        <time>2013-03-16T13:09:56Z</time>
      </trkpt>
      <trkpt lat="43.40209" lon="6.06638">
        <ele>232.60000610352</ele>
        <time>2013-03-16T13:10:02Z</time>
      </trkpt>
      <trkpt lat="43.40203" lon="6.06658">
        <ele>232.60000610352</ele>
        <time>2013-03-16T13:10:09Z</time>
      </trkpt>
      <trkpt lat="43.40196" lon="6.06673">
        <ele>232.60000610352</ele>
        <time>2013-03-16T13:10:14Z</time>
      </trkpt>
      <trkpt lat="43.4019" lon="6.0669">
        <ele>232.60000610352</ele>
        <time>2013-03-16T13:10:20Z</time>
      </trkpt>
      <trkpt lat="43.40179" lon="6.06708">
        <ele>232.60000610352</ele>
        <time>2013-03-16T13:10:27Z</time>
      </trkpt>
      <trkpt lat="43.40166" lon="6.06739">
        <ele>233</ele>
        <time>2013-03-16T13:10:38Z</time>
      </trkpt>
      <trkpt lat="43.40159" lon="6.06755">
        <ele>235</ele>
        <time>2013-03-16T13:10:43Z</time>
      </trkpt>
      <trkpt lat="43.40152" lon="6.06772">
        <ele>235</ele>
        <time>2013-03-16T13:10:49Z</time>
      </trkpt>
      <trkpt lat="43.40148" lon="6.06785">
        <ele>235.39999389648</ele>
        <time>2013-03-16T13:10:53Z</time>
      </trkpt>
      <trkpt lat="43.40145" lon="6.06791">
        <ele>236.19999694824</ele>
        <time>2013-03-16T13:10:55Z</time>
      </trkpt>
      <trkpt lat="43.40142" lon="6.06802">
        <ele>237</ele>
        <time>2013-03-16T13:10:59Z</time>
      </trkpt>
      <trkpt lat="43.40138" lon="6.06815">
        <ele>237</ele>
        <time>2013-03-16T13:11:03Z</time>
      </trkpt>
      <trkpt lat="43.40131" lon="6.06838">
        <ele>237.80000305176</ele>
        <time>2013-03-16T13:11:10Z</time>
      </trkpt>
      <trkpt lat="43.40125" lon="6.0686">
        <ele>239</ele>
        <time>2013-03-16T13:11:16Z</time>
      </trkpt>
      <trkpt lat="43.40118" lon="6.06875">
        <ele>239</ele>
        <time>2013-03-16T13:11:21Z</time>
      </trkpt>
      <trkpt lat="43.40117" lon="6.06878">
        <ele>239.39999389648</ele>
        <time>2013-03-16T13:11:22Z</time>
      </trkpt>
      <trkpt lat="43.40115" lon="6.06889">
        <ele>240.80000305176</ele>
        <time>2013-03-16T13:11:25Z</time>
      </trkpt>
      <trkpt lat="43.40112" lon="6.06911">
        <ele>241.19999694824</ele>
        <time>2013-03-16T13:11:30Z</time>
      </trkpt>
      <trkpt lat="43.40113" lon="6.06926">
        <ele>241.19999694824</ele>
        <time>2013-03-16T13:11:33Z</time>
      </trkpt>
      <trkpt lat="43.40119" lon="6.06961">
        <ele>241.19999694824</ele>
        <time>2013-03-16T13:11:40Z</time>
      </trkpt>
      <trkpt lat="43.40121" lon="6.06977">
        <ele>241.19999694824</ele>
        <time>2013-03-16T13:11:43Z</time>
      </trkpt>
      <trkpt lat="43.40123" lon="6.06998">
        <ele>241.19999694824</ele>
        <time>2013-03-16T13:11:47Z</time>
      </trkpt>
      <trkpt lat="43.40123" lon="6.07008">
        <ele>241.19999694824</ele>
        <time>2013-03-16T13:11:49Z</time>
      </trkpt>
      <trkpt lat="43.40124" lon="6.07013">
        <ele>241.19999694824</ele>
        <time>2013-03-16T13:11:50Z</time>
      </trkpt>
      <trkpt lat="43.40123" lon="6.07022">
        <ele>240.80000305176</ele>
        <time>2013-03-16T13:11:52Z</time>
      </trkpt>
      <trkpt lat="43.40123" lon="6.07027">
        <ele>240.39999389648</ele>
        <time>2013-03-16T13:11:53Z</time>
      </trkpt>
      <trkpt lat="43.40123" lon="6.07032">
        <ele>240</ele>
        <time>2013-03-16T13:11:54Z</time>
      </trkpt>
      <trkpt lat="43.40123" lon="6.07041">
        <ele>239.19999694824</ele>
        <time>2013-03-16T13:11:56Z</time>
      </trkpt>
      <trkpt lat="43.40123" lon="6.0706">
        <ele>239.19999694824</ele>
        <time>2013-03-16T13:12:00Z</time>
      </trkpt>
      <trkpt lat="43.40123" lon="6.07068">
        <ele>239.19999694824</ele>
        <time>2013-03-16T13:12:03Z</time>
      </trkpt>
      <trkpt lat="43.40124" lon="6.07069">
        <ele>239.19999694824</ele>
        <time>2013-03-16T13:12:04Z</time>
      </trkpt>
      <trkpt lat="43.40124" lon="6.07071">
        <ele>239.19999694824</ele>
        <time>2013-03-16T13:12:05Z</time>
      </trkpt>
      <trkpt lat="43.40124" lon="6.07073">
        <ele>239.19999694824</ele>
        <time>2013-03-16T13:12:06Z</time>
      </trkpt>
      <trkpt lat="43.40123" lon="6.07076">
        <ele>239.19999694824</ele>
        <time>2013-03-16T13:12:08Z</time>
      </trkpt>
      <trkpt lat="43.40125" lon="6.07071">
        <ele>239.19999694824</ele>
        <time>2013-03-16T13:12:11Z</time>
      </trkpt>
      <trkpt lat="43.40123" lon="6.07074">
        <ele>239.19999694824</ele>
        <time>2013-03-16T13:12:14Z</time>
      </trkpt>
      <trkpt lat="43.40123" lon="6.07084">
        <ele>239.19999694824</ele>
        <time>2013-03-16T13:12:17Z</time>
      </trkpt>
      <trkpt lat="43.40124" lon="6.0709">
        <ele>239.19999694824</ele>
        <time>2013-03-16T13:12:19Z</time>
      </trkpt>
      <trkpt lat="43.40128" lon="6.07116">
        <ele>239.19999694824</ele>
        <time>2013-03-16T13:12:25Z</time>
      </trkpt>
      <trkpt lat="43.40134" lon="6.07145">
        <ele>239.19999694824</ele>
        <time>2013-03-16T13:12:32Z</time>
      </trkpt>
      <trkpt lat="43.40137" lon="6.07173">
        <ele>239.19999694824</ele>
        <time>2013-03-16T13:12:40Z</time>
      </trkpt>
      <trkpt lat="43.40139" lon="6.07184">
        <ele>239.19999694824</ele>
        <time>2013-03-16T13:12:43Z</time>
      </trkpt>
      <trkpt lat="43.40139" lon="6.07191">
        <ele>239.19999694824</ele>
        <time>2013-03-16T13:12:45Z</time>
      </trkpt>
      <trkpt lat="43.40145" lon="6.07237">
        <ele>239.19999694824</ele>
        <time>2013-03-16T13:12:56Z</time>
      </trkpt>
      <trkpt lat="43.40149" lon="6.07271">
        <ele>239.19999694824</ele>
        <time>2013-03-16T13:13:03Z</time>
      </trkpt>
      <trkpt lat="43.40149" lon="6.07291">
        <ele>239.19999694824</ele>
        <time>2013-03-16T13:13:07Z</time>
      </trkpt>
      <trkpt lat="43.40149" lon="6.07306">
        <ele>239.19999694824</ele>
        <time>2013-03-16T13:13:10Z</time>
      </trkpt>
      <trkpt lat="43.40149" lon="6.07311">
        <ele>239.19999694824</ele>
        <time>2013-03-16T13:13:11Z</time>
      </trkpt>
      <trkpt lat="43.40147" lon="6.07336">
        <ele>239.19999694824</ele>
        <time>2013-03-16T13:13:17Z</time>
      </trkpt>
      <trkpt lat="43.40144" lon="6.07367">
        <ele>239.19999694824</ele>
        <time>2013-03-16T13:13:24Z</time>
      </trkpt>
      <trkpt lat="43.40142" lon="6.07373">
        <ele>239.19999694824</ele>
        <time>2013-03-16T13:13:25Z</time>
      </trkpt>
      <trkpt lat="43.40144" lon="6.07399">
        <ele>239.19999694824</ele>
        <time>2013-03-16T13:13:31Z</time>
      </trkpt>
      <trkpt lat="43.40145" lon="6.07409">
        <ele>239.19999694824</ele>
        <time>2013-03-16T13:13:33Z</time>
      </trkpt>
      <trkpt lat="43.40148" lon="6.07423">
        <ele>239.19999694824</ele>
        <time>2013-03-16T13:13:36Z</time>
      </trkpt>
      <trkpt lat="43.4015" lon="6.07432">
        <ele>239.19999694824</ele>
        <time>2013-03-16T13:13:38Z</time>
      </trkpt>
      <trkpt lat="43.4015" lon="6.07437">
        <ele>239.19999694824</ele>
        <time>2013-03-16T13:13:39Z</time>
      </trkpt>
      <trkpt lat="43.4015" lon="6.07446">
        <ele>239.19999694824</ele>
        <time>2013-03-16T13:13:41Z</time>
      </trkpt>
      <trkpt lat="43.40147" lon="6.07482">
        <ele>239.60000610352</ele>
        <time>2013-03-16T13:13:50Z</time>
      </trkpt>
      <trkpt lat="43.40145" lon="6.07493">
        <ele>240.80000305176</ele>
        <time>2013-03-16T13:13:53Z</time>
      </trkpt>
      <trkpt lat="43.40142" lon="6.07504">
        <ele>241.19999694824</ele>
        <time>2013-03-16T13:13:56Z</time>
      </trkpt>
      <trkpt lat="43.40139" lon="6.07513">
        <ele>241.60000610352</ele>
        <time>2013-03-16T13:13:59Z</time>
      </trkpt>
      <trkpt lat="43.40134" lon="6.07526">
        <ele>243.39999389648</ele>
        <time>2013-03-16T13:14:03Z</time>
      </trkpt>
      <trkpt lat="43.40123" lon="6.07547">
        <ele>243.39999389648</ele>
        <time>2013-03-16T13:14:10Z</time>
      </trkpt>
      <trkpt lat="43.40117" lon="6.0756">
        <ele>243.39999389648</ele>
        <time>2013-03-16T13:14:15Z</time>
      </trkpt>
      <trkpt lat="43.40104" lon="6.07579">
        <ele>243.39999389648</ele>
        <time>2013-03-16T13:14:21Z</time>
      </trkpt>
      <trkpt lat="43.40098" lon="6.07592">
        <ele>245.19999694824</ele>
        <time>2013-03-16T13:14:25Z</time>
      </trkpt>
      <trkpt lat="43.40096" lon="6.07595">
        <ele>245.60000610352</ele>
        <time>2013-03-16T13:14:26Z</time>
      </trkpt>
      <trkpt lat="43.40094" lon="6.07603">
        <ele>245.60000610352</ele>
        <time>2013-03-16T13:14:28Z</time>
      </trkpt>
      <trkpt lat="43.40093" lon="6.07631">
        <ele>245.60000610352</ele>
        <time>2013-03-16T13:14:35Z</time>
      </trkpt>
      <trkpt lat="43.40092" lon="6.07648">
        <ele>246.80000305176</ele>
        <time>2013-03-16T13:14:39Z</time>
      </trkpt>
      <trkpt lat="43.40084" lon="6.07676">
        <ele>248.80000305176</ele>
        <time>2013-03-16T13:14:47Z</time>
      </trkpt>
      <trkpt lat="43.40083" lon="6.07679">
        <ele>249.19999694824</ele>
        <time>2013-03-16T13:14:48Z</time>
      </trkpt>
      <trkpt lat="43.40081" lon="6.07682">
        <ele>249.60000610352</ele>
        <time>2013-03-16T13:14:49Z</time>
      </trkpt>
      <trkpt lat="43.40067" lon="6.07705">
        <ele>251</ele>
        <time>2013-03-16T13:14:57Z</time>
      </trkpt>
      <trkpt lat="43.40064" lon="6.07709">
        <ele>251.39999389648</ele>
        <time>2013-03-16T13:14:58Z</time>
      </trkpt>
      <trkpt lat="43.40046" lon="6.07733">
        <ele>251.80000305176</ele>
        <time>2013-03-16T13:15:06Z</time>
      </trkpt>
      <trkpt lat="43.40033" lon="6.07762">
        <ele>251.80000305176</ele>
        <time>2013-03-16T13:15:14Z</time>
      </trkpt>
      <trkpt lat="43.40025" lon="6.07788">
        <ele>251.80000305176</ele>
        <time>2013-03-16T13:15:21Z</time>
      </trkpt>
      <trkpt lat="43.40022" lon="6.07803">
        <ele>252.60000610352</ele>
        <time>2013-03-16T13:15:25Z</time>
      </trkpt>
      <trkpt lat="43.40019" lon="6.0781">
        <ele>253.39999389648</ele>
        <time>2013-03-16T13:15:27Z</time>
      </trkpt>
      <trkpt lat="43.40013" lon="6.0783">
        <ele>253.80000305176</ele>
        <time>2013-03-16T13:15:32Z</time>
      </trkpt>
      <trkpt lat="43.40007" lon="6.07854">
        <ele>253.80000305176</ele>
        <time>2013-03-16T13:15:37Z</time>
      </trkpt>
      <trkpt lat="43.40002" lon="6.07871">
        <ele>253.80000305176</ele>
        <time>2013-03-16T13:15:41Z</time>
      </trkpt>
      <trkpt lat="43.4" lon="6.07879">
        <ele>253.80000305176</ele>
        <time>2013-03-16T13:15:43Z</time>
      </trkpt>
      <trkpt lat="43.39993" lon="6.07908">
        <ele>253.80000305176</ele>
        <time>2013-03-16T13:15:50Z</time>
      </trkpt>
      <trkpt lat="43.3999" lon="6.07927">
        <ele>255.60000610352</ele>
        <time>2013-03-16T13:15:56Z</time>
      </trkpt>
      <trkpt lat="43.39988" lon="6.0794">
        <ele>256</ele>
        <time>2013-03-16T13:16:00Z</time>
      </trkpt>
      <trkpt lat="43.39981" lon="6.07956">
        <ele>256</ele>
        <time>2013-03-16T13:16:06Z</time>
      </trkpt>
      <trkpt lat="43.39978" lon="6.07965">
        <ele>257</ele>
        <time>2013-03-16T13:16:09Z</time>
      </trkpt>
      <trkpt lat="43.39977" lon="6.07969">
        <ele>257.79998779297</ele>
        <time>2013-03-16T13:16:11Z</time>
      </trkpt>
      <trkpt lat="43.39976" lon="6.07971">
        <ele>258.20001220703</ele>
        <time>2013-03-16T13:16:12Z</time>
      </trkpt>
      <trkpt lat="43.39974" lon="6.07975">
        <ele>258.20001220703</ele>
        <time>2013-03-16T13:16:14Z</time>
      </trkpt>
      <trkpt lat="43.39969" lon="6.0798">
        <ele>258.20001220703</ele>
        <time>2013-03-16T13:16:17Z</time>
      </trkpt>
      <trkpt lat="43.39964" lon="6.07986">
        <ele>258.60000610352</ele>
        <time>2013-03-16T13:16:20Z</time>
      </trkpt>
      <trkpt lat="43.39959" lon="6.07989">
        <ele>259.60000610352</ele>
        <time>2013-03-16T13:16:22Z</time>
      </trkpt>
      <trkpt lat="43.39953" lon="6.07993">
        <ele>260.39999389648</ele>
        <time>2013-03-16T13:16:24Z</time>
      </trkpt>
      <trkpt lat="43.39937" lon="6.08004">
        <ele>260.39999389648</ele>
        <time>2013-03-16T13:16:29Z</time>
      </trkpt>
      <trkpt lat="43.3993" lon="6.08009">
        <ele>260.39999389648</ele>
        <time>2013-03-16T13:16:31Z</time>
      </trkpt>
      <trkpt lat="43.39914" lon="6.08024">
        <ele>260.39999389648</ele>
        <time>2013-03-16T13:16:36Z</time>
      </trkpt>
      <trkpt lat="43.399" lon="6.08042">
        <ele>260.39999389648</ele>
        <time>2013-03-16T13:16:40Z</time>
      </trkpt>
      <trkpt lat="43.39883" lon="6.08049">
        <ele>260.39999389648</ele>
        <time>2013-03-16T13:16:44Z</time>
      </trkpt>
      <trkpt lat="43.39867" lon="6.08041">
        <ele>260.39999389648</ele>
        <time>2013-03-16T13:16:48Z</time>
      </trkpt>
      <trkpt lat="43.39862" lon="6.08039">
        <ele>260.39999389648</ele>
        <time>2013-03-16T13:16:49Z</time>
      </trkpt>
      <trkpt lat="43.39849" lon="6.08028">
        <ele>260.39999389648</ele>
        <time>2013-03-16T13:16:52Z</time>
      </trkpt>
      <trkpt lat="43.39822" lon="6.08007">
        <ele>260.39999389648</ele>
        <time>2013-03-16T13:16:59Z</time>
      </trkpt>
      <trkpt lat="43.398" lon="6.07996">
        <ele>260.39999389648</ele>
        <time>2013-03-16T13:17:05Z</time>
      </trkpt>
      <trkpt lat="43.39782" lon="6.07987">
        <ele>260.39999389648</ele>
        <time>2013-03-16T13:17:11Z</time>
      </trkpt>
      <trkpt lat="43.39768" lon="6.07979">
        <ele>260.39999389648</ele>
        <time>2013-03-16T13:17:16Z</time>
      </trkpt>
      <trkpt lat="43.39766" lon="6.07978">
        <ele>260.39999389648</ele>
        <time>2013-03-16T13:17:17Z</time>
      </trkpt>
      <trkpt lat="43.39761" lon="6.07976">
        <ele>261.20001220703</ele>
        <time>2013-03-16T13:17:19Z</time>
      </trkpt>
      <trkpt lat="43.39755" lon="6.07973">
        <ele>262</ele>
        <time>2013-03-16T13:17:21Z</time>
      </trkpt>
      <trkpt lat="43.39743" lon="6.07961">
        <ele>262.39999389648</ele>
        <time>2013-03-16T13:17:26Z</time>
      </trkpt>
      <trkpt lat="43.39735" lon="6.07953">
        <ele>263.20001220703</ele>
        <time>2013-03-16T13:17:29Z</time>
      </trkpt>
      <trkpt lat="43.3973" lon="6.07948">
        <ele>264</ele>
        <time>2013-03-16T13:17:31Z</time>
      </trkpt>
      <trkpt lat="43.39729" lon="6.07946">
        <ele>264.39999389648</ele>
        <time>2013-03-16T13:17:32Z</time>
      </trkpt>
      <trkpt lat="43.39723" lon="6.07938">
        <ele>264.39999389648</ele>
        <time>2013-03-16T13:17:35Z</time>
      </trkpt>
      <trkpt lat="43.3972" lon="6.07934">
        <ele>264.39999389648</ele>
        <time>2013-03-16T13:17:37Z</time>
      </trkpt>
      <trkpt lat="43.39714" lon="6.07928">
        <ele>264.39999389648</ele>
        <time>2013-03-16T13:17:40Z</time>
      </trkpt>
      <trkpt lat="43.39713" lon="6.07926">
        <ele>264.39999389648</ele>
        <time>2013-03-16T13:17:41Z</time>
      </trkpt>
      <trkpt lat="43.39703" lon="6.07915">
        <ele>264.39999389648</ele>
        <time>2013-03-16T13:17:47Z</time>
      </trkpt>
      <trkpt lat="43.39693" lon="6.07902">
        <ele>265.60000610352</ele>
        <time>2013-03-16T13:17:53Z</time>
      </trkpt>
      <trkpt lat="43.3969" lon="6.079">
        <ele>266.60000610352</ele>
        <time>2013-03-16T13:17:55Z</time>
      </trkpt>
      <trkpt lat="43.39688" lon="6.07899">
        <ele>267</ele>
        <time>2013-03-16T13:17:56Z</time>
      </trkpt>
      <trkpt lat="43.39683" lon="6.07896">
        <ele>268</ele>
        <time>2013-03-16T13:17:58Z</time>
      </trkpt>
      <trkpt lat="43.39681" lon="6.07895">
        <ele>268.60000610352</ele>
        <time>2013-03-16T13:17:59Z</time>
      </trkpt>
      <trkpt lat="43.39672" lon="6.07893">
        <ele>268.60000610352</ele>
        <time>2013-03-16T13:18:04Z</time>
      </trkpt>
      <trkpt lat="43.39671" lon="6.07893">
        <ele>269</ele>
        <time>2013-03-16T13:18:05Z</time>
      </trkpt>
      <trkpt lat="43.39671" lon="6.07893">
        <ele>269.39999389648</ele>
        <time>2013-03-16T13:18:06Z</time>
      </trkpt>
      <trkpt lat="43.39671" lon="6.07893">
        <ele>270.60000610352</ele>
        <time>2013-03-16T13:18:22Z</time>
      </trkpt>
      <trkpt lat="43.39671" lon="6.07893">
        <ele>270.60000610352</ele>
        <time>2013-03-16T13:18:28Z</time>
      </trkpt>
      <trkpt lat="43.39671" lon="6.07892">
        <ele>270.60000610352</ele>
        <time>2013-03-16T13:18:31Z</time>
      </trkpt>
      <trkpt lat="43.39671" lon="6.07892">
        <ele>270.60000610352</ele>
        <time>2013-03-16T13:18:52Z</time>
      </trkpt>
      <trkpt lat="43.39671" lon="6.07892">
        <ele>270.60000610352</ele>
        <time>2013-03-16T13:19:13Z</time>
      </trkpt>
      <trkpt lat="43.3967" lon="6.07893">
        <ele>270.60000610352</ele>
        <time>2013-03-16T13:19:22Z</time>
      </trkpt>
      <trkpt lat="43.39668" lon="6.07893">
        <ele>270.60000610352</ele>
        <time>2013-03-16T13:19:23Z</time>
      </trkpt>
      <trkpt lat="43.39666" lon="6.07892">
        <ele>270.60000610352</ele>
        <time>2013-03-16T13:19:25Z</time>
      </trkpt>
      <trkpt lat="43.39665" lon="6.07892">
        <ele>270.60000610352</ele>
        <time>2013-03-16T13:19:26Z</time>
      </trkpt>
      <trkpt lat="43.3966" lon="6.07894">
        <ele>270.60000610352</ele>
        <time>2013-03-16T13:19:30Z</time>
      </trkpt>
      <trkpt lat="43.39656" lon="6.07893">
        <ele>270.60000610352</ele>
        <time>2013-03-16T13:19:33Z</time>
      </trkpt>
      <trkpt lat="43.3965" lon="6.07893">
        <ele>270.60000610352</ele>
        <time>2013-03-16T13:19:36Z</time>
      </trkpt>
      <trkpt lat="43.39645" lon="6.07894">
        <ele>271.39999389648</ele>
        <time>2013-03-16T13:19:38Z</time>
      </trkpt>
      <trkpt lat="43.3964" lon="6.07895">
        <ele>272.20001220703</ele>
        <time>2013-03-16T13:19:40Z</time>
      </trkpt>
      <trkpt lat="43.39637" lon="6.07896">
        <ele>272.60000610352</ele>
        <time>2013-03-16T13:19:41Z</time>
      </trkpt>
      <trkpt lat="43.39631" lon="6.07897">
        <ele>272.60000610352</ele>
        <time>2013-03-16T13:19:43Z</time>
      </trkpt>
      <trkpt lat="43.39614" lon="6.07904">
        <ele>272.60000610352</ele>
        <time>2013-03-16T13:19:50Z</time>
      </trkpt>
      <trkpt lat="43.396" lon="6.07907">
        <ele>273</ele>
        <time>2013-03-16T13:19:57Z</time>
      </trkpt>
      <trkpt lat="43.39597" lon="6.07907">
        <ele>274</ele>
        <time>2013-03-16T13:19:59Z</time>
      </trkpt>
      <trkpt lat="43.39592" lon="6.07907">
        <ele>275</ele>
        <time>2013-03-16T13:20:02Z</time>
      </trkpt>
      <trkpt lat="43.39589" lon="6.07907">
        <ele>275.39999389648</ele>
        <time>2013-03-16T13:20:04Z</time>
      </trkpt>
      <trkpt lat="43.39587" lon="6.07909">
        <ele>275.79998779297</ele>
        <time>2013-03-16T13:20:05Z</time>
      </trkpt>
      <trkpt lat="43.39577" lon="6.07931">
        <ele>277</ele>
        <time>2013-03-16T13:20:15Z</time>
      </trkpt>
      <trkpt lat="43.39571" lon="6.07935">
        <ele>278.20001220703</ele>
        <time>2013-03-16T13:20:20Z</time>
      </trkpt>
      <trkpt lat="43.39567" lon="6.07935">
        <ele>279</ele>
        <time>2013-03-16T13:20:22Z</time>
      </trkpt>
      <trkpt lat="43.3956" lon="6.07936">
        <ele>279</ele>
        <time>2013-03-16T13:20:26Z</time>
      </trkpt>
      <trkpt lat="43.39557" lon="6.07937">
        <ele>279.60000610352</ele>
        <time>2013-03-16T13:20:28Z</time>
      </trkpt>
      <trkpt lat="43.39553" lon="6.07939">
        <ele>280.39999389648</ele>
        <time>2013-03-16T13:20:30Z</time>
      </trkpt>
      <trkpt lat="43.3955" lon="6.0794">
        <ele>281.39999389648</ele>
        <time>2013-03-16T13:20:32Z</time>
      </trkpt>
      <trkpt lat="43.39538" lon="6.07945">
        <ele>282.20001220703</ele>
        <time>2013-03-16T13:20:39Z</time>
      </trkpt>
      <trkpt lat="43.39537" lon="6.07946">
        <ele>282.60000610352</ele>
        <time>2013-03-16T13:20:40Z</time>
      </trkpt>
      <trkpt lat="43.39534" lon="6.07948">
        <ele>283.39999389648</ele>
        <time>2013-03-16T13:20:42Z</time>
      </trkpt>
      <trkpt lat="43.39531" lon="6.07951">
        <ele>283.39999389648</ele>
        <time>2013-03-16T13:20:45Z</time>
      </trkpt>
      <trkpt lat="43.39523" lon="6.07953">
        <ele>283.79998779297</ele>
        <time>2013-03-16T13:20:49Z</time>
      </trkpt>
      <trkpt lat="43.39516" lon="6.07954">
        <ele>285.39999389648</ele>
        <time>2013-03-16T13:20:53Z</time>
      </trkpt>
      <trkpt lat="43.39492" lon="6.07963">
        <ele>287.79998779297</ele>
        <time>2013-03-16T13:21:06Z</time>
      </trkpt>
      <trkpt lat="43.39451" lon="6.0798">
        <ele>287.79998779297</ele>
        <time>2013-03-16T13:21:28Z</time>
      </trkpt>
      <trkpt lat="43.39441" lon="6.07985">
        <ele>289.79998779297</ele>
        <time>2013-03-16T13:21:34Z</time>
      </trkpt>
      <trkpt lat="43.3943" lon="6.07988">
        <ele>289.79998779297</ele>
        <time>2013-03-16T13:21:39Z</time>
      </trkpt>
      <trkpt lat="43.39412" lon="6.07998">
        <ele>290.20001220703</ele>
        <time>2013-03-16T13:21:48Z</time>
      </trkpt>
      <trkpt lat="43.39405" lon="6.08001">
        <ele>291.79998779297</ele>
        <time>2013-03-16T13:21:53Z</time>
      </trkpt>
      <trkpt lat="43.39397" lon="6.08006">
        <ele>292.60000610352</ele>
        <time>2013-03-16T13:21:57Z</time>
      </trkpt>
      <trkpt lat="43.39393" lon="6.08009">
        <ele>294</ele>
        <time>2013-03-16T13:21:59Z</time>
      </trkpt>
      <trkpt lat="43.39387" lon="6.08016">
        <ele>294.39999389648</ele>
        <time>2013-03-16T13:22:03Z</time>
      </trkpt>
      <trkpt lat="43.39385" lon="6.0802">
        <ele>295.20001220703</ele>
        <time>2013-03-16T13:22:05Z</time>
      </trkpt>
      <trkpt lat="43.3937" lon="6.08045">
        <ele>296.39999389648</ele>
        <time>2013-03-16T13:22:16Z</time>
      </trkpt>
      <trkpt lat="43.39366" lon="6.0805">
        <ele>297.60000610352</ele>
        <time>2013-03-16T13:22:19Z</time>
      </trkpt>
      <trkpt lat="43.39364" lon="6.08055">
        <ele>298</ele>
        <time>2013-03-16T13:22:21Z</time>
      </trkpt>
      <trkpt lat="43.39355" lon="6.08069">
        <ele>298</ele>
        <time>2013-03-16T13:22:28Z</time>
      </trkpt>
      <trkpt lat="43.39352" lon="6.08075">
        <ele>299</ele>
        <time>2013-03-16T13:22:32Z</time>
      </trkpt>
      <trkpt lat="43.39348" lon="6.0808">
        <ele>300.20001220703</ele>
        <time>2013-03-16T13:22:35Z</time>
      </trkpt>
      <trkpt lat="43.39344" lon="6.08085">
        <ele>300.20001220703</ele>
        <time>2013-03-16T13:22:39Z</time>
      </trkpt>
      <trkpt lat="43.39339" lon="6.08095">
        <ele>300.20001220703</ele>
        <time>2013-03-16T13:22:44Z</time>
      </trkpt>
      <trkpt lat="43.39334" lon="6.08101">
        <ele>302.20001220703</ele>
        <time>2013-03-16T13:22:48Z</time>
      </trkpt>
      <trkpt lat="43.39325" lon="6.08112">
        <ele>302.60000610352</ele>
        <time>2013-03-16T13:22:56Z</time>
      </trkpt>
      <trkpt lat="43.39317" lon="6.08136">
        <ele>304.79998779297</ele>
        <time>2013-03-16T13:23:07Z</time>
      </trkpt>
      <trkpt lat="43.39311" lon="6.08156">
        <ele>305.20001220703</ele>
        <time>2013-03-16T13:23:16Z</time>
      </trkpt>
      <trkpt lat="43.3931" lon="6.0816">
        <ele>306</ele>
        <time>2013-03-16T13:23:18Z</time>
      </trkpt>
      <trkpt lat="43.39302" lon="6.08179">
        <ele>306.79998779297</ele>
        <time>2013-03-16T13:23:27Z</time>
      </trkpt>
      <trkpt lat="43.39299" lon="6.08187">
        <ele>307.20001220703</ele>
        <time>2013-03-16T13:23:31Z</time>
      </trkpt>
      <trkpt lat="43.39295" lon="6.08195">
        <ele>308.79998779297</ele>
        <time>2013-03-16T13:23:35Z</time>
      </trkpt>
      <trkpt lat="43.39293" lon="6.08203">
        <ele>308.79998779297</ele>
        <time>2013-03-16T13:23:39Z</time>
      </trkpt>
      <trkpt lat="43.3929" lon="6.08215">
        <ele>308.79998779297</ele>
        <time>2013-03-16T13:23:45Z</time>
      </trkpt>
      <trkpt lat="43.39286" lon="6.08232">
        <ele>310.60000610352</ele>
        <time>2013-03-16T13:23:53Z</time>
      </trkpt>
      <trkpt lat="43.39284" lon="6.08241">
        <ele>311</ele>
        <time>2013-03-16T13:23:57Z</time>
      </trkpt>
      <trkpt lat="43.39278" lon="6.08256">
        <ele>311.39999389648</ele>
        <time>2013-03-16T13:24:05Z</time>
      </trkpt>
      <trkpt lat="43.39275" lon="6.08261">
        <ele>312.60000610352</ele>
        <time>2013-03-16T13:24:08Z</time>
      </trkpt>
      <trkpt lat="43.39268" lon="6.08274">
        <ele>313.60000610352</ele>
        <time>2013-03-16T13:24:16Z</time>
      </trkpt>
      <trkpt lat="43.39265" lon="6.08282">
        <ele>315.20001220703</ele>
        <time>2013-03-16T13:24:20Z</time>
      </trkpt>
      <trkpt lat="43.39263" lon="6.08286">
        <ele>315.20001220703</ele>
        <time>2013-03-16T13:24:22Z</time>
      </trkpt>
      <trkpt lat="43.39261" lon="6.0829">
        <ele>315.20001220703</ele>
        <time>2013-03-16T13:24:24Z</time>
      </trkpt>
      <trkpt lat="43.39259" lon="6.08297">
        <ele>315.20001220703</ele>
        <time>2013-03-16T13:24:27Z</time>
      </trkpt>
      <trkpt lat="43.39256" lon="6.08314">
        <ele>315.60000610352</ele>
        <time>2013-03-16T13:24:36Z</time>
      </trkpt>
      <trkpt lat="43.39255" lon="6.08319">
        <ele>316.79998779297</ele>
        <time>2013-03-16T13:24:39Z</time>
      </trkpt>
      <trkpt lat="43.39254" lon="6.08326">
        <ele>317.20001220703</ele>
        <time>2013-03-16T13:24:43Z</time>
      </trkpt>
      <trkpt lat="43.3925" lon="6.08338">
        <ele>318.20001220703</ele>
        <time>2013-03-16T13:24:50Z</time>
      </trkpt>
      <trkpt lat="43.39248" lon="6.08342">
        <ele>319.39999389648</ele>
        <time>2013-03-16T13:24:52Z</time>
      </trkpt>
      <trkpt lat="43.39244" lon="6.08358">
        <ele>319.39999389648</ele>
        <time>2013-03-16T13:25:00Z</time>
      </trkpt>
      <trkpt lat="43.39243" lon="6.08366">
        <ele>319.39999389648</ele>
        <time>2013-03-16T13:25:05Z</time>
      </trkpt>
      <trkpt lat="43.39242" lon="6.08368">
        <ele>319.39999389648</ele>
        <time>2013-03-16T13:25:06Z</time>
      </trkpt>
      <trkpt lat="43.3924" lon="6.08371">
        <ele>320.39999389648</ele>
        <time>2013-03-16T13:25:08Z</time>
      </trkpt>
      <trkpt lat="43.39238" lon="6.08375">
        <ele>321.60000610352</ele>
        <time>2013-03-16T13:25:11Z</time>
      </trkpt>
      <trkpt lat="43.39237" lon="6.08378">
        <ele>321.60000610352</ele>
        <time>2013-03-16T13:25:13Z</time>
      </trkpt>
      <trkpt lat="43.39236" lon="6.08383">
        <ele>321.60000610352</ele>
        <time>2013-03-16T13:25:15Z</time>
      </trkpt>
      <trkpt lat="43.39234" lon="6.08391">
        <ele>321.60000610352</ele>
        <time>2013-03-16T13:25:19Z</time>
      </trkpt>
      <trkpt lat="43.39234" lon="6.08398">
        <ele>322.20001220703</ele>
        <time>2013-03-16T13:25:22Z</time>
      </trkpt>
      <trkpt lat="43.39233" lon="6.08399">
        <ele>322.60000610352</ele>
        <time>2013-03-16T13:25:23Z</time>
      </trkpt>
      <trkpt lat="43.39232" lon="6.08404">
        <ele>323.79998779297</ele>
        <time>2013-03-16T13:25:26Z</time>
      </trkpt>
      <trkpt lat="43.39231" lon="6.08411">
        <ele>323.79998779297</ele>
        <time>2013-03-16T13:25:29Z</time>
      </trkpt>
      <trkpt lat="43.3923" lon="6.08413">
        <ele>323.79998779297</ele>
        <time>2013-03-16T13:25:31Z</time>
      </trkpt>
      <trkpt lat="43.39228" lon="6.08425">
        <ele>324.20001220703</ele>
        <time>2013-03-16T13:25:38Z</time>
      </trkpt>
      <trkpt lat="43.39227" lon="6.08432">
        <ele>325.79998779297</ele>
        <time>2013-03-16T13:25:42Z</time>
      </trkpt>
      <trkpt lat="43.39225" lon="6.08442">
        <ele>325.79998779297</ele>
        <time>2013-03-16T13:25:47Z</time>
      </trkpt>
      <trkpt lat="43.39221" lon="6.08452">
        <ele>327.79998779297</ele>
        <time>2013-03-16T13:25:54Z</time>
      </trkpt>
      <trkpt lat="43.39218" lon="6.08457">
        <ele>327.79998779297</ele>
        <time>2013-03-16T13:25:58Z</time>
      </trkpt>
      <trkpt lat="43.39216" lon="6.08471">
        <ele>329.39999389648</ele>
        <time>2013-03-16T13:26:07Z</time>
      </trkpt>
      <trkpt lat="43.39214" lon="6.08483">
        <ele>330</ele>
        <time>2013-03-16T13:26:15Z</time>
      </trkpt>
      <trkpt lat="43.39213" lon="6.08485">
        <ele>330</ele>
        <time>2013-03-16T13:26:16Z</time>
      </trkpt>
      <trkpt lat="43.39212" lon="6.08487">
        <ele>330</ele>
        <time>2013-03-16T13:26:18Z</time>
      </trkpt>
      <trkpt lat="43.39209" lon="6.08492">
        <ele>330</ele>
        <time>2013-03-16T13:26:22Z</time>
      </trkpt>
      <trkpt lat="43.39209" lon="6.08492">
        <ele>330</ele>
        <time>2013-03-16T13:26:39Z</time>
      </trkpt>
      <trkpt lat="43.39209" lon="6.08492">
        <ele>330</ele>
        <time>2013-03-16T13:26:58Z</time>
      </trkpt>
      <trkpt lat="43.39209" lon="6.08493">
        <ele>330.79998779297</ele>
        <time>2013-03-16T13:27:02Z</time>
      </trkpt>
      <trkpt lat="43.39209" lon="6.08493">
        <ele>332</ele>
        <time>2013-03-16T13:27:19Z</time>
      </trkpt>
      <trkpt lat="43.39209" lon="6.08493">
        <ele>332</ele>
        <time>2013-03-16T13:27:41Z</time>
      </trkpt>
      <trkpt lat="43.39209" lon="6.08494">
        <ele>332</ele>
        <time>2013-03-16T13:27:43Z</time>
      </trkpt>
      <trkpt lat="43.39206" lon="6.08499">
        <ele>332</ele>
        <time>2013-03-16T13:27:49Z</time>
      </trkpt>
      <trkpt lat="43.39206" lon="6.08499">
        <ele>332</ele>
        <time>2013-03-16T13:28:11Z</time>
      </trkpt>
      <trkpt lat="43.39206" lon="6.08499">
        <ele>332</ele>
        <time>2013-03-16T13:28:56Z</time>
      </trkpt>
      <trkpt lat="43.39206" lon="6.08499">
        <ele>332</ele>
        <time>2013-03-16T13:29:13Z</time>
      </trkpt>
      <trkpt lat="43.39206" lon="6.08499">
        <ele>332</ele>
        <time>2013-03-16T13:29:25Z</time>
      </trkpt>
      <trkpt lat="43.39202" lon="6.08507">
        <ele>332</ele>
        <time>2013-03-16T13:29:31Z</time>
      </trkpt>
      <trkpt lat="43.39197" lon="6.08514">
        <ele>332</ele>
        <time>2013-03-16T13:29:35Z</time>
      </trkpt>
      <trkpt lat="43.39194" lon="6.08518">
        <ele>332</ele>
        <time>2013-03-16T13:29:37Z</time>
      </trkpt>
      <trkpt lat="43.39191" lon="6.08522">
        <ele>332</ele>
        <time>2013-03-16T13:29:39Z</time>
      </trkpt>
      <trkpt lat="43.39188" lon="6.08533">
        <ele>332</ele>
        <time>2013-03-16T13:29:42Z</time>
      </trkpt>
      <trkpt lat="43.39183" lon="6.08546">
        <ele>332</ele>
        <time>2013-03-16T13:29:46Z</time>
      </trkpt>
      <trkpt lat="43.39182" lon="6.0855">
        <ele>332</ele>
        <time>2013-03-16T13:29:47Z</time>
      </trkpt>
      <trkpt lat="43.39175" lon="6.08575">
        <ele>332</ele>
        <time>2013-03-16T13:29:53Z</time>
      </trkpt>
      <trkpt lat="43.39173" lon="6.08592">
        <ele>331.60000610352</ele>
        <time>2013-03-16T13:29:57Z</time>
      </trkpt>
      <trkpt lat="43.39169" lon="6.08609">
        <ele>329.79998779297</ele>
        <time>2013-03-16T13:30:01Z</time>
      </trkpt>
      <trkpt lat="43.39166" lon="6.08626">
        <ele>329.79998779297</ele>
        <time>2013-03-16T13:30:05Z</time>
      </trkpt>
      <trkpt lat="43.3916" lon="6.08644">
        <ele>329.79998779297</ele>
        <time>2013-03-16T13:30:10Z</time>
      </trkpt>
      <trkpt lat="43.39159" lon="6.08661">
        <ele>329.79998779297</ele>
        <time>2013-03-16T13:30:15Z</time>
      </trkpt>
      <trkpt lat="43.39154" lon="6.08676">
        <ele>329.79998779297</ele>
        <time>2013-03-16T13:30:19Z</time>
      </trkpt>
      <trkpt lat="43.39153" lon="6.08694">
        <ele>329.79998779297</ele>
        <time>2013-03-16T13:30:24Z</time>
      </trkpt>
      <trkpt lat="43.3915" lon="6.08712">
        <ele>329.79998779297</ele>
        <time>2013-03-16T13:30:29Z</time>
      </trkpt>
      <trkpt lat="43.39146" lon="6.08735">
        <ele>329.79998779297</ele>
        <time>2013-03-16T13:30:35Z</time>
      </trkpt>
      <trkpt lat="43.39141" lon="6.08755">
        <ele>329.79998779297</ele>
        <time>2013-03-16T13:30:42Z</time>
      </trkpt>
      <trkpt lat="43.39137" lon="6.08771">
        <ele>329.79998779297</ele>
        <time>2013-03-16T13:30:47Z</time>
      </trkpt>
      <trkpt lat="43.39128" lon="6.08806">
        <ele>329.79998779297</ele>
        <time>2013-03-16T13:30:57Z</time>
      </trkpt>
      <trkpt lat="43.39123" lon="6.0883">
        <ele>329.79998779297</ele>
        <time>2013-03-16T13:31:03Z</time>
      </trkpt>
      <trkpt lat="43.39116" lon="6.08869">
        <ele>329.79998779297</ele>
        <time>2013-03-16T13:31:15Z</time>
      </trkpt>
      <trkpt lat="43.39115" lon="6.08872">
        <ele>330.20001220703</ele>
        <time>2013-03-16T13:31:16Z</time>
      </trkpt>
      <trkpt lat="43.39113" lon="6.08878">
        <ele>331</ele>
        <time>2013-03-16T13:31:18Z</time>
      </trkpt>
      <trkpt lat="43.39107" lon="6.08907">
        <ele>332</ele>
        <time>2013-03-16T13:31:26Z</time>
      </trkpt>
      <trkpt lat="43.39102" lon="6.08929">
        <ele>332</ele>
        <time>2013-03-16T13:31:32Z</time>
      </trkpt>
      <trkpt lat="43.39096" lon="6.08951">
        <ele>332</ele>
        <time>2013-03-16T13:31:38Z</time>
      </trkpt>
      <trkpt lat="43.3909" lon="6.08967">
        <ele>332</ele>
        <time>2013-03-16T13:31:43Z</time>
      </trkpt>
      <trkpt lat="43.3908" lon="6.08993">
        <ele>332</ele>
        <time>2013-03-16T13:31:52Z</time>
      </trkpt>
      <trkpt lat="43.39074" lon="6.09007">
        <ele>332</ele>
        <time>2013-03-16T13:31:57Z</time>
      </trkpt>
      <trkpt lat="43.39071" lon="6.09017">
        <ele>332.39999389648</ele>
        <time>2013-03-16T13:32:00Z</time>
      </trkpt>
      <trkpt lat="43.39069" lon="6.09019">
        <ele>332.79998779297</ele>
        <time>2013-03-16T13:32:01Z</time>
      </trkpt>
      <trkpt lat="43.39067" lon="6.09024">
        <ele>333.60000610352</ele>
        <time>2013-03-16T13:32:03Z</time>
      </trkpt>
      <trkpt lat="43.39064" lon="6.09032">
        <ele>334</ele>
        <time>2013-03-16T13:32:08Z</time>
      </trkpt>
      <trkpt lat="43.39063" lon="6.09034">
        <ele>334</ele>
        <time>2013-03-16T13:32:13Z</time>
      </trkpt>
      <trkpt lat="43.39063" lon="6.09034">
        <ele>334</ele>
        <time>2013-03-16T13:32:35Z</time>
      </trkpt>
      <trkpt lat="43.39063" lon="6.09034">
        <ele>334</ele>
        <time>2013-03-16T13:32:44Z</time>
      </trkpt>
      <trkpt lat="43.39063" lon="6.09035">
        <ele>334</ele>
        <time>2013-03-16T13:32:50Z</time>
      </trkpt>
      <trkpt lat="43.39063" lon="6.09035">
        <ele>334</ele>
        <time>2013-03-16T13:33:03Z</time>
      </trkpt>
      <trkpt lat="43.39063" lon="6.09035">
        <ele>334</ele>
        <time>2013-03-16T13:33:16Z</time>
      </trkpt>
      <trkpt lat="43.39062" lon="6.09037">
        <ele>334</ele>
        <time>2013-03-16T13:33:23Z</time>
      </trkpt>
      <trkpt lat="43.39056" lon="6.09047">
        <ele>334</ele>
        <time>2013-03-16T13:33:28Z</time>
      </trkpt>
      <trkpt lat="43.3905" lon="6.09058">
        <ele>334</ele>
        <time>2013-03-16T13:33:34Z</time>
      </trkpt>
      <trkpt lat="43.39046" lon="6.09069">
        <ele>334</ele>
        <time>2013-03-16T13:33:37Z</time>
      </trkpt>
      <trkpt lat="43.39036" lon="6.09098">
        <ele>334</ele>
        <time>2013-03-16T13:33:44Z</time>
      </trkpt>
      <trkpt lat="43.39032" lon="6.09108">
        <ele>334</ele>
        <time>2013-03-16T13:33:47Z</time>
      </trkpt>
      <trkpt lat="43.39026" lon="6.0913">
        <ele>334</ele>
        <time>2013-03-16T13:33:52Z</time>
      </trkpt>
      <trkpt lat="43.39019" lon="6.09157">
        <ele>334.79998779297</ele>
        <time>2013-03-16T13:33:58Z</time>
      </trkpt>
      <trkpt lat="43.39016" lon="6.09166">
        <ele>335.60000610352</ele>
        <time>2013-03-16T13:34:00Z</time>
      </trkpt>
      <trkpt lat="43.39014" lon="6.0918">
        <ele>336</ele>
        <time>2013-03-16T13:34:03Z</time>
      </trkpt>
      <trkpt lat="43.39009" lon="6.09202">
        <ele>336</ele>
        <time>2013-03-16T13:34:08Z</time>
      </trkpt>
      <trkpt lat="43.39008" lon="6.09212">
        <ele>336</ele>
        <time>2013-03-16T13:34:10Z</time>
      </trkpt>
      <trkpt lat="43.39003" lon="6.09238">
        <ele>336</ele>
        <time>2013-03-16T13:34:16Z</time>
      </trkpt>
      <trkpt lat="43.38993" lon="6.09269">
        <ele>337.20001220703</ele>
        <time>2013-03-16T13:34:25Z</time>
      </trkpt>
      <trkpt lat="43.38987" lon="6.09283">
        <ele>338.20001220703</ele>
        <time>2013-03-16T13:34:29Z</time>
      </trkpt>
      <trkpt lat="43.38972" lon="6.09309">
        <ele>339.39999389648</ele>
        <time>2013-03-16T13:34:39Z</time>
      </trkpt>
      <trkpt lat="43.38968" lon="6.09315">
        <ele>340.20001220703</ele>
        <time>2013-03-16T13:34:41Z</time>
      </trkpt>
      <trkpt lat="43.3896" lon="6.0933">
        <ele>340.20001220703</ele>
        <time>2013-03-16T13:34:47Z</time>
      </trkpt>
      <trkpt lat="43.38948" lon="6.09342">
        <ele>340.20001220703</ele>
        <time>2013-03-16T13:34:52Z</time>
      </trkpt>
      <trkpt lat="43.38937" lon="6.09358">
        <ele>340.20001220703</ele>
        <time>2013-03-16T13:34:57Z</time>
      </trkpt>
      <trkpt lat="43.3893" lon="6.09366">
        <ele>340.20001220703</ele>
        <time>2013-03-16T13:35:00Z</time>
      </trkpt>
      <trkpt lat="43.38926" lon="6.09371">
        <ele>340.20001220703</ele>
        <time>2013-03-16T13:35:02Z</time>
      </trkpt>
      <trkpt lat="43.38916" lon="6.09384">
        <ele>341.39999389648</ele>
        <time>2013-03-16T13:35:07Z</time>
      </trkpt>
      <trkpt lat="43.38913" lon="6.09387">
        <ele>342.39999389648</ele>
        <time>2013-03-16T13:35:09Z</time>
      </trkpt>
      <trkpt lat="43.38899" lon="6.09403">
        <ele>344.39999389648</ele>
        <time>2013-03-16T13:35:18Z</time>
      </trkpt>
      <trkpt lat="43.38897" lon="6.09409">
        <ele>344.39999389648</ele>
        <time>2013-03-16T13:35:21Z</time>
      </trkpt>
      <trkpt lat="43.38897" lon="6.09416">
        <ele>344.39999389648</ele>
        <time>2013-03-16T13:35:23Z</time>
      </trkpt>
      <trkpt lat="43.38896" lon="6.09419">
        <ele>344.39999389648</ele>
        <time>2013-03-16T13:35:24Z</time>
      </trkpt>
      <trkpt lat="43.38895" lon="6.09419">
        <ele>344.79998779297</ele>
        <time>2013-03-16T13:35:25Z</time>
      </trkpt>
      <trkpt lat="43.38894" lon="6.09419">
        <ele>345.20001220703</ele>
        <time>2013-03-16T13:35:26Z</time>
      </trkpt>
      <trkpt lat="43.38891" lon="6.09419">
        <ele>346</ele>
        <time>2013-03-16T13:35:28Z</time>
      </trkpt>
      <trkpt lat="43.3889" lon="6.09419">
        <ele>346.39999389648</ele>
        <time>2013-03-16T13:35:29Z</time>
      </trkpt>
      <trkpt lat="43.3889" lon="6.09419">
        <ele>346.39999389648</ele>
        <time>2013-03-16T13:35:32Z</time>
      </trkpt>
      <trkpt lat="43.38888" lon="6.09421">
        <ele>346.39999389648</ele>
        <time>2013-03-16T13:35:38Z</time>
      </trkpt>
      <trkpt lat="43.38888" lon="6.09421">
        <ele>346.39999389648</ele>
        <time>2013-03-16T13:35:48Z</time>
      </trkpt>
      <trkpt lat="43.38888" lon="6.09422">
        <ele>346.39999389648</ele>
        <time>2013-03-16T13:35:58Z</time>
      </trkpt>
      <trkpt lat="43.38888" lon="6.09422">
        <ele>346.39999389648</ele>
        <time>2013-03-16T13:36:06Z</time>
      </trkpt>
      <trkpt lat="43.38887" lon="6.09425">
        <ele>346.79998779297</ele>
        <time>2013-03-16T13:36:10Z</time>
      </trkpt>
      <trkpt lat="43.38886" lon="6.09426">
        <ele>347.60000610352</ele>
        <time>2013-03-16T13:36:12Z</time>
      </trkpt>
      <trkpt lat="43.38885" lon="6.09428">
        <ele>348.39999389648</ele>
        <time>2013-03-16T13:36:14Z</time>
      </trkpt>
      <trkpt lat="43.38884" lon="6.0943">
        <ele>348.39999389648</ele>
        <time>2013-03-16T13:36:17Z</time>
      </trkpt>
      <trkpt lat="43.38884" lon="6.09431">
        <ele>348.39999389648</ele>
        <time>2013-03-16T13:36:23Z</time>
      </trkpt>
      <trkpt lat="43.38884" lon="6.09431">
        <ele>348.39999389648</ele>
        <time>2013-03-16T13:36:30Z</time>
      </trkpt>
      <trkpt lat="43.38884" lon="6.09431">
        <ele>348.39999389648</ele>
        <time>2013-03-16T13:36:36Z</time>
      </trkpt>
      <trkpt lat="43.38882" lon="6.09431">
        <ele>348.39999389648</ele>
        <time>2013-03-16T13:36:39Z</time>
      </trkpt>
      <trkpt lat="43.38881" lon="6.09432">
        <ele>348.39999389648</ele>
        <time>2013-03-16T13:36:41Z</time>
      </trkpt>
      <trkpt lat="43.38879" lon="6.09432">
        <ele>348.39999389648</ele>
        <time>2013-03-16T13:36:42Z</time>
      </trkpt>
      <trkpt lat="43.38878" lon="6.09434">
        <ele>348.39999389648</ele>
        <time>2013-03-16T13:36:43Z</time>
      </trkpt>
      <trkpt lat="43.38877" lon="6.09436">
        <ele>348.39999389648</ele>
        <time>2013-03-16T13:36:45Z</time>
      </trkpt>
      <trkpt lat="43.38876" lon="6.09436">
        <ele>348.39999389648</ele>
        <time>2013-03-16T13:36:51Z</time>
      </trkpt>
      <trkpt lat="43.38876" lon="6.09436">
        <ele>348.39999389648</ele>
        <time>2013-03-16T13:37:01Z</time>
      </trkpt>
      <trkpt lat="43.38876" lon="6.09436">
        <ele>348.39999389648</ele>
        <time>2013-03-16T13:37:10Z</time>
      </trkpt>
      <trkpt lat="43.38877" lon="6.09437">
        <ele>348.39999389648</ele>
        <time>2013-03-16T13:37:13Z</time>
      </trkpt>
      <trkpt lat="43.38877" lon="6.09437">
        <ele>348.39999389648</ele>
        <time>2013-03-16T13:37:18Z</time>
      </trkpt>
      <trkpt lat="43.38877" lon="6.09437">
        <ele>348.39999389648</ele>
        <time>2013-03-16T13:37:19Z</time>
      </trkpt>
      <trkpt lat="43.38878" lon="6.09435">
        <ele>348.39999389648</ele>
        <time>2013-03-16T13:37:20Z</time>
      </trkpt>
      <trkpt lat="43.38877" lon="6.0943">
        <ele>348.39999389648</ele>
        <time>2013-03-16T13:37:23Z</time>
      </trkpt>
      <trkpt lat="43.38868" lon="6.09428">
        <ele>348.39999389648</ele>
        <time>2013-03-16T13:37:27Z</time>
      </trkpt>
      <trkpt lat="43.38865" lon="6.09422">
        <ele>348</ele>
        <time>2013-03-16T13:37:29Z</time>
      </trkpt>
      <trkpt lat="43.38859" lon="6.09413">
        <ele>346.79998779297</ele>
        <time>2013-03-16T13:37:32Z</time>
      </trkpt>
      <trkpt lat="43.38857" lon="6.0941">
        <ele>346.39999389648</ele>
        <time>2013-03-16T13:37:33Z</time>
      </trkpt>
      <trkpt lat="43.38856" lon="6.09408">
        <ele>345.79998779297</ele>
        <time>2013-03-16T13:37:34Z</time>
      </trkpt>
      <trkpt lat="43.38855" lon="6.09405">
        <ele>345.39999389648</ele>
        <time>2013-03-16T13:37:35Z</time>
      </trkpt>
      <trkpt lat="43.38852" lon="6.09402">
        <ele>343.79998779297</ele>
        <time>2013-03-16T13:37:37Z</time>
      </trkpt>
      <trkpt lat="43.3885" lon="6.09397">
        <ele>343.39999389648</ele>
        <time>2013-03-16T13:37:39Z</time>
      </trkpt>
      <trkpt lat="43.38848" lon="6.09394">
        <ele>343</ele>
        <time>2013-03-16T13:37:40Z</time>
      </trkpt>
      <trkpt lat="43.38847" lon="6.09392">
        <ele>342.60000610352</ele>
        <time>2013-03-16T13:37:41Z</time>
      </trkpt>
      <trkpt lat="43.38845" lon="6.0939">
        <ele>342.20001220703</ele>
        <time>2013-03-16T13:37:42Z</time>
      </trkpt>
      <trkpt lat="43.38844" lon="6.09389">
        <ele>341</ele>
        <time>2013-03-16T13:37:45Z</time>
      </trkpt>
      <trkpt lat="43.38839" lon="6.09406">
        <ele>338.39999389648</ele>
        <time>2013-03-16T13:37:51Z</time>
      </trkpt>
      <trkpt lat="43.38839" lon="6.0941">
        <ele>337.60000610352</ele>
        <time>2013-03-16T13:37:53Z</time>
      </trkpt>
      <trkpt lat="43.38838" lon="6.09415">
        <ele>337.60000610352</ele>
        <time>2013-03-16T13:37:55Z</time>
      </trkpt>
      <trkpt lat="43.38837" lon="6.09418">
        <ele>337.60000610352</ele>
        <time>2013-03-16T13:37:58Z</time>
      </trkpt>
      <trkpt lat="43.38836" lon="6.0942">
        <ele>336.79998779297</ele>
        <time>2013-03-16T13:38:00Z</time>
      </trkpt>
      <trkpt lat="43.38836" lon="6.09422">
        <ele>336.39999389648</ele>
        <time>2013-03-16T13:38:01Z</time>
      </trkpt>
      <trkpt lat="43.38836" lon="6.09422">
        <ele>335.60000610352</ele>
        <time>2013-03-16T13:38:02Z</time>
      </trkpt>
      <trkpt lat="43.38836" lon="6.09422">
        <ele>335.60000610352</ele>
        <time>2013-03-16T13:38:04Z</time>
      </trkpt>
      <trkpt lat="43.38833" lon="6.09423">
        <ele>335.60000610352</ele>
        <time>2013-03-16T13:38:07Z</time>
      </trkpt>
      <trkpt lat="43.38832" lon="6.09422">
        <ele>335.20001220703</ele>
        <time>2013-03-16T13:38:08Z</time>
      </trkpt>
      <trkpt lat="43.38828" lon="6.09419">
        <ele>333.79998779297</ele>
        <time>2013-03-16T13:38:11Z</time>
      </trkpt>
      <trkpt lat="43.38826" lon="6.09416">
        <ele>333.39999389648</ele>
        <time>2013-03-16T13:38:12Z</time>
      </trkpt>
      <trkpt lat="43.38824" lon="6.09412">
        <ele>333.39999389648</ele>
        <time>2013-03-16T13:38:13Z</time>
      </trkpt>
      <trkpt lat="43.3882" lon="6.09408">
        <ele>333</ele>
        <time>2013-03-16T13:38:14Z</time>
      </trkpt>
      <trkpt lat="43.38817" lon="6.09403">
        <ele>332.60000610352</ele>
        <time>2013-03-16T13:38:15Z</time>
      </trkpt>
      <trkpt lat="43.38812" lon="6.09393">
        <ele>331.60000610352</ele>
        <time>2013-03-16T13:38:17Z</time>
      </trkpt>
      <trkpt lat="43.38808" lon="6.09387">
        <ele>331</ele>
        <time>2013-03-16T13:38:18Z</time>
      </trkpt>
      <trkpt lat="43.38805" lon="6.09382">
        <ele>330.39999389648</ele>
        <time>2013-03-16T13:38:19Z</time>
      </trkpt>
      <trkpt lat="43.38801" lon="6.09377">
        <ele>329.79998779297</ele>
        <time>2013-03-16T13:38:20Z</time>
      </trkpt>
      <trkpt lat="43.38797" lon="6.09373">
        <ele>329.20001220703</ele>
        <time>2013-03-16T13:38:21Z</time>
      </trkpt>
      <trkpt lat="43.38793" lon="6.0937">
        <ele>328.60000610352</ele>
        <time>2013-03-16T13:38:22Z</time>
      </trkpt>
      <trkpt lat="43.38789" lon="6.09367">
        <ele>328</ele>
        <time>2013-03-16T13:38:23Z</time>
      </trkpt>
      <trkpt lat="43.38786" lon="6.09363">
        <ele>327.20001220703</ele>
        <time>2013-03-16T13:38:24Z</time>
      </trkpt>
      <trkpt lat="43.38775" lon="6.09353">
        <ele>324.39999389648</ele>
        <time>2013-03-16T13:38:27Z</time>
      </trkpt>
      <trkpt lat="43.3877" lon="6.09351">
        <ele>323.79998779297</ele>
        <time>2013-03-16T13:38:28Z</time>
      </trkpt>
      <trkpt lat="43.38765" lon="6.09349">
        <ele>323</ele>
        <time>2013-03-16T13:38:29Z</time>
      </trkpt>
      <trkpt lat="43.3876" lon="6.09346">
        <ele>322.20001220703</ele>
        <time>2013-03-16T13:38:30Z</time>
      </trkpt>
      <trkpt lat="43.38756" lon="6.09344">
        <ele>321.20001220703</ele>
        <time>2013-03-16T13:38:31Z</time>
      </trkpt>
      <trkpt lat="43.38752" lon="6.09343">
        <ele>320.20001220703</ele>
        <time>2013-03-16T13:38:32Z</time>
      </trkpt>
      <trkpt lat="43.38748" lon="6.09341">
        <ele>319.20001220703</ele>
        <time>2013-03-16T13:38:33Z</time>
      </trkpt>
      <trkpt lat="43.38738" lon="6.0934">
        <ele>317.20001220703</ele>
        <time>2013-03-16T13:38:35Z</time>
      </trkpt>
      <trkpt lat="43.38733" lon="6.09339">
        <ele>316.20001220703</ele>
        <time>2013-03-16T13:38:36Z</time>
      </trkpt>
      <trkpt lat="43.38728" lon="6.09337">
        <ele>315.20001220703</ele>
        <time>2013-03-16T13:38:37Z</time>
      </trkpt>
      <trkpt lat="43.38722" lon="6.09333">
        <ele>314.20001220703</ele>
        <time>2013-03-16T13:38:38Z</time>
      </trkpt>
      <trkpt lat="43.38716" lon="6.09328">
        <ele>313.20001220703</ele>
        <time>2013-03-16T13:38:39Z</time>
      </trkpt>
      <trkpt lat="43.38708" lon="6.09323">
        <ele>312.20001220703</ele>
        <time>2013-03-16T13:38:40Z</time>
      </trkpt>
      <trkpt lat="43.38701" lon="6.09317">
        <ele>311.20001220703</ele>
        <time>2013-03-16T13:38:41Z</time>
      </trkpt>
      <trkpt lat="43.38695" lon="6.09311">
        <ele>310.20001220703</ele>
        <time>2013-03-16T13:38:42Z</time>
      </trkpt>
      <trkpt lat="43.38689" lon="6.09306">
        <ele>309.20001220703</ele>
        <time>2013-03-16T13:38:43Z</time>
      </trkpt>
      <trkpt lat="43.38685" lon="6.09301">
        <ele>308</ele>
        <time>2013-03-16T13:38:44Z</time>
      </trkpt>
      <trkpt lat="43.38681" lon="6.09299">
        <ele>307</ele>
        <time>2013-03-16T13:38:45Z</time>
      </trkpt>
      <trkpt lat="43.38679" lon="6.093">
        <ele>305.79998779297</ele>
        <time>2013-03-16T13:38:46Z</time>
      </trkpt>
      <trkpt lat="43.38678" lon="6.09302">
        <ele>304.39999389648</ele>
        <time>2013-03-16T13:38:47Z</time>
      </trkpt>
      <trkpt lat="43.38676" lon="6.09305">
        <ele>303.20001220703</ele>
        <time>2013-03-16T13:38:48Z</time>
      </trkpt>
      <trkpt lat="43.38675" lon="6.09307">
        <ele>302.20001220703</ele>
        <time>2013-03-16T13:38:49Z</time>
      </trkpt>
      <trkpt lat="43.38675" lon="6.09308">
        <ele>300.20001220703</ele>
        <time>2013-03-16T13:38:50Z</time>
      </trkpt>
      <trkpt lat="43.38675" lon="6.09308">
        <ele>299.20001220703</ele>
        <time>2013-03-16T13:38:51Z</time>
      </trkpt>
      <trkpt lat="43.38675" lon="6.09308">
        <ele>298.20001220703</ele>
        <time>2013-03-16T13:39:04Z</time>
      </trkpt>
      <trkpt lat="43.38673" lon="6.09312">
        <ele>298.20001220703</ele>
        <time>2013-03-16T13:39:10Z</time>
      </trkpt>
      <trkpt lat="43.38673" lon="6.09314">
        <ele>298.20001220703</ele>
        <time>2013-03-16T13:39:11Z</time>
      </trkpt>
      <trkpt lat="43.38673" lon="6.09321">
        <ele>298.20001220703</ele>
        <time>2013-03-16T13:39:15Z</time>
      </trkpt>
      <trkpt lat="43.38673" lon="6.09324">
        <ele>298.20001220703</ele>
        <time>2013-03-16T13:39:16Z</time>
      </trkpt>
      <trkpt lat="43.38673" lon="6.09326">
        <ele>298.20001220703</ele>
        <time>2013-03-16T13:39:17Z</time>
      </trkpt>
      <trkpt lat="43.38674" lon="6.09344">
        <ele>298.20001220703</ele>
        <time>2013-03-16T13:39:23Z</time>
      </trkpt>
      <trkpt lat="43.38676" lon="6.09355">
        <ele>298.20001220703</ele>
        <time>2013-03-16T13:39:26Z</time>
      </trkpt>
      <trkpt lat="43.38677" lon="6.09361">
        <ele>298.20001220703</ele>
        <time>2013-03-16T13:39:28Z</time>
      </trkpt>
      <trkpt lat="43.3868" lon="6.09382">
        <ele>297.79998779297</ele>
        <time>2013-03-16T13:39:33Z</time>
      </trkpt>
      <trkpt lat="43.3868" lon="6.09386">
        <ele>297.39999389648</ele>
        <time>2013-03-16T13:39:34Z</time>
      </trkpt>
      <trkpt lat="43.3868" lon="6.09392">
        <ele>297</ele>
        <time>2013-03-16T13:39:35Z</time>
      </trkpt>
      <trkpt lat="43.3868" lon="6.09403">
        <ele>296.20001220703</ele>
        <time>2013-03-16T13:39:37Z</time>
      </trkpt>
      <trkpt lat="43.3868" lon="6.09415">
        <ele>295.79998779297</ele>
        <time>2013-03-16T13:39:39Z</time>
      </trkpt>
      <trkpt lat="43.3868" lon="6.09419">
        <ele>295.20001220703</ele>
        <time>2013-03-16T13:39:40Z</time>
      </trkpt>
      <trkpt lat="43.3868" lon="6.09427">
        <ele>294.39999389648</ele>
        <time>2013-03-16T13:39:42Z</time>
      </trkpt>
      <trkpt lat="43.38681" lon="6.09447">
        <ele>294</ele>
        <time>2013-03-16T13:39:48Z</time>
      </trkpt>
      <trkpt lat="43.38682" lon="6.09468">
        <ele>294</ele>
        <time>2013-03-16T13:39:53Z</time>
      </trkpt>
      <trkpt lat="43.38678" lon="6.09492">
        <ele>294</ele>
        <time>2013-03-16T13:39:58Z</time>
      </trkpt>
      <trkpt lat="43.38675" lon="6.09504">
        <ele>294</ele>
        <time>2013-03-16T13:40:02Z</time>
      </trkpt>
      <trkpt lat="43.38672" lon="6.09523">
        <ele>294</ele>
        <time>2013-03-16T13:40:07Z</time>
      </trkpt>
      <trkpt lat="43.38672" lon="6.09537">
        <ele>294</ele>
        <time>2013-03-16T13:40:13Z</time>
      </trkpt>
      <trkpt lat="43.38673" lon="6.0954">
        <ele>294</ele>
        <time>2013-03-16T13:40:14Z</time>
      </trkpt>
      <trkpt lat="43.38674" lon="6.09551">
        <ele>294</ele>
        <time>2013-03-16T13:40:18Z</time>
      </trkpt>
      <trkpt lat="43.38675" lon="6.09569">
        <ele>294</ele>
        <time>2013-03-16T13:40:24Z</time>
      </trkpt>
      <trkpt lat="43.38673" lon="6.09585">
        <ele>294</ele>
        <time>2013-03-16T13:40:29Z</time>
      </trkpt>
      <trkpt lat="43.38671" lon="6.09611">
        <ele>294</ele>
        <time>2013-03-16T13:40:36Z</time>
      </trkpt>
      <trkpt lat="43.38665" lon="6.09638">
        <ele>294</ele>
        <time>2013-03-16T13:40:42Z</time>
      </trkpt>
      <trkpt lat="43.38662" lon="6.09653">
        <ele>294</ele>
        <time>2013-03-16T13:40:45Z</time>
      </trkpt>
      <trkpt lat="43.38655" lon="6.09665">
        <ele>294</ele>
        <time>2013-03-16T13:40:47Z</time>
      </trkpt>
      <trkpt lat="43.38641" lon="6.09691">
        <ele>293.39999389648</ele>
        <time>2013-03-16T13:40:51Z</time>
      </trkpt>
      <trkpt lat="43.38634" lon="6.09704">
        <ele>291.79998779297</ele>
        <time>2013-03-16T13:40:53Z</time>
      </trkpt>
      <trkpt lat="43.3863" lon="6.0971">
        <ele>291.20001220703</ele>
        <time>2013-03-16T13:40:54Z</time>
      </trkpt>
      <trkpt lat="43.38627" lon="6.09716">
        <ele>290.60000610352</ele>
        <time>2013-03-16T13:40:55Z</time>
      </trkpt>
      <trkpt lat="43.38624" lon="6.09721">
        <ele>289.79998779297</ele>
        <time>2013-03-16T13:40:56Z</time>
      </trkpt>
      <trkpt lat="43.38622" lon="6.09726">
        <ele>289.20001220703</ele>
        <time>2013-03-16T13:40:57Z</time>
      </trkpt>
      <trkpt lat="43.38611" lon="6.09752">
        <ele>289.20001220703</ele>
        <time>2013-03-16T13:41:02Z</time>
      </trkpt>
      <trkpt lat="43.38603" lon="6.09769">
        <ele>289.20001220703</ele>
        <time>2013-03-16T13:41:05Z</time>
      </trkpt>
      <trkpt lat="43.38599" lon="6.09781">
        <ele>289.20001220703</ele>
        <time>2013-03-16T13:41:07Z</time>
      </trkpt>
      <trkpt lat="43.38596" lon="6.09808">
        <ele>289.20001220703</ele>
        <time>2013-03-16T13:41:12Z</time>
      </trkpt>
      <trkpt lat="43.38596" lon="6.09823">
        <ele>289.20001220703</ele>
        <time>2013-03-16T13:41:16Z</time>
      </trkpt>
      <trkpt lat="43.38596" lon="6.09835">
        <ele>289.20001220703</ele>
        <time>2013-03-16T13:41:20Z</time>
      </trkpt>
      <trkpt lat="43.38595" lon="6.09844">
        <ele>289.20001220703</ele>
        <time>2013-03-16T13:41:23Z</time>
      </trkpt>
      <trkpt lat="43.38596" lon="6.09853">
        <ele>289.20001220703</ele>
        <time>2013-03-16T13:41:26Z</time>
      </trkpt>
      <trkpt lat="43.38597" lon="6.09889">
        <ele>291.79998779297</ele>
        <time>2013-03-16T13:41:39Z</time>
      </trkpt>
      <trkpt lat="43.38597" lon="6.09897">
        <ele>293</ele>
        <time>2013-03-16T13:41:42Z</time>
      </trkpt>
      <trkpt lat="43.38599" lon="6.0991">
        <ele>293.39999389648</ele>
        <time>2013-03-16T13:41:47Z</time>
      </trkpt>
      <trkpt lat="43.38604" lon="6.09924">
        <ele>293.79998779297</ele>
        <time>2013-03-16T13:41:53Z</time>
      </trkpt>
      <trkpt lat="43.38608" lon="6.09932">
        <ele>295.60000610352</ele>
        <time>2013-03-16T13:41:57Z</time>
      </trkpt>
      <trkpt lat="43.38625" lon="6.09951">
        <ele>295.60000610352</ele>
        <time>2013-03-16T13:42:07Z</time>
      </trkpt>
      <trkpt lat="43.38636" lon="6.09962">
        <ele>296.79998779297</ele>
        <time>2013-03-16T13:42:13Z</time>
      </trkpt>
      <trkpt lat="43.38649" lon="6.09973">
        <ele>297.60000610352</ele>
        <time>2013-03-16T13:42:20Z</time>
      </trkpt>
      <trkpt lat="43.38666" lon="6.09986">
        <ele>299.60000610352</ele>
        <time>2013-03-16T13:42:28Z</time>
      </trkpt>
      <trkpt lat="43.38679" lon="6.09996">
        <ele>299.60000610352</ele>
        <time>2013-03-16T13:42:34Z</time>
      </trkpt>
      <trkpt lat="43.38697" lon="6.10014">
        <ele>299.60000610352</ele>
        <time>2013-03-16T13:42:44Z</time>
      </trkpt>
      <trkpt lat="43.387" lon="6.10018">
        <ele>299.60000610352</ele>
        <time>2013-03-16T13:42:46Z</time>
      </trkpt>
      <trkpt lat="43.38718" lon="6.10055">
        <ele>301.60000610352</ele>
        <time>2013-03-16T13:43:00Z</time>
      </trkpt>
      <trkpt lat="43.38726" lon="6.10071">
        <ele>301.60000610352</ele>
        <time>2013-03-16T13:43:06Z</time>
      </trkpt>
      <trkpt lat="43.38737" lon="6.10091">
        <ele>301.60000610352</ele>
        <time>2013-03-16T13:43:14Z</time>
      </trkpt>
      <trkpt lat="43.38747" lon="6.10111">
        <ele>301.60000610352</ele>
        <time>2013-03-16T13:43:22Z</time>
      </trkpt>
      <trkpt lat="43.38758" lon="6.10124">
        <ele>303.79998779297</ele>
        <time>2013-03-16T13:43:29Z</time>
      </trkpt>
      <trkpt lat="43.38764" lon="6.10131">
        <ele>303.79998779297</ele>
        <time>2013-03-16T13:43:34Z</time>
      </trkpt>
      <trkpt lat="43.38771" lon="6.10141">
        <ele>305</ele>
        <time>2013-03-16T13:43:39Z</time>
      </trkpt>
      <trkpt lat="43.38772" lon="6.10143">
        <ele>305.39999389648</ele>
        <time>2013-03-16T13:43:40Z</time>
      </trkpt>
      <trkpt lat="43.38774" lon="6.10145">
        <ele>305.79998779297</ele>
        <time>2013-03-16T13:43:41Z</time>
      </trkpt>
      <trkpt lat="43.38777" lon="6.10149">
        <ele>305.79998779297</ele>
        <time>2013-03-16T13:43:43Z</time>
      </trkpt>
      <trkpt lat="43.38784" lon="6.10156">
        <ele>306.20001220703</ele>
        <time>2013-03-16T13:43:47Z</time>
      </trkpt>
      <trkpt lat="43.38787" lon="6.10159">
        <ele>307.20001220703</ele>
        <time>2013-03-16T13:43:49Z</time>
      </trkpt>
      <trkpt lat="43.38791" lon="6.10161">
        <ele>308.20001220703</ele>
        <time>2013-03-16T13:43:51Z</time>
      </trkpt>
      <trkpt lat="43.38797" lon="6.10168">
        <ele>308.20001220703</ele>
        <time>2013-03-16T13:43:57Z</time>
      </trkpt>
      <trkpt lat="43.38798" lon="6.10169">
        <ele>308.20001220703</ele>
        <time>2013-03-16T13:44:03Z</time>
      </trkpt>
      <trkpt lat="43.38803" lon="6.10173">
        <ele>308.20001220703</ele>
        <time>2013-03-16T13:44:08Z</time>
      </trkpt>
      <trkpt lat="43.38811" lon="6.1017">
        <ele>308.20001220703</ele>
        <time>2013-03-16T13:44:12Z</time>
      </trkpt>
      <trkpt lat="43.38813" lon="6.1017">
        <ele>308.20001220703</ele>
        <time>2013-03-16T13:44:13Z</time>
      </trkpt>
      <trkpt lat="43.38818" lon="6.10168">
        <ele>308.60000610352</ele>
        <time>2013-03-16T13:44:15Z</time>
      </trkpt>
      <trkpt lat="43.38823" lon="6.10167">
        <ele>309.39999389648</ele>
        <time>2013-03-16T13:44:17Z</time>
      </trkpt>
      <trkpt lat="43.38828" lon="6.10171">
        <ele>310.20001220703</ele>
        <time>2013-03-16T13:44:19Z</time>
      </trkpt>
      <trkpt lat="43.38828" lon="6.10184">
        <ele>310.20001220703</ele>
        <time>2013-03-16T13:44:22Z</time>
      </trkpt>
      <trkpt lat="43.38826" lon="6.1019">
        <ele>310.20001220703</ele>
        <time>2013-03-16T13:44:24Z</time>
      </trkpt>
      <trkpt lat="43.38823" lon="6.10195">
        <ele>310.20001220703</ele>
        <time>2013-03-16T13:44:26Z</time>
      </trkpt>
      <trkpt lat="43.38821" lon="6.10213">
        <ele>310.20001220703</ele>
        <time>2013-03-16T13:44:31Z</time>
      </trkpt>
      <trkpt lat="43.38821" lon="6.1022">
        <ele>310.60000610352</ele>
        <time>2013-03-16T13:44:33Z</time>
      </trkpt>
      <trkpt lat="43.38821" lon="6.10224">
        <ele>311.20001220703</ele>
        <time>2013-03-16T13:44:34Z</time>
      </trkpt>
      <trkpt lat="43.38822" lon="6.10227">
        <ele>312</ele>
        <time>2013-03-16T13:44:35Z</time>
      </trkpt>
      <trkpt lat="43.38825" lon="6.10233">
        <ele>312.60000610352</ele>
        <time>2013-03-16T13:44:37Z</time>
      </trkpt>
      <trkpt lat="43.38829" lon="6.10245">
        <ele>312.60000610352</ele>
        <time>2013-03-16T13:44:41Z</time>
      </trkpt>
      <trkpt lat="43.38833" lon="6.10255">
        <ele>312.60000610352</ele>
        <time>2013-03-16T13:44:44Z</time>
      </trkpt>
      <trkpt lat="43.38834" lon="6.10274">
        <ele>311.60000610352</ele>
        <time>2013-03-16T13:44:47Z</time>
      </trkpt>
      <trkpt lat="43.38835" lon="6.10281">
        <ele>311</ele>
        <time>2013-03-16T13:44:48Z</time>
      </trkpt>
      <trkpt lat="43.38834" lon="6.10287">
        <ele>310.60000610352</ele>
        <time>2013-03-16T13:44:49Z</time>
      </trkpt>
      <trkpt lat="43.38835" lon="6.10293">
        <ele>310.20001220703</ele>
        <time>2013-03-16T13:44:50Z</time>
      </trkpt>
      <trkpt lat="43.38835" lon="6.10305">
        <ele>310.20001220703</ele>
        <time>2013-03-16T13:44:52Z</time>
      </trkpt>
      <trkpt lat="43.38834" lon="6.10332">
        <ele>310.20001220703</ele>
        <time>2013-03-16T13:44:58Z</time>
      </trkpt>
      <trkpt lat="43.38835" lon="6.10339">
        <ele>308.79998779297</ele>
        <time>2013-03-16T13:45:00Z</time>
      </trkpt>
      <trkpt lat="43.38834" lon="6.10349">
        <ele>308</ele>
        <time>2013-03-16T13:45:02Z</time>
      </trkpt>
      <trkpt lat="43.38834" lon="6.1036">
        <ele>308</ele>
        <time>2013-03-16T13:45:04Z</time>
      </trkpt>
      <trkpt lat="43.38835" lon="6.10394">
        <ele>308</ele>
        <time>2013-03-16T13:45:09Z</time>
      </trkpt>
      <trkpt lat="43.38835" lon="6.10406">
        <ele>308</ele>
        <time>2013-03-16T13:45:11Z</time>
      </trkpt>
      <trkpt lat="43.38834" lon="6.10412">
        <ele>307.60000610352</ele>
        <time>2013-03-16T13:45:12Z</time>
      </trkpt>
      <trkpt lat="43.38832" lon="6.10423">
        <ele>306.79998779297</ele>
        <time>2013-03-16T13:45:14Z</time>
      </trkpt>
      <trkpt lat="43.38829" lon="6.10444">
        <ele>305.79998779297</ele>
        <time>2013-03-16T13:45:18Z</time>
      </trkpt>
      <trkpt lat="43.38829" lon="6.10456">
        <ele>305.79998779297</ele>
        <time>2013-03-16T13:45:20Z</time>
      </trkpt>
      <trkpt lat="43.38828" lon="6.10477">
        <ele>304.60000610352</ele>
        <time>2013-03-16T13:45:24Z</time>
      </trkpt>
      <trkpt lat="43.38825" lon="6.10487">
        <ele>303.60000610352</ele>
        <time>2013-03-16T13:45:26Z</time>
      </trkpt>
      <trkpt lat="43.38821" lon="6.10506">
        <ele>303.60000610352</ele>
        <time>2013-03-16T13:45:30Z</time>
      </trkpt>
      <trkpt lat="43.38815" lon="6.10526">
        <ele>302.39999389648</ele>
        <time>2013-03-16T13:45:34Z</time>
      </trkpt>
      <trkpt lat="43.38812" lon="6.10554">
        <ele>301.20001220703</ele>
        <time>2013-03-16T13:45:40Z</time>
      </trkpt>
      <trkpt lat="43.3881" lon="6.10558">
        <ele>300.79998779297</ele>
        <time>2013-03-16T13:45:41Z</time>
      </trkpt>
      <trkpt lat="43.38808" lon="6.10561">
        <ele>300.39999389648</ele>
        <time>2013-03-16T13:45:42Z</time>
      </trkpt>
      <trkpt lat="43.38808" lon="6.10565">
        <ele>300</ele>
        <time>2013-03-16T13:45:43Z</time>
      </trkpt>
      <trkpt lat="43.38805" lon="6.10593">
        <ele>299.60000610352</ele>
        <time>2013-03-16T13:45:49Z</time>
      </trkpt>
      <trkpt lat="43.388" lon="6.10613">
        <ele>299.60000610352</ele>
        <time>2013-03-16T13:45:53Z</time>
      </trkpt>
      <trkpt lat="43.38798" lon="6.10624">
        <ele>299.60000610352</ele>
        <time>2013-03-16T13:45:55Z</time>
      </trkpt>
      <trkpt lat="43.38795" lon="6.10645">
        <ele>298.39999389648</ele>
        <time>2013-03-16T13:46:00Z</time>
      </trkpt>
      <trkpt lat="43.38794" lon="6.10655">
        <ele>297.60000610352</ele>
        <time>2013-03-16T13:46:02Z</time>
      </trkpt>
      <trkpt lat="43.38789" lon="6.1067">
        <ele>297.60000610352</ele>
        <time>2013-03-16T13:46:06Z</time>
      </trkpt>
      <trkpt lat="43.38786" lon="6.10691">
        <ele>297.60000610352</ele>
        <time>2013-03-16T13:46:10Z</time>
      </trkpt>
      <trkpt lat="43.38781" lon="6.10712">
        <ele>297.20001220703</ele>
        <time>2013-03-16T13:46:14Z</time>
      </trkpt>
      <trkpt lat="43.3878" lon="6.10717">
        <ele>296.79998779297</ele>
        <time>2013-03-16T13:46:15Z</time>
      </trkpt>
      <trkpt lat="43.38779" lon="6.10723">
        <ele>296.39999389648</ele>
        <time>2013-03-16T13:46:16Z</time>
      </trkpt>
      <trkpt lat="43.38778" lon="6.10728">
        <ele>296</ele>
        <time>2013-03-16T13:46:17Z</time>
      </trkpt>
      <trkpt lat="43.38777" lon="6.10733">
        <ele>295.39999389648</ele>
        <time>2013-03-16T13:46:18Z</time>
      </trkpt>
      <trkpt lat="43.38776" lon="6.10746">
        <ele>295.39999389648</ele>
        <time>2013-03-16T13:46:21Z</time>
      </trkpt>
      <trkpt lat="43.38774" lon="6.1075">
        <ele>295.39999389648</ele>
        <time>2013-03-16T13:46:23Z</time>
      </trkpt>
      <trkpt lat="43.38773" lon="6.10751">
        <ele>295</ele>
        <time>2013-03-16T13:46:24Z</time>
      </trkpt>
      <trkpt lat="43.38773" lon="6.10751">
        <ele>294.60000610352</ele>
        <time>2013-03-16T13:46:25Z</time>
      </trkpt>
      <trkpt lat="43.38773" lon="6.10752">
        <ele>294.20001220703</ele>
        <time>2013-03-16T13:46:26Z</time>
      </trkpt>
      <trkpt lat="43.38773" lon="6.10752">
        <ele>293.39999389648</ele>
        <time>2013-03-16T13:46:56Z</time>
      </trkpt>
      <trkpt lat="43.38773" lon="6.10752">
        <ele>293.39999389648</ele>
        <time>2013-03-16T13:47:22Z</time>
      </trkpt>
      <trkpt lat="43.38773" lon="6.10752">
        <ele>293.39999389648</ele>
        <time>2013-03-16T13:47:45Z</time>
      </trkpt>
      <trkpt lat="43.38773" lon="6.10753">
        <ele>293.39999389648</ele>
        <time>2013-03-16T13:47:50Z</time>
      </trkpt>
      <trkpt lat="43.38775" lon="6.10757">
        <ele>293.39999389648</ele>
        <time>2013-03-16T13:47:52Z</time>
      </trkpt>
      <trkpt lat="43.38783" lon="6.10756">
        <ele>293.39999389648</ele>
        <time>2013-03-16T13:47:55Z</time>
      </trkpt>
      <trkpt lat="43.38785" lon="6.10756">
        <ele>293.39999389648</ele>
        <time>2013-03-16T13:47:56Z</time>
      </trkpt>
      <trkpt lat="43.38793" lon="6.10757">
        <ele>293</ele>
        <time>2013-03-16T13:47:58Z</time>
      </trkpt>
      <trkpt lat="43.38797" lon="6.10757">
        <ele>292.60000610352</ele>
        <time>2013-03-16T13:47:59Z</time>
      </trkpt>
      <trkpt lat="43.38802" lon="6.10757">
        <ele>292.20001220703</ele>
        <time>2013-03-16T13:48:00Z</time>
      </trkpt>
      <trkpt lat="43.38807" lon="6.10756">
        <ele>291.79998779297</ele>
        <time>2013-03-16T13:48:01Z</time>
      </trkpt>
      <trkpt lat="43.38813" lon="6.10756">
        <ele>291.39999389648</ele>
        <time>2013-03-16T13:48:02Z</time>
      </trkpt>
      <trkpt lat="43.38828" lon="6.10754">
        <ele>290.79998779297</ele>
        <time>2013-03-16T13:48:05Z</time>
      </trkpt>
      <trkpt lat="43.38833" lon="6.10755">
        <ele>290.39999389648</ele>
        <time>2013-03-16T13:48:06Z</time>
      </trkpt>
      <trkpt lat="43.38837" lon="6.10754">
        <ele>290</ele>
        <time>2013-03-16T13:48:07Z</time>
      </trkpt>
      <trkpt lat="43.38842" lon="6.10754">
        <ele>289.60000610352</ele>
        <time>2013-03-16T13:48:08Z</time>
      </trkpt>
      <trkpt lat="43.38862" lon="6.10756">
        <ele>289.20001220703</ele>
        <time>2013-03-16T13:48:13Z</time>
      </trkpt>
      <trkpt lat="43.38873" lon="6.10755">
        <ele>289.20001220703</ele>
        <time>2013-03-16T13:48:16Z</time>
      </trkpt>
      <trkpt lat="43.38883" lon="6.10756">
        <ele>289.20001220703</ele>
        <time>2013-03-16T13:48:19Z</time>
      </trkpt>
      <trkpt lat="43.38896" lon="6.10761">
        <ele>289.20001220703</ele>
        <time>2013-03-16T13:48:23Z</time>
      </trkpt>
      <trkpt lat="43.38907" lon="6.10765">
        <ele>289.20001220703</ele>
        <time>2013-03-16T13:48:26Z</time>
      </trkpt>
      <trkpt lat="43.38913" lon="6.1077">
        <ele>288.79998779297</ele>
        <time>2013-03-16T13:48:28Z</time>
      </trkpt>
      <trkpt lat="43.38917" lon="6.10777">
        <ele>288</ele>
        <time>2013-03-16T13:48:30Z</time>
      </trkpt>
      <trkpt lat="43.38929" lon="6.10814">
        <ele>287.20001220703</ele>
        <time>2013-03-16T13:48:39Z</time>
      </trkpt>
      <trkpt lat="43.38943" lon="6.10828">
        <ele>287.20001220703</ele>
        <time>2013-03-16T13:48:44Z</time>
      </trkpt>
      <trkpt lat="43.38962" lon="6.10835">
        <ele>287.20001220703</ele>
        <time>2013-03-16T13:48:50Z</time>
      </trkpt>
      <trkpt lat="43.38979" lon="6.10843">
        <ele>287.20001220703</ele>
        <time>2013-03-16T13:48:56Z</time>
      </trkpt>
      <trkpt lat="43.38994" lon="6.10848">
        <ele>287.20001220703</ele>
        <time>2013-03-16T13:49:01Z</time>
      </trkpt>
      <trkpt lat="43.39007" lon="6.10843">
        <ele>287.20001220703</ele>
        <time>2013-03-16T13:49:05Z</time>
      </trkpt>
      <trkpt lat="43.39021" lon="6.10835">
        <ele>286.79998779297</ele>
        <time>2013-03-16T13:49:09Z</time>
      </trkpt>
      <trkpt lat="43.39034" lon="6.10831">
        <ele>285.39999389648</ele>
        <time>2013-03-16T13:49:12Z</time>
      </trkpt>
      <trkpt lat="43.39038" lon="6.10829">
        <ele>285</ele>
        <time>2013-03-16T13:49:13Z</time>
      </trkpt>
      <trkpt lat="43.39045" lon="6.10828">
        <ele>285</ele>
        <time>2013-03-16T13:49:15Z</time>
      </trkpt>
      <trkpt lat="43.39059" lon="6.10824">
        <ele>285</ele>
        <time>2013-03-16T13:49:19Z</time>
      </trkpt>
      <trkpt lat="43.39074" lon="6.10815">
        <ele>285</ele>
        <time>2013-03-16T13:49:24Z</time>
      </trkpt>
      <trkpt lat="43.39087" lon="6.10801">
        <ele>285</ele>
        <time>2013-03-16T13:49:29Z</time>
      </trkpt>
      <trkpt lat="43.39103" lon="6.10783">
        <ele>285</ele>
        <time>2013-03-16T13:49:34Z</time>
      </trkpt>
      <trkpt lat="43.39133" lon="6.10764">
        <ele>285</ele>
        <time>2013-03-16T13:49:41Z</time>
      </trkpt>
      <trkpt lat="43.39142" lon="6.10759">
        <ele>284.39999389648</ele>
        <time>2013-03-16T13:49:43Z</time>
      </trkpt>
      <trkpt lat="43.39146" lon="6.10756">
        <ele>284</ele>
        <time>2013-03-16T13:49:44Z</time>
      </trkpt>
      <trkpt lat="43.39151" lon="6.10752">
        <ele>283.39999389648</ele>
        <time>2013-03-16T13:49:45Z</time>
      </trkpt>
      <trkpt lat="43.39156" lon="6.10748">
        <ele>283</ele>
        <time>2013-03-16T13:49:46Z</time>
      </trkpt>
      <trkpt lat="43.39161" lon="6.10743">
        <ele>282.39999389648</ele>
        <time>2013-03-16T13:49:47Z</time>
      </trkpt>
      <trkpt lat="43.39164" lon="6.10737">
        <ele>282.39999389648</ele>
        <time>2013-03-16T13:49:48Z</time>
      </trkpt>
      <trkpt lat="43.39172" lon="6.10718">
        <ele>282.39999389648</ele>
        <time>2013-03-16T13:49:51Z</time>
      </trkpt>
      <trkpt lat="43.39175" lon="6.10711">
        <ele>282.39999389648</ele>
        <time>2013-03-16T13:49:52Z</time>
      </trkpt>
      <trkpt lat="43.39179" lon="6.10697">
        <ele>282</ele>
        <time>2013-03-16T13:49:54Z</time>
      </trkpt>
      <trkpt lat="43.39182" lon="6.10694">
        <ele>281.60000610352</ele>
        <time>2013-03-16T13:49:55Z</time>
      </trkpt>
      <trkpt lat="43.39186" lon="6.10694">
        <ele>281.20001220703</ele>
        <time>2013-03-16T13:49:56Z</time>
      </trkpt>
      <trkpt lat="43.39188" lon="6.10695">
        <ele>280.39999389648</ele>
        <time>2013-03-16T13:49:57Z</time>
      </trkpt>
      <trkpt lat="43.39194" lon="6.10699">
        <ele>280.39999389648</ele>
        <time>2013-03-16T13:50:00Z</time>
      </trkpt>
      <trkpt lat="43.39201" lon="6.10709">
        <ele>280.39999389648</ele>
        <time>2013-03-16T13:50:05Z</time>
      </trkpt>
      <trkpt lat="43.39204" lon="6.10712">
        <ele>280.39999389648</ele>
        <time>2013-03-16T13:50:06Z</time>
      </trkpt>
      <trkpt lat="43.39211" lon="6.10724">
        <ele>280.39999389648</ele>
        <time>2013-03-16T13:50:11Z</time>
      </trkpt>
      <trkpt lat="43.39218" lon="6.10737">
        <ele>281</ele>
        <time>2013-03-16T13:50:16Z</time>
      </trkpt>
      <trkpt lat="43.39219" lon="6.10739">
        <ele>281.39999389648</ele>
        <time>2013-03-16T13:50:17Z</time>
      </trkpt>
      <trkpt lat="43.3922" lon="6.10742">
        <ele>281.79998779297</ele>
        <time>2013-03-16T13:50:18Z</time>
      </trkpt>
      <trkpt lat="43.3922" lon="6.10744">
        <ele>282.20001220703</ele>
        <time>2013-03-16T13:50:19Z</time>
      </trkpt>
      <trkpt lat="43.3922" lon="6.1077">
        <ele>282.79998779297</ele>
        <time>2013-03-16T13:50:26Z</time>
      </trkpt>
      <trkpt lat="43.3922" lon="6.10779">
        <ele>282.79998779297</ele>
        <time>2013-03-16T13:50:28Z</time>
      </trkpt>
      <trkpt lat="43.3922" lon="6.10789">
        <ele>282.79998779297</ele>
        <time>2013-03-16T13:50:30Z</time>
      </trkpt>
      <trkpt lat="43.39223" lon="6.1081">
        <ele>282.79998779297</ele>
        <time>2013-03-16T13:50:35Z</time>
      </trkpt>
      <trkpt lat="43.39225" lon="6.10821">
        <ele>282.79998779297</ele>
        <time>2013-03-16T13:50:39Z</time>
      </trkpt>
      <trkpt lat="43.39225" lon="6.10834">
        <ele>282.79998779297</ele>
        <time>2013-03-16T13:50:43Z</time>
      </trkpt>
      <trkpt lat="43.39227" lon="6.10837">
        <ele>282.79998779297</ele>
        <time>2013-03-16T13:50:44Z</time>
      </trkpt>
      <trkpt lat="43.39229" lon="6.1085">
        <ele>282.79998779297</ele>
        <time>2013-03-16T13:50:48Z</time>
      </trkpt>
      <trkpt lat="43.3923" lon="6.1088">
        <ele>284.79998779297</ele>
        <time>2013-03-16T13:50:56Z</time>
      </trkpt>
      <trkpt lat="43.39228" lon="6.10883">
        <ele>284.79998779297</ele>
        <time>2013-03-16T13:50:57Z</time>
      </trkpt>
      <trkpt lat="43.39225" lon="6.10889">
        <ele>284.79998779297</ele>
        <time>2013-03-16T13:50:59Z</time>
      </trkpt>
      <trkpt lat="43.39209" lon="6.10917">
        <ele>284.79998779297</ele>
        <time>2013-03-16T13:51:09Z</time>
      </trkpt>
      <trkpt lat="43.39203" lon="6.10923">
        <ele>284.79998779297</ele>
        <time>2013-03-16T13:51:12Z</time>
      </trkpt>
      <trkpt lat="43.39197" lon="6.10924">
        <ele>284.79998779297</ele>
        <time>2013-03-16T13:51:14Z</time>
      </trkpt>
      <trkpt lat="43.39187" lon="6.10929">
        <ele>284.79998779297</ele>
        <time>2013-03-16T13:51:19Z</time>
      </trkpt>
      <trkpt lat="43.3918" lon="6.10943">
        <ele>284.79998779297</ele>
        <time>2013-03-16T13:51:25Z</time>
      </trkpt>
      <trkpt lat="43.39175" lon="6.10957">
        <ele>284.79998779297</ele>
        <time>2013-03-16T13:51:29Z</time>
      </trkpt>
      <trkpt lat="43.39168" lon="6.10968">
        <ele>284.79998779297</ele>
        <time>2013-03-16T13:51:34Z</time>
      </trkpt>
      <trkpt lat="43.39161" lon="6.10974">
        <ele>285.60000610352</ele>
        <time>2013-03-16T13:51:38Z</time>
      </trkpt>
      <trkpt lat="43.39157" lon="6.1098">
        <ele>286.60000610352</ele>
        <time>2013-03-16T13:51:40Z</time>
      </trkpt>
      <trkpt lat="43.39156" lon="6.10982">
        <ele>287</ele>
        <time>2013-03-16T13:51:41Z</time>
      </trkpt>
      <trkpt lat="43.39153" lon="6.10994">
        <ele>287</ele>
        <time>2013-03-16T13:51:45Z</time>
      </trkpt>
      <trkpt lat="43.39156" lon="6.11017">
        <ele>287</ele>
        <time>2013-03-16T13:51:51Z</time>
      </trkpt>
      <trkpt lat="43.39154" lon="6.11038">
        <ele>287</ele>
        <time>2013-03-16T13:51:57Z</time>
      </trkpt>
      <trkpt lat="43.39148" lon="6.11053">
        <ele>287</ele>
        <time>2013-03-16T13:52:02Z</time>
      </trkpt>
      <trkpt lat="43.39148" lon="6.1107">
        <ele>287</ele>
        <time>2013-03-16T13:52:07Z</time>
      </trkpt>
      <trkpt lat="43.39149" lon="6.11078">
        <ele>287</ele>
        <time>2013-03-16T13:52:10Z</time>
      </trkpt>
      <trkpt lat="43.39148" lon="6.11086">
        <ele>287</ele>
        <time>2013-03-16T13:52:13Z</time>
      </trkpt>
      <trkpt lat="43.39144" lon="6.11103">
        <ele>287.39999389648</ele>
        <time>2013-03-16T13:52:19Z</time>
      </trkpt>
      <trkpt lat="43.39144" lon="6.11107">
        <ele>287.79998779297</ele>
        <time>2013-03-16T13:52:20Z</time>
      </trkpt>
      <trkpt lat="43.39144" lon="6.11116">
        <ele>289</ele>
        <time>2013-03-16T13:52:23Z</time>
      </trkpt>
      <trkpt lat="43.39144" lon="6.11122">
        <ele>289</ele>
        <time>2013-03-16T13:52:25Z</time>
      </trkpt>
      <trkpt lat="43.39143" lon="6.11145">
        <ele>289</ele>
        <time>2013-03-16T13:52:32Z</time>
      </trkpt>
      <trkpt lat="43.39142" lon="6.11155">
        <ele>289</ele>
        <time>2013-03-16T13:52:36Z</time>
      </trkpt>
      <trkpt lat="43.3914" lon="6.1116">
        <ele>289</ele>
        <time>2013-03-16T13:52:39Z</time>
      </trkpt>
      <trkpt lat="43.39138" lon="6.11162">
        <ele>289.39999389648</ele>
        <time>2013-03-16T13:52:40Z</time>
      </trkpt>
      <trkpt lat="43.39137" lon="6.11163">
        <ele>289.79998779297</ele>
        <time>2013-03-16T13:52:41Z</time>
      </trkpt>
      <trkpt lat="43.39133" lon="6.11166">
        <ele>290.60000610352</ele>
        <time>2013-03-16T13:52:43Z</time>
      </trkpt>
      <trkpt lat="43.39132" lon="6.11167">
        <ele>291</ele>
        <time>2013-03-16T13:52:44Z</time>
      </trkpt>
      <trkpt lat="43.39129" lon="6.11167">
        <ele>291</ele>
        <time>2013-03-16T13:52:45Z</time>
      </trkpt>
      <trkpt lat="43.39123" lon="6.1117">
        <ele>291.60000610352</ele>
        <time>2013-03-16T13:52:49Z</time>
      </trkpt>
      <trkpt lat="43.39122" lon="6.1117">
        <ele>292</ele>
        <time>2013-03-16T13:52:50Z</time>
      </trkpt>
      <trkpt lat="43.39122" lon="6.1117">
        <ele>292.39999389648</ele>
        <time>2013-03-16T13:52:51Z</time>
      </trkpt>
      <trkpt lat="43.39122" lon="6.1117">
        <ele>292.79998779297</ele>
        <time>2013-03-16T13:52:52Z</time>
      </trkpt>
      <trkpt lat="43.39122" lon="6.1117">
        <ele>293.20001220703</ele>
        <time>2013-03-16T13:52:55Z</time>
      </trkpt>
      <trkpt lat="43.39121" lon="6.11171">
        <ele>293.20001220703</ele>
        <time>2013-03-16T13:52:58Z</time>
      </trkpt>
      <trkpt lat="43.39117" lon="6.11171">
        <ele>293.20001220703</ele>
        <time>2013-03-16T13:53:04Z</time>
      </trkpt>
      <trkpt lat="43.39116" lon="6.11172">
        <ele>293.20001220703</ele>
        <time>2013-03-16T13:53:07Z</time>
      </trkpt>
      <trkpt lat="43.39116" lon="6.11172">
        <ele>293.20001220703</ele>
        <time>2013-03-16T13:53:10Z</time>
      </trkpt>
      <trkpt lat="43.39116" lon="6.11172">
        <ele>295.39999389648</ele>
        <time>2013-03-16T13:53:25Z</time>
      </trkpt>
      <trkpt lat="43.39116" lon="6.11172">
        <ele>295.39999389648</ele>
        <time>2013-03-16T13:53:49Z</time>
      </trkpt>
      <trkpt lat="43.39116" lon="6.11172">
        <ele>295.39999389648</ele>
        <time>2013-03-16T13:53:57Z</time>
      </trkpt>
      <trkpt lat="43.39116" lon="6.11173">
        <ele>295.39999389648</ele>
        <time>2013-03-16T13:54:00Z</time>
      </trkpt>
      <trkpt lat="43.39116" lon="6.11173">
        <ele>295.39999389648</ele>
        <time>2013-03-16T13:54:05Z</time>
      </trkpt>
      <trkpt lat="43.39115" lon="6.11174">
        <ele>295.39999389648</ele>
        <time>2013-03-16T13:54:08Z</time>
      </trkpt>
      <trkpt lat="43.39113" lon="6.11177">
        <ele>295.39999389648</ele>
        <time>2013-03-16T13:54:13Z</time>
      </trkpt>
      <trkpt lat="43.39113" lon="6.11179">
        <ele>295.39999389648</ele>
        <time>2013-03-16T13:54:14Z</time>
      </trkpt>
      <trkpt lat="43.39113" lon="6.11188">
        <ele>295.39999389648</ele>
        <time>2013-03-16T13:54:19Z</time>
      </trkpt>
      <trkpt lat="43.39113" lon="6.1119">
        <ele>295.39999389648</ele>
        <time>2013-03-16T13:54:20Z</time>
      </trkpt>
      <trkpt lat="43.39112" lon="6.11197">
        <ele>295.39999389648</ele>
        <time>2013-03-16T13:54:24Z</time>
      </trkpt>
      <trkpt lat="43.39109" lon="6.11213">
        <ele>295.39999389648</ele>
        <time>2013-03-16T13:54:32Z</time>
      </trkpt>
      <trkpt lat="43.39108" lon="6.1123">
        <ele>295.39999389648</ele>
        <time>2013-03-16T13:54:39Z</time>
      </trkpt>
      <trkpt lat="43.39105" lon="6.11245">
        <ele>295.39999389648</ele>
        <time>2013-03-16T13:54:45Z</time>
      </trkpt>
      <trkpt lat="43.39104" lon="6.11259">
        <ele>295.39999389648</ele>
        <time>2013-03-16T13:54:49Z</time>
      </trkpt>
      <trkpt lat="43.391" lon="6.11277">
        <ele>295.39999389648</ele>
        <time>2013-03-16T13:54:53Z</time>
      </trkpt>
      <trkpt lat="43.39091" lon="6.11296">
        <ele>295.39999389648</ele>
        <time>2013-03-16T13:54:58Z</time>
      </trkpt>
      <trkpt lat="43.39088" lon="6.113">
        <ele>295.79998779297</ele>
        <time>2013-03-16T13:55:00Z</time>
      </trkpt>
      <trkpt lat="43.39087" lon="6.113">
        <ele>296.20001220703</ele>
        <time>2013-03-16T13:55:01Z</time>
      </trkpt>
      <trkpt lat="43.39085" lon="6.11301">
        <ele>296.79998779297</ele>
        <time>2013-03-16T13:55:02Z</time>
      </trkpt>
      <trkpt lat="43.39083" lon="6.113">
        <ele>297.60000610352</ele>
        <time>2013-03-16T13:55:04Z</time>
      </trkpt>
      <trkpt lat="43.39079" lon="6.11295">
        <ele>297.60000610352</ele>
        <time>2013-03-16T13:55:08Z</time>
      </trkpt>
      <trkpt lat="43.39075" lon="6.11287">
        <ele>297.60000610352</ele>
        <time>2013-03-16T13:55:16Z</time>
      </trkpt>
      <trkpt lat="43.39075" lon="6.11286">
        <ele>297.60000610352</ele>
        <time>2013-03-16T13:55:22Z</time>
      </trkpt>
      <trkpt lat="43.39075" lon="6.11286">
        <ele>297.60000610352</ele>
        <time>2013-03-16T13:55:42Z</time>
      </trkpt>
      <trkpt lat="43.39075" lon="6.11286">
        <ele>297.60000610352</ele>
        <time>2013-03-16T13:56:21Z</time>
      </trkpt>
      <trkpt lat="43.39075" lon="6.11286">
        <ele>297.60000610352</ele>
        <time>2013-03-16T13:56:48Z</time>
      </trkpt>
      <trkpt lat="43.39075" lon="6.11286">
        <ele>297.60000610352</ele>
        <time>2013-03-16T13:56:54Z</time>
      </trkpt>
      <trkpt lat="43.39074" lon="6.11282">
        <ele>297.60000610352</ele>
        <time>2013-03-16T13:57:07Z</time>
      </trkpt>
      <trkpt lat="43.39067" lon="6.11271">
        <ele>297.60000610352</ele>
        <time>2013-03-16T13:57:11Z</time>
      </trkpt>
      <trkpt lat="43.39064" lon="6.11261">
        <ele>298.39999389648</ele>
        <time>2013-03-16T13:57:14Z</time>
      </trkpt>
      <trkpt lat="43.39062" lon="6.11257">
        <ele>298.79998779297</ele>
        <time>2013-03-16T13:57:15Z</time>
      </trkpt>
      <trkpt lat="43.39059" lon="6.11255">
        <ele>299.39999389648</ele>
        <time>2013-03-16T13:57:16Z</time>
      </trkpt>
      <trkpt lat="43.39057" lon="6.11252">
        <ele>299.79998779297</ele>
        <time>2013-03-16T13:57:17Z</time>
      </trkpt>
      <trkpt lat="43.39043" lon="6.11235">
        <ele>299.79998779297</ele>
        <time>2013-03-16T13:57:22Z</time>
      </trkpt>
      <trkpt lat="43.39037" lon="6.11219">
        <ele>299.79998779297</ele>
        <time>2013-03-16T13:57:25Z</time>
      </trkpt>
      <trkpt lat="43.39035" lon="6.11214">
        <ele>299.79998779297</ele>
        <time>2013-03-16T13:57:26Z</time>
      </trkpt>
      <trkpt lat="43.39025" lon="6.112">
        <ele>299.79998779297</ele>
        <time>2013-03-16T13:57:29Z</time>
      </trkpt>
      <trkpt lat="43.39016" lon="6.11192">
        <ele>298.79998779297</ele>
        <time>2013-03-16T13:57:31Z</time>
      </trkpt>
      <trkpt lat="43.39011" lon="6.1119">
        <ele>298.39999389648</ele>
        <time>2013-03-16T13:57:32Z</time>
      </trkpt>
      <trkpt lat="43.39001" lon="6.11187">
        <ele>297.39999389648</ele>
        <time>2013-03-16T13:57:34Z</time>
      </trkpt>
      <trkpt lat="43.38997" lon="6.11187">
        <ele>296.79998779297</ele>
        <time>2013-03-16T13:57:35Z</time>
      </trkpt>
      <trkpt lat="43.38992" lon="6.11188">
        <ele>296.20001220703</ele>
        <time>2013-03-16T13:57:36Z</time>
      </trkpt>
      <trkpt lat="43.38987" lon="6.11188">
        <ele>295.79998779297</ele>
        <time>2013-03-16T13:57:37Z</time>
      </trkpt>
      <trkpt lat="43.38976" lon="6.1119">
        <ele>294.79998779297</ele>
        <time>2013-03-16T13:57:39Z</time>
      </trkpt>
      <trkpt lat="43.38959" lon="6.11191">
        <ele>293.20001220703</ele>
        <time>2013-03-16T13:57:42Z</time>
      </trkpt>
      <trkpt lat="43.38948" lon="6.11193">
        <ele>291.20001220703</ele>
        <time>2013-03-16T13:57:44Z</time>
      </trkpt>
      <trkpt lat="43.38943" lon="6.11192">
        <ele>290.60000610352</ele>
        <time>2013-03-16T13:57:45Z</time>
      </trkpt>
      <trkpt lat="43.38933" lon="6.11187">
        <ele>289.39999389648</ele>
        <time>2013-03-16T13:57:47Z</time>
      </trkpt>
      <trkpt lat="43.38924" lon="6.11185">
        <ele>288.20001220703</ele>
        <time>2013-03-16T13:57:49Z</time>
      </trkpt>
      <trkpt lat="43.38905" lon="6.11179">
        <ele>288.20001220703</ele>
        <time>2013-03-16T13:57:54Z</time>
      </trkpt>
      <trkpt lat="43.38889" lon="6.11177">
        <ele>288.20001220703</ele>
        <time>2013-03-16T13:57:59Z</time>
      </trkpt>
      <trkpt lat="43.38876" lon="6.11176">
        <ele>288.20001220703</ele>
        <time>2013-03-16T13:58:04Z</time>
      </trkpt>
      <trkpt lat="43.38858" lon="6.1117">
        <ele>288.20001220703</ele>
        <time>2013-03-16T13:58:11Z</time>
      </trkpt>
      <trkpt lat="43.38849" lon="6.11169">
        <ele>288.20001220703</ele>
        <time>2013-03-16T13:58:15Z</time>
      </trkpt>
      <trkpt lat="43.38836" lon="6.11163">
        <ele>288.60000610352</ele>
        <time>2013-03-16T13:58:21Z</time>
      </trkpt>
      <trkpt lat="43.38834" lon="6.11162">
        <ele>289</ele>
        <time>2013-03-16T13:58:22Z</time>
      </trkpt>
      <trkpt lat="43.38823" lon="6.11155">
        <ele>290.20001220703</ele>
        <time>2013-03-16T13:58:27Z</time>
      </trkpt>
      <trkpt lat="43.38799" lon="6.11137">
        <ele>290.20001220703</ele>
        <time>2013-03-16T13:58:38Z</time>
      </trkpt>
      <trkpt lat="43.38784" lon="6.11128">
        <ele>290.20001220703</ele>
        <time>2013-03-16T13:58:44Z</time>
      </trkpt>
      <trkpt lat="43.38776" lon="6.11124">
        <ele>290.60000610352</ele>
        <time>2013-03-16T13:58:47Z</time>
      </trkpt>
      <trkpt lat="43.38748" lon="6.11116">
        <ele>292.39999389648</ele>
        <time>2013-03-16T13:58:57Z</time>
      </trkpt>
      <trkpt lat="43.38727" lon="6.11109">
        <ele>292.39999389648</ele>
        <time>2013-03-16T13:59:04Z</time>
      </trkpt>
      <trkpt lat="43.38714" lon="6.11103">
        <ele>292.39999389648</ele>
        <time>2013-03-16T13:59:09Z</time>
      </trkpt>
      <trkpt lat="43.38711" lon="6.11096">
        <ele>292.39999389648</ele>
        <time>2013-03-16T13:59:11Z</time>
      </trkpt>
      <trkpt lat="43.3871" lon="6.11087">
        <ele>292.39999389648</ele>
        <time>2013-03-16T13:59:13Z</time>
      </trkpt>
      <trkpt lat="43.38708" lon="6.11066">
        <ele>292.39999389648</ele>
        <time>2013-03-16T13:59:18Z</time>
      </trkpt>
      <trkpt lat="43.38693" lon="6.11059">
        <ele>292.39999389648</ele>
        <time>2013-03-16T13:59:24Z</time>
      </trkpt>
      <trkpt lat="43.38683" lon="6.11047">
        <ele>292.39999389648</ele>
        <time>2013-03-16T13:59:29Z</time>
      </trkpt>
      <trkpt lat="43.38668" lon="6.11037">
        <ele>294.39999389648</ele>
        <time>2013-03-16T13:59:35Z</time>
      </trkpt>
      <trkpt lat="43.3865" lon="6.11019">
        <ele>295.20001220703</ele>
        <time>2013-03-16T13:59:45Z</time>
      </trkpt>
      <trkpt lat="43.38646" lon="6.11016">
        <ele>296</ele>
        <time>2013-03-16T13:59:47Z</time>
      </trkpt>
      <trkpt lat="43.38643" lon="6.11014">
        <ele>296.60000610352</ele>
        <time>2013-03-16T13:59:49Z</time>
      </trkpt>
      <trkpt lat="43.38626" lon="6.11">
        <ele>297.39999389648</ele>
        <time>2013-03-16T13:59:58Z</time>
      </trkpt>
      <trkpt lat="43.38624" lon="6.10998">
        <ele>297.79998779297</ele>
        <time>2013-03-16T13:59:59Z</time>
      </trkpt>
      <trkpt lat="43.38622" lon="6.10997">
        <ele>298.20001220703</ele>
        <time>2013-03-16T14:00:00Z</time>
      </trkpt>
      <trkpt lat="43.38619" lon="6.10996">
        <ele>298.60000610352</ele>
        <time>2013-03-16T14:00:01Z</time>
      </trkpt>
      <trkpt lat="43.38601" lon="6.10989">
        <ele>298.60000610352</ele>
        <time>2013-03-16T14:00:09Z</time>
      </trkpt>
      <trkpt lat="43.38598" lon="6.10989">
        <ele>298.60000610352</ele>
        <time>2013-03-16T14:00:10Z</time>
      </trkpt>
      <trkpt lat="43.38587" lon="6.1099">
        <ele>298.60000610352</ele>
        <time>2013-03-16T14:00:13Z</time>
      </trkpt>
      <trkpt lat="43.38575" lon="6.1099">
        <ele>298</ele>
        <time>2013-03-16T14:00:16Z</time>
      </trkpt>
      <trkpt lat="43.38566" lon="6.10989">
        <ele>297</ele>
        <time>2013-03-16T14:00:18Z</time>
      </trkpt>
      <trkpt lat="43.38556" lon="6.10985">
        <ele>296.20001220703</ele>
        <time>2013-03-16T14:00:20Z</time>
      </trkpt>
      <trkpt lat="43.38541" lon="6.10977">
        <ele>296.20001220703</ele>
        <time>2013-03-16T14:00:23Z</time>
      </trkpt>
      <trkpt lat="43.38532" lon="6.10973">
        <ele>296.20001220703</ele>
        <time>2013-03-16T14:00:25Z</time>
      </trkpt>
      <trkpt lat="43.38514" lon="6.10967">
        <ele>295.60000610352</ele>
        <time>2013-03-16T14:00:28Z</time>
      </trkpt>
      <trkpt lat="43.38499" lon="6.10964">
        <ele>294.79998779297</ele>
        <time>2013-03-16T14:00:30Z</time>
      </trkpt>
      <trkpt lat="43.38493" lon="6.10961">
        <ele>294.39999389648</ele>
        <time>2013-03-16T14:00:31Z</time>
      </trkpt>
      <trkpt lat="43.38487" lon="6.1096">
        <ele>293.79998779297</ele>
        <time>2013-03-16T14:00:32Z</time>
      </trkpt>
      <trkpt lat="43.38482" lon="6.10959">
        <ele>293.20001220703</ele>
        <time>2013-03-16T14:00:33Z</time>
      </trkpt>
      <trkpt lat="43.38479" lon="6.10959">
        <ele>292.60000610352</ele>
        <time>2013-03-16T14:00:34Z</time>
      </trkpt>
      <trkpt lat="43.38477" lon="6.10959">
        <ele>291.79998779297</ele>
        <time>2013-03-16T14:00:35Z</time>
      </trkpt>
      <trkpt lat="43.3847" lon="6.10957">
        <ele>289.20001220703</ele>
        <time>2013-03-16T14:00:39Z</time>
      </trkpt>
      <trkpt lat="43.38466" lon="6.10958">
        <ele>289.20001220703</ele>
        <time>2013-03-16T14:00:41Z</time>
      </trkpt>
      <trkpt lat="43.38462" lon="6.1096">
        <ele>289.20001220703</ele>
        <time>2013-03-16T14:00:43Z</time>
      </trkpt>
      <trkpt lat="43.38456" lon="6.10958">
        <ele>289.20001220703</ele>
        <time>2013-03-16T14:00:45Z</time>
      </trkpt>
      <trkpt lat="43.38448" lon="6.10957">
        <ele>289.20001220703</ele>
        <time>2013-03-16T14:00:48Z</time>
      </trkpt>
      <trkpt lat="43.3844" lon="6.10955">
        <ele>289.20001220703</ele>
        <time>2013-03-16T14:00:51Z</time>
      </trkpt>
      <trkpt lat="43.38433" lon="6.10954">
        <ele>288.39999389648</ele>
        <time>2013-03-16T14:00:53Z</time>
      </trkpt>
      <trkpt lat="43.3843" lon="6.10953">
        <ele>288</ele>
        <time>2013-03-16T14:00:54Z</time>
      </trkpt>
      <trkpt lat="43.38423" lon="6.10951">
        <ele>287</ele>
        <time>2013-03-16T14:00:56Z</time>
      </trkpt>
      <trkpt lat="43.38395" lon="6.10945">
        <ele>287</ele>
        <time>2013-03-16T14:01:04Z</time>
      </trkpt>
      <trkpt lat="43.38377" lon="6.10939">
        <ele>287</ele>
        <time>2013-03-16T14:01:09Z</time>
      </trkpt>
      <trkpt lat="43.38354" lon="6.10931">
        <ele>287</ele>
        <time>2013-03-16T14:01:16Z</time>
      </trkpt>
      <trkpt lat="43.38337" lon="6.10926">
        <ele>287</ele>
        <time>2013-03-16T14:01:21Z</time>
      </trkpt>
      <trkpt lat="43.38308" lon="6.10918">
        <ele>285</ele>
        <time>2013-03-16T14:01:29Z</time>
      </trkpt>
      <trkpt lat="43.38258" lon="6.10904">
        <ele>285</ele>
        <time>2013-03-16T14:01:44Z</time>
      </trkpt>
      <trkpt lat="43.38237" lon="6.10899">
        <ele>285</ele>
        <time>2013-03-16T14:01:50Z</time>
      </trkpt>
      <trkpt lat="43.3821" lon="6.10889">
        <ele>285</ele>
        <time>2013-03-16T14:01:59Z</time>
      </trkpt>
      <trkpt lat="43.38198" lon="6.1089">
        <ele>285</ele>
        <time>2013-03-16T14:02:03Z</time>
      </trkpt>
      <trkpt lat="43.38196" lon="6.10905">
        <ele>285</ele>
        <time>2013-03-16T14:02:07Z</time>
      </trkpt>
      <trkpt lat="43.3818" lon="6.10981">
        <ele>285</ele>
        <time>2013-03-16T14:02:27Z</time>
      </trkpt>
      <trkpt lat="43.38174" lon="6.11007">
        <ele>285</ele>
        <time>2013-03-16T14:02:34Z</time>
      </trkpt>
      <trkpt lat="43.38172" lon="6.11025">
        <ele>286.39999389648</ele>
        <time>2013-03-16T14:02:39Z</time>
      </trkpt>
      <trkpt lat="43.3817" lon="6.11035">
        <ele>287.39999389648</ele>
        <time>2013-03-16T14:02:42Z</time>
      </trkpt>
      <trkpt lat="43.38165" lon="6.11061">
        <ele>287.39999389648</ele>
        <time>2013-03-16T14:02:49Z</time>
      </trkpt>
      <trkpt lat="43.3816" lon="6.11078">
        <ele>287.39999389648</ele>
        <time>2013-03-16T14:02:54Z</time>
      </trkpt>
      <trkpt lat="43.38159" lon="6.11082">
        <ele>287.39999389648</ele>
        <time>2013-03-16T14:02:55Z</time>
      </trkpt>
      <trkpt lat="43.38152" lon="6.11099">
        <ele>289.39999389648</ele>
        <time>2013-03-16T14:03:00Z</time>
      </trkpt>
      <trkpt lat="43.38146" lon="6.11111">
        <ele>289.39999389648</ele>
        <time>2013-03-16T14:03:04Z</time>
      </trkpt>
      <trkpt lat="43.38132" lon="6.11129">
        <ele>290.60000610352</ele>
        <time>2013-03-16T14:03:11Z</time>
      </trkpt>
      <trkpt lat="43.38128" lon="6.11133">
        <ele>291.39999389648</ele>
        <time>2013-03-16T14:03:13Z</time>
      </trkpt>
      <trkpt lat="43.38121" lon="6.11139">
        <ele>291.39999389648</ele>
        <time>2013-03-16T14:03:16Z</time>
      </trkpt>
      <trkpt lat="43.38112" lon="6.11148">
        <ele>291.39999389648</ele>
        <time>2013-03-16T14:03:20Z</time>
      </trkpt>
      <trkpt lat="43.38095" lon="6.11167">
        <ele>293.60000610352</ele>
        <time>2013-03-16T14:03:30Z</time>
      </trkpt>
      <trkpt lat="43.38092" lon="6.11171">
        <ele>293.60000610352</ele>
        <time>2013-03-16T14:03:32Z</time>
      </trkpt>
      <trkpt lat="43.38081" lon="6.11181">
        <ele>294</ele>
        <time>2013-03-16T14:03:38Z</time>
      </trkpt>
      <trkpt lat="43.38079" lon="6.11182">
        <ele>294.39999389648</ele>
        <time>2013-03-16T14:03:39Z</time>
      </trkpt>
      <trkpt lat="43.38076" lon="6.11187">
        <ele>295.20001220703</ele>
        <time>2013-03-16T14:03:41Z</time>
      </trkpt>
      <trkpt lat="43.38069" lon="6.11194">
        <ele>295.60000610352</ele>
        <time>2013-03-16T14:03:45Z</time>
      </trkpt>
      <trkpt lat="43.38057" lon="6.11207">
        <ele>295.60000610352</ele>
        <time>2013-03-16T14:03:51Z</time>
      </trkpt>
      <trkpt lat="43.38052" lon="6.11214">
        <ele>295.60000610352</ele>
        <time>2013-03-16T14:03:54Z</time>
      </trkpt>
      <trkpt lat="43.38048" lon="6.11224">
        <ele>295.60000610352</ele>
        <time>2013-03-16T14:03:57Z</time>
      </trkpt>
      <trkpt lat="43.38041" lon="6.11238">
        <ele>295.60000610352</ele>
        <time>2013-03-16T14:04:01Z</time>
      </trkpt>
      <trkpt lat="43.38037" lon="6.11246">
        <ele>295.60000610352</ele>
        <time>2013-03-16T14:04:03Z</time>
      </trkpt>
      <trkpt lat="43.38028" lon="6.11268">
        <ele>295.60000610352</ele>
        <time>2013-03-16T14:04:09Z</time>
      </trkpt>
      <trkpt lat="43.38018" lon="6.11287">
        <ele>295.60000610352</ele>
        <time>2013-03-16T14:04:15Z</time>
      </trkpt>
      <trkpt lat="43.38009" lon="6.11308">
        <ele>295.60000610352</ele>
        <time>2013-03-16T14:04:21Z</time>
      </trkpt>
      <trkpt lat="43.38002" lon="6.11324">
        <ele>295.60000610352</ele>
        <time>2013-03-16T14:04:26Z</time>
      </trkpt>
      <trkpt lat="43.37992" lon="6.11342">
        <ele>295.60000610352</ele>
        <time>2013-03-16T14:04:31Z</time>
      </trkpt>
      <trkpt lat="43.37977" lon="6.11367">
        <ele>295.60000610352</ele>
        <time>2013-03-16T14:04:38Z</time>
      </trkpt>
      <trkpt lat="43.37963" lon="6.11384">
        <ele>295.60000610352</ele>
        <time>2013-03-16T14:04:44Z</time>
      </trkpt>
      <trkpt lat="43.37951" lon="6.11396">
        <ele>295.60000610352</ele>
        <time>2013-03-16T14:04:50Z</time>
      </trkpt>
      <trkpt lat="43.37939" lon="6.11414">
        <ele>295.60000610352</ele>
        <time>2013-03-16T14:04:57Z</time>
      </trkpt>
      <trkpt lat="43.37929" lon="6.11426">
        <ele>295.60000610352</ele>
        <time>2013-03-16T14:05:04Z</time>
      </trkpt>
      <trkpt lat="43.37927" lon="6.11429">
        <ele>295.60000610352</ele>
        <time>2013-03-16T14:05:07Z</time>
      </trkpt>
      <trkpt lat="43.37926" lon="6.1143">
        <ele>295.60000610352</ele>
        <time>2013-03-16T14:05:10Z</time>
      </trkpt>
      <trkpt lat="43.37926" lon="6.1143">
        <ele>295.60000610352</ele>
        <time>2013-03-16T14:05:18Z</time>
      </trkpt>
      <trkpt lat="43.37926" lon="6.1143">
        <ele>295.60000610352</ele>
        <time>2013-03-16T14:05:30Z</time>
      </trkpt>
      <trkpt lat="43.37923" lon="6.11435">
        <ele>295.60000610352</ele>
        <time>2013-03-16T14:05:34Z</time>
      </trkpt>
      <trkpt lat="43.37922" lon="6.11437">
        <ele>295.60000610352</ele>
        <time>2013-03-16T14:05:35Z</time>
      </trkpt>
      <trkpt lat="43.37914" lon="6.11445">
        <ele>295.60000610352</ele>
        <time>2013-03-16T14:05:39Z</time>
      </trkpt>
      <trkpt lat="43.3791" lon="6.11449">
        <ele>295.60000610352</ele>
        <time>2013-03-16T14:05:41Z</time>
      </trkpt>
      <trkpt lat="43.37894" lon="6.11463">
        <ele>295.60000610352</ele>
        <time>2013-03-16T14:05:49Z</time>
      </trkpt>
      <trkpt lat="43.37879" lon="6.11469">
        <ele>295.60000610352</ele>
        <time>2013-03-16T14:05:55Z</time>
      </trkpt>
      <trkpt lat="43.37867" lon="6.1147">
        <ele>295.60000610352</ele>
        <time>2013-03-16T14:06:00Z</time>
      </trkpt>
      <trkpt lat="43.37865" lon="6.11472">
        <ele>295.60000610352</ele>
        <time>2013-03-16T14:06:01Z</time>
      </trkpt>
      <trkpt lat="43.37854" lon="6.11482">
        <ele>295.60000610352</ele>
        <time>2013-03-16T14:06:06Z</time>
      </trkpt>
      <trkpt lat="43.37843" lon="6.11503">
        <ele>297</ele>
        <time>2013-03-16T14:06:14Z</time>
      </trkpt>
      <trkpt lat="43.37837" lon="6.11518">
        <ele>297.79998779297</ele>
        <time>2013-03-16T14:06:19Z</time>
      </trkpt>
      <trkpt lat="43.37822" lon="6.11554">
        <ele>299.79998779297</ele>
        <time>2013-03-16T14:06:32Z</time>
      </trkpt>
      <trkpt lat="43.37815" lon="6.1157">
        <ele>299.79998779297</ele>
        <time>2013-03-16T14:06:38Z</time>
      </trkpt>
      <trkpt lat="43.37801" lon="6.11587">
        <ele>299.79998779297</ele>
        <time>2013-03-16T14:06:46Z</time>
      </trkpt>
      <trkpt lat="43.3779" lon="6.11602">
        <ele>302</ele>
        <time>2013-03-16T14:06:53Z</time>
      </trkpt>
      <trkpt lat="43.37778" lon="6.11616">
        <ele>302</ele>
        <time>2013-03-16T14:06:59Z</time>
      </trkpt>
      <trkpt lat="43.37766" lon="6.11635">
        <ele>302</ele>
        <time>2013-03-16T14:07:07Z</time>
      </trkpt>
      <trkpt lat="43.37762" lon="6.11642">
        <ele>302.39999389648</ele>
        <time>2013-03-16T14:07:10Z</time>
      </trkpt>
      <trkpt lat="43.37758" lon="6.11652">
        <ele>304</ele>
        <time>2013-03-16T14:07:14Z</time>
      </trkpt>
      <trkpt lat="43.37751" lon="6.11668">
        <ele>304</ele>
        <time>2013-03-16T14:07:20Z</time>
      </trkpt>
      <trkpt lat="43.37748" lon="6.11678">
        <ele>305.79998779297</ele>
        <time>2013-03-16T14:07:24Z</time>
      </trkpt>
      <trkpt lat="43.37745" lon="6.11683">
        <ele>306.20001220703</ele>
        <time>2013-03-16T14:07:26Z</time>
      </trkpt>
      <trkpt lat="43.37736" lon="6.11701">
        <ele>306.20001220703</ele>
        <time>2013-03-16T14:07:33Z</time>
      </trkpt>
      <trkpt lat="43.37728" lon="6.11718">
        <ele>306.20001220703</ele>
        <time>2013-03-16T14:07:40Z</time>
      </trkpt>
      <trkpt lat="43.37714" lon="6.1174">
        <ele>308</ele>
        <time>2013-03-16T14:07:51Z</time>
      </trkpt>
      <trkpt lat="43.37708" lon="6.11754">
        <ele>308.39999389648</ele>
        <time>2013-03-16T14:07:58Z</time>
      </trkpt>
      <trkpt lat="43.37703" lon="6.11762">
        <ele>308.39999389648</ele>
        <time>2013-03-16T14:08:03Z</time>
      </trkpt>
      <trkpt lat="43.37701" lon="6.11765">
        <ele>308.39999389648</ele>
        <time>2013-03-16T14:08:05Z</time>
      </trkpt>
      <trkpt lat="43.37701" lon="6.11767">
        <ele>308.39999389648</ele>
        <time>2013-03-16T14:08:08Z</time>
      </trkpt>
      <trkpt lat="43.37701" lon="6.11767">
        <ele>308.39999389648</ele>
        <time>2013-03-16T14:08:11Z</time>
      </trkpt>
      <trkpt lat="43.37701" lon="6.11767">
        <ele>308.39999389648</ele>
        <time>2013-03-16T14:08:36Z</time>
      </trkpt>
      <trkpt lat="43.37701" lon="6.11767">
        <ele>308.39999389648</ele>
        <time>2013-03-16T14:08:49Z</time>
      </trkpt>
      <trkpt lat="43.37701" lon="6.11767">
        <ele>308.39999389648</ele>
        <time>2013-03-16T14:08:53Z</time>
      </trkpt>
      <trkpt lat="43.37697" lon="6.11777">
        <ele>308.39999389648</ele>
        <time>2013-03-16T14:08:58Z</time>
      </trkpt>
      <trkpt lat="43.37695" lon="6.11782">
        <ele>308.39999389648</ele>
        <time>2013-03-16T14:09:01Z</time>
      </trkpt>
      <trkpt lat="43.37693" lon="6.11785">
        <ele>308.79998779297</ele>
        <time>2013-03-16T14:09:03Z</time>
      </trkpt>
      <trkpt lat="43.37691" lon="6.1179">
        <ele>310.20001220703</ele>
        <time>2013-03-16T14:09:06Z</time>
      </trkpt>
      <trkpt lat="43.37685" lon="6.1181">
        <ele>310.60000610352</ele>
        <time>2013-03-16T14:09:15Z</time>
      </trkpt>
      <trkpt lat="43.37683" lon="6.11814">
        <ele>310.60000610352</ele>
        <time>2013-03-16T14:09:18Z</time>
      </trkpt>
      <trkpt lat="43.37679" lon="6.11825">
        <ele>311.39999389648</ele>
        <time>2013-03-16T14:09:23Z</time>
      </trkpt>
      <trkpt lat="43.37678" lon="6.11829">
        <ele>312.39999389648</ele>
        <time>2013-03-16T14:09:25Z</time>
      </trkpt>
      <trkpt lat="43.37674" lon="6.11835">
        <ele>312.79998779297</ele>
        <time>2013-03-16T14:09:29Z</time>
      </trkpt>
      <trkpt lat="43.37672" lon="6.11841">
        <ele>313.60000610352</ele>
        <time>2013-03-16T14:09:32Z</time>
      </trkpt>
      <trkpt lat="43.3767" lon="6.11845">
        <ele>314.39999389648</ele>
        <time>2013-03-16T14:09:34Z</time>
      </trkpt>
      <trkpt lat="43.37665" lon="6.11851">
        <ele>314.79998779297</ele>
        <time>2013-03-16T14:09:38Z</time>
      </trkpt>
      <trkpt lat="43.3766" lon="6.11857">
        <ele>314.79998779297</ele>
        <time>2013-03-16T14:09:42Z</time>
      </trkpt>
      <trkpt lat="43.37656" lon="6.11862">
        <ele>315.39999389648</ele>
        <time>2013-03-16T14:09:45Z</time>
      </trkpt>
      <trkpt lat="43.37651" lon="6.11868">
        <ele>316.60000610352</ele>
        <time>2013-03-16T14:09:48Z</time>
      </trkpt>
      <trkpt lat="43.3765" lon="6.1187">
        <ele>317</ele>
        <time>2013-03-16T14:09:49Z</time>
      </trkpt>
      <trkpt lat="43.37647" lon="6.11874">
        <ele>317</ele>
        <time>2013-03-16T14:09:51Z</time>
      </trkpt>
      <trkpt lat="43.3764" lon="6.11885">
        <ele>317</ele>
        <time>2013-03-16T14:09:57Z</time>
      </trkpt>
      <trkpt lat="43.37633" lon="6.11896">
        <ele>317.79998779297</ele>
        <time>2013-03-16T14:10:03Z</time>
      </trkpt>
      <trkpt lat="43.37627" lon="6.11905">
        <ele>319</ele>
        <time>2013-03-16T14:10:09Z</time>
      </trkpt>
      <trkpt lat="43.37625" lon="6.11909">
        <ele>319.39999389648</ele>
        <time>2013-03-16T14:10:11Z</time>
      </trkpt>
      <trkpt lat="43.37621" lon="6.11911">
        <ele>320.20001220703</ele>
        <time>2013-03-16T14:10:13Z</time>
      </trkpt>
      <trkpt lat="43.37619" lon="6.11914">
        <ele>321.20001220703</ele>
        <time>2013-03-16T14:10:15Z</time>
      </trkpt>
      <trkpt lat="43.37617" lon="6.11916">
        <ele>321.20001220703</ele>
        <time>2013-03-16T14:10:16Z</time>
      </trkpt>
      <trkpt lat="43.37613" lon="6.11924">
        <ele>321.20001220703</ele>
        <time>2013-03-16T14:10:21Z</time>
      </trkpt>
      <trkpt lat="43.37612" lon="6.11927">
        <ele>322</ele>
        <time>2013-03-16T14:10:23Z</time>
      </trkpt>
      <trkpt lat="43.3761" lon="6.1193">
        <ele>323.20001220703</ele>
        <time>2013-03-16T14:10:26Z</time>
      </trkpt>
      <trkpt lat="43.37607" lon="6.11937">
        <ele>323.60000610352</ele>
        <time>2013-03-16T14:10:30Z</time>
      </trkpt>
      <trkpt lat="43.37602" lon="6.11944">
        <ele>325.20001220703</ele>
        <time>2013-03-16T14:10:34Z</time>
      </trkpt>
      <trkpt lat="43.376" lon="6.11949">
        <ele>325.20001220703</ele>
        <time>2013-03-16T14:10:38Z</time>
      </trkpt>
      <trkpt lat="43.37598" lon="6.11951">
        <ele>325.20001220703</ele>
        <time>2013-03-16T14:10:39Z</time>
      </trkpt>
      <trkpt lat="43.37595" lon="6.11957">
        <ele>326.20001220703</ele>
        <time>2013-03-16T14:10:43Z</time>
      </trkpt>
      <trkpt lat="43.37592" lon="6.1196">
        <ele>327.39999389648</ele>
        <time>2013-03-16T14:10:46Z</time>
      </trkpt>
      <trkpt lat="43.37587" lon="6.11964">
        <ele>327.39999389648</ele>
        <time>2013-03-16T14:10:51Z</time>
      </trkpt>
      <trkpt lat="43.37578" lon="6.11972">
        <ele>328.60000610352</ele>
        <time>2013-03-16T14:10:58Z</time>
      </trkpt>
      <trkpt lat="43.37576" lon="6.11973">
        <ele>329.39999389648</ele>
        <time>2013-03-16T14:11:00Z</time>
      </trkpt>
      <trkpt lat="43.37571" lon="6.11975">
        <ele>329.39999389648</ele>
        <time>2013-03-16T14:11:03Z</time>
      </trkpt>
      <trkpt lat="43.37563" lon="6.11981">
        <ele>329.79998779297</ele>
        <time>2013-03-16T14:11:11Z</time>
      </trkpt>
      <trkpt lat="43.37559" lon="6.11985">
        <ele>331.60000610352</ele>
        <time>2013-03-16T14:11:15Z</time>
      </trkpt>
      <trkpt lat="43.3755" lon="6.11994">
        <ele>332.39999389648</ele>
        <time>2013-03-16T14:11:24Z</time>
      </trkpt>
      <trkpt lat="43.3754" lon="6.12006">
        <ele>334</ele>
        <time>2013-03-16T14:11:34Z</time>
      </trkpt>
      <trkpt lat="43.37535" lon="6.1201">
        <ele>335.79998779297</ele>
        <time>2013-03-16T14:11:38Z</time>
      </trkpt>
      <trkpt lat="43.37529" lon="6.12018">
        <ele>337.79998779297</ele>
        <time>2013-03-16T14:11:45Z</time>
      </trkpt>
      <trkpt lat="43.37516" lon="6.12031">
        <ele>339.79998779297</ele>
        <time>2013-03-16T14:11:58Z</time>
      </trkpt>
      <trkpt lat="43.37513" lon="6.12035">
        <ele>339.79998779297</ele>
        <time>2013-03-16T14:12:03Z</time>
      </trkpt>
      <trkpt lat="43.37506" lon="6.12044">
        <ele>342</ele>
        <time>2013-03-16T14:12:10Z</time>
      </trkpt>
      <trkpt lat="43.375" lon="6.12048">
        <ele>342.39999389648</ele>
        <time>2013-03-16T14:12:16Z</time>
      </trkpt>
      <trkpt lat="43.37496" lon="6.12052">
        <ele>344</ele>
        <time>2013-03-16T14:12:20Z</time>
      </trkpt>
      <trkpt lat="43.37492" lon="6.12055">
        <ele>344</ele>
        <time>2013-03-16T14:12:23Z</time>
      </trkpt>
      <trkpt lat="43.37491" lon="6.12056">
        <ele>344.79998779297</ele>
        <time>2013-03-16T14:12:26Z</time>
      </trkpt>
      <trkpt lat="43.37483" lon="6.12066">
        <ele>346.20001220703</ele>
        <time>2013-03-16T14:12:33Z</time>
      </trkpt>
      <trkpt lat="43.37479" lon="6.12069">
        <ele>346.60000610352</ele>
        <time>2013-03-16T14:12:37Z</time>
      </trkpt>
      <trkpt lat="43.37477" lon="6.12071">
        <ele>347.39999389648</ele>
        <time>2013-03-16T14:12:39Z</time>
      </trkpt>
      <trkpt lat="43.37476" lon="6.12072">
        <ele>348</ele>
        <time>2013-03-16T14:12:40Z</time>
      </trkpt>
      <trkpt lat="43.37469" lon="6.12077">
        <ele>348.39999389648</ele>
        <time>2013-03-16T14:12:45Z</time>
      </trkpt>
      <trkpt lat="43.37464" lon="6.1208">
        <ele>349.60000610352</ele>
        <time>2013-03-16T14:12:50Z</time>
      </trkpt>
      <trkpt lat="43.37462" lon="6.1208">
        <ele>350.60000610352</ele>
        <time>2013-03-16T14:12:52Z</time>
      </trkpt>
      <trkpt lat="43.37447" lon="6.12085">
        <ele>351</ele>
        <time>2013-03-16T14:13:04Z</time>
      </trkpt>
      <trkpt lat="43.37446" lon="6.12085">
        <ele>351.39999389648</ele>
        <time>2013-03-16T14:13:05Z</time>
      </trkpt>
      <trkpt lat="43.37444" lon="6.12085">
        <ele>352.20001220703</ele>
        <time>2013-03-16T14:13:07Z</time>
      </trkpt>
      <trkpt lat="43.3744" lon="6.12084">
        <ele>352.60000610352</ele>
        <time>2013-03-16T14:13:10Z</time>
      </trkpt>
      <trkpt lat="43.37435" lon="6.12084">
        <ele>352.60000610352</ele>
        <time>2013-03-16T14:13:16Z</time>
      </trkpt>
      <trkpt lat="43.37435" lon="6.12084">
        <ele>352.60000610352</ele>
        <time>2013-03-16T14:13:32Z</time>
      </trkpt>
      <trkpt lat="43.37434" lon="6.12084">
        <ele>352.60000610352</ele>
        <time>2013-03-16T14:14:03Z</time>
      </trkpt>
      <trkpt lat="43.37434" lon="6.12084">
        <ele>354.20001220703</ele>
        <time>2013-03-16T14:14:19Z</time>
      </trkpt>
      <trkpt lat="43.37434" lon="6.12084">
        <ele>354.60000610352</ele>
        <time>2013-03-16T14:14:59Z</time>
      </trkpt>
      <trkpt lat="43.37434" lon="6.12084">
        <ele>354.60000610352</ele>
        <time>2013-03-16T14:15:15Z</time>
      </trkpt>
      <trkpt lat="43.37434" lon="6.12084">
        <ele>354.60000610352</ele>
        <time>2013-03-16T14:15:30Z</time>
      </trkpt>
      <trkpt lat="43.37434" lon="6.12084">
        <ele>354.60000610352</ele>
        <time>2013-03-16T14:15:36Z</time>
      </trkpt>
      <trkpt lat="43.37434" lon="6.12084">
        <ele>354.60000610352</ele>
        <time>2013-03-16T14:15:40Z</time>
      </trkpt>
      <trkpt lat="43.37433" lon="6.12084">
        <ele>354.60000610352</ele>
        <time>2013-03-16T14:15:42Z</time>
      </trkpt>
      <trkpt lat="43.37433" lon="6.12084">
        <ele>354.60000610352</ele>
        <time>2013-03-16T14:15:43Z</time>
      </trkpt>
      <trkpt lat="43.37432" lon="6.12085">
        <ele>354.60000610352</ele>
        <time>2013-03-16T14:15:48Z</time>
      </trkpt>
      <trkpt lat="43.37432" lon="6.12085">
        <ele>354.60000610352</ele>
        <time>2013-03-16T14:15:50Z</time>
      </trkpt>
      <trkpt lat="43.37431" lon="6.12085">
        <ele>354.60000610352</ele>
        <time>2013-03-16T14:15:51Z</time>
      </trkpt>
      <trkpt lat="43.37419" lon="6.12087">
        <ele>354.60000610352</ele>
        <time>2013-03-16T14:15:59Z</time>
      </trkpt>
      <trkpt lat="43.3741" lon="6.12089">
        <ele>354.20001220703</ele>
        <time>2013-03-16T14:16:02Z</time>
      </trkpt>
      <trkpt lat="43.37406" lon="6.12089">
        <ele>353.60000610352</ele>
        <time>2013-03-16T14:16:03Z</time>
      </trkpt>
      <trkpt lat="43.37398" lon="6.1209">
        <ele>352.79998779297</ele>
        <time>2013-03-16T14:16:05Z</time>
      </trkpt>
      <trkpt lat="43.37394" lon="6.1209">
        <ele>352.39999389648</ele>
        <time>2013-03-16T14:16:06Z</time>
      </trkpt>
      <trkpt lat="43.37379" lon="6.12091">
        <ele>352.39999389648</ele>
        <time>2013-03-16T14:16:09Z</time>
      </trkpt>
      <trkpt lat="43.37373" lon="6.12093">
        <ele>351.79998779297</ele>
        <time>2013-03-16T14:16:10Z</time>
      </trkpt>
      <trkpt lat="43.37367" lon="6.12095">
        <ele>351.39999389648</ele>
        <time>2013-03-16T14:16:11Z</time>
      </trkpt>
      <trkpt lat="43.37353" lon="6.12105">
        <ele>350.20001220703</ele>
        <time>2013-03-16T14:16:13Z</time>
      </trkpt>
      <trkpt lat="43.37332" lon="6.12121">
        <ele>348.39999389648</ele>
        <time>2013-03-16T14:16:16Z</time>
      </trkpt>
      <trkpt lat="43.37316" lon="6.12131">
        <ele>346.39999389648</ele>
        <time>2013-03-16T14:16:18Z</time>
      </trkpt>
      <trkpt lat="43.373" lon="6.12141">
        <ele>345</ele>
        <time>2013-03-16T14:16:20Z</time>
      </trkpt>
      <trkpt lat="43.37292" lon="6.12148">
        <ele>344.20001220703</ele>
        <time>2013-03-16T14:16:21Z</time>
      </trkpt>
      <trkpt lat="43.37276" lon="6.12167">
        <ele>342.79998779297</ele>
        <time>2013-03-16T14:16:23Z</time>
      </trkpt>
      <trkpt lat="43.37269" lon="6.12178">
        <ele>341.60000610352</ele>
        <time>2013-03-16T14:16:24Z</time>
      </trkpt>
      <trkpt lat="43.37257" lon="6.122">
        <ele>339.60000610352</ele>
        <time>2013-03-16T14:16:26Z</time>
      </trkpt>
      <trkpt lat="43.37251" lon="6.12213">
        <ele>338.60000610352</ele>
        <time>2013-03-16T14:16:27Z</time>
      </trkpt>
      <trkpt lat="43.37246" lon="6.12226">
        <ele>337.60000610352</ele>
        <time>2013-03-16T14:16:28Z</time>
      </trkpt>
      <trkpt lat="43.37239" lon="6.1224">
        <ele>336.39999389648</ele>
        <time>2013-03-16T14:16:29Z</time>
      </trkpt>
      <trkpt lat="43.37234" lon="6.12254">
        <ele>335.20001220703</ele>
        <time>2013-03-16T14:16:30Z</time>
      </trkpt>
      <trkpt lat="43.37229" lon="6.12268">
        <ele>334</ele>
        <time>2013-03-16T14:16:31Z</time>
      </trkpt>
      <trkpt lat="43.37224" lon="6.12282">
        <ele>332.79998779297</ele>
        <time>2013-03-16T14:16:32Z</time>
      </trkpt>
      <trkpt lat="43.37219" lon="6.12296">
        <ele>332.20001220703</ele>
        <time>2013-03-16T14:16:33Z</time>
      </trkpt>
      <trkpt lat="43.37213" lon="6.1231">
        <ele>331.39999389648</ele>
        <time>2013-03-16T14:16:34Z</time>
      </trkpt>
      <trkpt lat="43.37207" lon="6.12323">
        <ele>330.60000610352</ele>
        <time>2013-03-16T14:16:35Z</time>
      </trkpt>
      <trkpt lat="43.37201" lon="6.12336">
        <ele>329.79998779297</ele>
        <time>2013-03-16T14:16:36Z</time>
      </trkpt>
      <trkpt lat="43.37193" lon="6.12349">
        <ele>328.79998779297</ele>
        <time>2013-03-16T14:16:37Z</time>
      </trkpt>
      <trkpt lat="43.37186" lon="6.1236">
        <ele>328</ele>
        <time>2013-03-16T14:16:38Z</time>
      </trkpt>
      <trkpt lat="43.37177" lon="6.1237">
        <ele>327</ele>
        <time>2013-03-16T14:16:39Z</time>
      </trkpt>
      <trkpt lat="43.37162" lon="6.1239">
        <ele>325.20001220703</ele>
        <time>2013-03-16T14:16:41Z</time>
      </trkpt>
      <trkpt lat="43.37149" lon="6.12412">
        <ele>324.79998779297</ele>
        <time>2013-03-16T14:16:43Z</time>
      </trkpt>
      <trkpt lat="43.37143" lon="6.12423">
        <ele>324.39999389648</ele>
        <time>2013-03-16T14:16:44Z</time>
      </trkpt>
      <trkpt lat="43.37138" lon="6.12434">
        <ele>324</ele>
        <time>2013-03-16T14:16:45Z</time>
      </trkpt>
      <trkpt lat="43.37129" lon="6.12456">
        <ele>323</ele>
        <time>2013-03-16T14:16:47Z</time>
      </trkpt>
      <trkpt lat="43.37116" lon="6.12486">
        <ele>323</ele>
        <time>2013-03-16T14:16:50Z</time>
      </trkpt>
      <trkpt lat="43.37101" lon="6.1251">
        <ele>323</ele>
        <time>2013-03-16T14:16:53Z</time>
      </trkpt>
      <trkpt lat="43.37096" lon="6.12516">
        <ele>323</ele>
        <time>2013-03-16T14:16:54Z</time>
      </trkpt>
      <trkpt lat="43.37072" lon="6.12538">
        <ele>323</ele>
        <time>2013-03-16T14:16:59Z</time>
      </trkpt>
      <trkpt lat="43.37067" lon="6.1254">
        <ele>323</ele>
        <time>2013-03-16T14:17:00Z</time>
      </trkpt>
      <trkpt lat="43.37049" lon="6.12559">
        <ele>324</ele>
        <time>2013-03-16T14:17:07Z</time>
      </trkpt>
      <trkpt lat="43.37046" lon="6.12561">
        <ele>324.39999389648</ele>
        <time>2013-03-16T14:17:08Z</time>
      </trkpt>
      <trkpt lat="43.37045" lon="6.12564">
        <ele>324.79998779297</ele>
        <time>2013-03-16T14:17:09Z</time>
      </trkpt>
      <trkpt lat="43.37043" lon="6.12566">
        <ele>325.20001220703</ele>
        <time>2013-03-16T14:17:10Z</time>
      </trkpt>
      <trkpt lat="43.37035" lon="6.12578">
        <ele>325.20001220703</ele>
        <time>2013-03-16T14:17:15Z</time>
      </trkpt>
      <trkpt lat="43.3703" lon="6.12585">
        <ele>325.20001220703</ele>
        <time>2013-03-16T14:17:18Z</time>
      </trkpt>
      <trkpt lat="43.37024" lon="6.12598">
        <ele>325.20001220703</ele>
        <time>2013-03-16T14:17:23Z</time>
      </trkpt>
      <trkpt lat="43.37017" lon="6.12612">
        <ele>325.20001220703</ele>
        <time>2013-03-16T14:17:29Z</time>
      </trkpt>
      <trkpt lat="43.37015" lon="6.12614">
        <ele>325.20001220703</ele>
        <time>2013-03-16T14:17:32Z</time>
      </trkpt>
      <trkpt lat="43.37015" lon="6.12614">
        <ele>325.20001220703</ele>
        <time>2013-03-16T14:17:33Z</time>
      </trkpt>
      <trkpt lat="43.37015" lon="6.12614">
        <ele>325.20001220703</ele>
        <time>2013-03-16T14:17:48Z</time>
      </trkpt>
      <trkpt lat="43.37015" lon="6.12614">
        <ele>325.20001220703</ele>
        <time>2013-03-16T14:17:50Z</time>
      </trkpt>
      <trkpt lat="43.37015" lon="6.12614">
        <ele>325.20001220703</ele>
        <time>2013-03-16T14:17:58Z</time>
      </trkpt>
      <trkpt lat="43.37016" lon="6.12616">
        <ele>325.20001220703</ele>
        <time>2013-03-16T14:18:04Z</time>
      </trkpt>
      <trkpt lat="43.37017" lon="6.12615">
        <ele>325.20001220703</ele>
        <time>2013-03-16T14:18:10Z</time>
      </trkpt>
      <trkpt lat="43.37022" lon="6.12605">
        <ele>325.20001220703</ele>
        <time>2013-03-16T14:18:14Z</time>
      </trkpt>
      <trkpt lat="43.37032" lon="6.12583">
        <ele>325.20001220703</ele>
        <time>2013-03-16T14:18:20Z</time>
      </trkpt>
      <trkpt lat="43.37036" lon="6.12576">
        <ele>325.20001220703</ele>
        <time>2013-03-16T14:18:23Z</time>
      </trkpt>
      <trkpt lat="43.37037" lon="6.12575">
        <ele>325.20001220703</ele>
        <time>2013-03-16T14:18:24Z</time>
      </trkpt>
      <trkpt lat="43.37039" lon="6.12573">
        <ele>325.20001220703</ele>
        <time>2013-03-16T14:18:27Z</time>
      </trkpt>
      <trkpt lat="43.3704" lon="6.12571">
        <ele>325.20001220703</ele>
        <time>2013-03-16T14:18:29Z</time>
      </trkpt>
      <trkpt lat="43.37039" lon="6.12569">
        <ele>325.20001220703</ele>
        <time>2013-03-16T14:18:31Z</time>
      </trkpt>
      <trkpt lat="43.37037" lon="6.12569">
        <ele>325.20001220703</ele>
        <time>2013-03-16T14:18:33Z</time>
      </trkpt>
      <trkpt lat="43.37036" lon="6.12576">
        <ele>325.20001220703</ele>
        <time>2013-03-16T14:18:36Z</time>
      </trkpt>
      <trkpt lat="43.37029" lon="6.1259">
        <ele>325.20001220703</ele>
        <time>2013-03-16T14:18:42Z</time>
      </trkpt>
      <trkpt lat="43.37025" lon="6.12597">
        <ele>325.20001220703</ele>
        <time>2013-03-16T14:18:45Z</time>
      </trkpt>
      <trkpt lat="43.37019" lon="6.1261">
        <ele>325.20001220703</ele>
        <time>2013-03-16T14:18:49Z</time>
      </trkpt>
      <trkpt lat="43.37011" lon="6.12628">
        <ele>325.20001220703</ele>
        <time>2013-03-16T14:18:55Z</time>
      </trkpt>
      <trkpt lat="43.37" lon="6.12652">
        <ele>326.39999389648</ele>
        <time>2013-03-16T14:19:03Z</time>
      </trkpt>
      <trkpt lat="43.3699" lon="6.12671">
        <ele>327.39999389648</ele>
        <time>2013-03-16T14:19:09Z</time>
      </trkpt>
      <trkpt lat="43.3698" lon="6.12695">
        <ele>327.39999389648</ele>
        <time>2013-03-16T14:19:16Z</time>
      </trkpt>
      <trkpt lat="43.36965" lon="6.12727">
        <ele>327.39999389648</ele>
        <time>2013-03-16T14:19:25Z</time>
      </trkpt>
      <trkpt lat="43.36954" lon="6.1275">
        <ele>327.39999389648</ele>
        <time>2013-03-16T14:19:32Z</time>
      </trkpt>
      <trkpt lat="43.36946" lon="6.12763">
        <ele>327.79998779297</ele>
        <time>2013-03-16T14:19:36Z</time>
      </trkpt>
      <trkpt lat="43.36942" lon="6.12772">
        <ele>329</ele>
        <time>2013-03-16T14:19:39Z</time>
      </trkpt>
      <trkpt lat="43.36936" lon="6.12786">
        <ele>329.39999389648</ele>
        <time>2013-03-16T14:19:44Z</time>
      </trkpt>
      <trkpt lat="43.36929" lon="6.12802">
        <ele>329.39999389648</ele>
        <time>2013-03-16T14:19:50Z</time>
      </trkpt>
      <trkpt lat="43.36912" lon="6.12837">
        <ele>331.60000610352</ele>
        <time>2013-03-16T14:20:03Z</time>
      </trkpt>
      <trkpt lat="43.36904" lon="6.12851">
        <ele>331.60000610352</ele>
        <time>2013-03-16T14:20:09Z</time>
      </trkpt>
      <trkpt lat="43.36893" lon="6.12862">
        <ele>331.60000610352</ele>
        <time>2013-03-16T14:20:15Z</time>
      </trkpt>
      <trkpt lat="43.3688" lon="6.12874">
        <ele>333.79998779297</ele>
        <time>2013-03-16T14:20:23Z</time>
      </trkpt>
      <trkpt lat="43.36866" lon="6.12885">
        <ele>333.79998779297</ele>
        <time>2013-03-16T14:20:31Z</time>
      </trkpt>
      <trkpt lat="43.36854" lon="6.12897">
        <ele>333.79998779297</ele>
        <time>2013-03-16T14:20:38Z</time>
      </trkpt>
      <trkpt lat="43.36848" lon="6.12903">
        <ele>334.60000610352</ele>
        <time>2013-03-16T14:20:42Z</time>
      </trkpt>
      <trkpt lat="43.36831" lon="6.12918">
        <ele>336.39999389648</ele>
        <time>2013-03-16T14:20:52Z</time>
      </trkpt>
      <trkpt lat="43.36827" lon="6.12923">
        <ele>337.60000610352</ele>
        <time>2013-03-16T14:20:55Z</time>
      </trkpt>
      <trkpt lat="43.36817" lon="6.12934">
        <ele>338</ele>
        <time>2013-03-16T14:21:01Z</time>
      </trkpt>
      <trkpt lat="43.36807" lon="6.12946">
        <ele>338.39999389648</ele>
        <time>2013-03-16T14:21:07Z</time>
      </trkpt>
      <trkpt lat="43.36802" lon="6.12952">
        <ele>339.60000610352</ele>
        <time>2013-03-16T14:21:10Z</time>
      </trkpt>
      <trkpt lat="43.3679" lon="6.12965">
        <ele>340</ele>
        <time>2013-03-16T14:21:17Z</time>
      </trkpt>
      <trkpt lat="43.36777" lon="6.12979">
        <ele>340</ele>
        <time>2013-03-16T14:21:25Z</time>
      </trkpt>
      <trkpt lat="43.36773" lon="6.12982">
        <ele>340.79998779297</ele>
        <time>2013-03-16T14:21:28Z</time>
      </trkpt>
      <trkpt lat="43.36766" lon="6.12989">
        <ele>342</ele>
        <time>2013-03-16T14:21:33Z</time>
      </trkpt>
      <trkpt lat="43.36763" lon="6.12995">
        <ele>342</ele>
        <time>2013-03-16T14:21:37Z</time>
      </trkpt>
      <trkpt lat="43.36761" lon="6.12998">
        <ele>342</ele>
        <time>2013-03-16T14:21:39Z</time>
      </trkpt>
      <trkpt lat="43.3676" lon="6.13">
        <ele>342</ele>
        <time>2013-03-16T14:21:41Z</time>
      </trkpt>
      <trkpt lat="43.36758" lon="6.13002">
        <ele>342</ele>
        <time>2013-03-16T14:21:42Z</time>
      </trkpt>
      <trkpt lat="43.36756" lon="6.13005">
        <ele>342</ele>
        <time>2013-03-16T14:21:44Z</time>
      </trkpt>
      <trkpt lat="43.36754" lon="6.13008">
        <ele>342.79998779297</ele>
        <time>2013-03-16T14:21:48Z</time>
      </trkpt>
      <trkpt lat="43.36754" lon="6.13008">
        <ele>343.39999389648</ele>
        <time>2013-03-16T14:21:49Z</time>
      </trkpt>
      <trkpt lat="43.36754" lon="6.13008">
        <ele>343.79998779297</ele>
        <time>2013-03-16T14:21:50Z</time>
      </trkpt>
      <trkpt lat="43.36753" lon="6.13009">
        <ele>344.20001220703</ele>
        <time>2013-03-16T14:21:51Z</time>
      </trkpt>
      <trkpt lat="43.3675" lon="6.13014">
        <ele>344.20001220703</ele>
        <time>2013-03-16T14:21:55Z</time>
      </trkpt>
      <trkpt lat="43.36744" lon="6.13025">
        <ele>344.20001220703</ele>
        <time>2013-03-16T14:22:01Z</time>
      </trkpt>
      <trkpt lat="43.36738" lon="6.13036">
        <ele>344.60000610352</ele>
        <time>2013-03-16T14:22:07Z</time>
      </trkpt>
      <trkpt lat="43.36737" lon="6.13039">
        <ele>345</ele>
        <time>2013-03-16T14:22:08Z</time>
      </trkpt>
      <trkpt lat="43.36734" lon="6.13044">
        <ele>345.79998779297</ele>
        <time>2013-03-16T14:22:10Z</time>
      </trkpt>
      <trkpt lat="43.3673" lon="6.13051">
        <ele>346.20001220703</ele>
        <time>2013-03-16T14:22:13Z</time>
      </trkpt>
      <trkpt lat="43.36721" lon="6.13064">
        <ele>346.20001220703</ele>
        <time>2013-03-16T14:22:20Z</time>
      </trkpt>
      <trkpt lat="43.36714" lon="6.13084">
        <ele>346.20001220703</ele>
        <time>2013-03-16T14:22:28Z</time>
      </trkpt>
      <trkpt lat="43.3671" lon="6.13107">
        <ele>347.39999389648</ele>
        <time>2013-03-16T14:22:37Z</time>
      </trkpt>
      <trkpt lat="43.36708" lon="6.13112">
        <ele>348.20001220703</ele>
        <time>2013-03-16T14:22:39Z</time>
      </trkpt>
      <trkpt lat="43.36705" lon="6.13119">
        <ele>348.20001220703</ele>
        <time>2013-03-16T14:22:42Z</time>
      </trkpt>
      <trkpt lat="43.36699" lon="6.13133">
        <ele>348.60000610352</ele>
        <time>2013-03-16T14:22:49Z</time>
      </trkpt>
      <trkpt lat="43.36697" lon="6.13137">
        <ele>349.39999389648</ele>
        <time>2013-03-16T14:22:51Z</time>
      </trkpt>
      <trkpt lat="43.36695" lon="6.13139">
        <ele>349.79998779297</ele>
        <time>2013-03-16T14:22:52Z</time>
      </trkpt>
      <trkpt lat="43.36686" lon="6.13147">
        <ele>350.39999389648</ele>
        <time>2013-03-16T14:22:58Z</time>
      </trkpt>
      <trkpt lat="43.36681" lon="6.1315">
        <ele>351.20001220703</ele>
        <time>2013-03-16T14:23:02Z</time>
      </trkpt>
      <trkpt lat="43.36677" lon="6.13151">
        <ele>352</ele>
        <time>2013-03-16T14:23:04Z</time>
      </trkpt>
      <trkpt lat="43.36674" lon="6.13152">
        <ele>352.39999389648</ele>
        <time>2013-03-16T14:23:06Z</time>
      </trkpt>
      <trkpt lat="43.3667" lon="6.13156">
        <ele>352.39999389648</ele>
        <time>2013-03-16T14:23:10Z</time>
      </trkpt>
      <trkpt lat="43.36667" lon="6.13159">
        <ele>352.39999389648</ele>
        <time>2013-03-16T14:23:12Z</time>
      </trkpt>
      <trkpt lat="43.36665" lon="6.13166">
        <ele>352.79998779297</ele>
        <time>2013-03-16T14:23:15Z</time>
      </trkpt>
      <trkpt lat="43.36665" lon="6.13176">
        <ele>354.39999389648</ele>
        <time>2013-03-16T14:23:19Z</time>
      </trkpt>
      <trkpt lat="43.36664" lon="6.13188">
        <ele>354.39999389648</ele>
        <time>2013-03-16T14:23:24Z</time>
      </trkpt>
      <trkpt lat="43.36664" lon="6.13195">
        <ele>355.20001220703</ele>
        <time>2013-03-16T14:23:26Z</time>
      </trkpt>
      <trkpt lat="43.36663" lon="6.13201">
        <ele>356</ele>
        <time>2013-03-16T14:23:28Z</time>
      </trkpt>
      <trkpt lat="43.36662" lon="6.13209">
        <ele>356.60000610352</ele>
        <time>2013-03-16T14:23:31Z</time>
      </trkpt>
      <trkpt lat="43.36657" lon="6.13237">
        <ele>357</ele>
        <time>2013-03-16T14:23:42Z</time>
      </trkpt>
      <trkpt lat="43.36657" lon="6.13244">
        <ele>358.20001220703</ele>
        <time>2013-03-16T14:23:45Z</time>
      </trkpt>
      <trkpt lat="43.36658" lon="6.13249">
        <ele>358.60000610352</ele>
        <time>2013-03-16T14:23:47Z</time>
      </trkpt>
      <trkpt lat="43.36655" lon="6.13267">
        <ele>358.60000610352</ele>
        <time>2013-03-16T14:23:56Z</time>
      </trkpt>
      <trkpt lat="43.36652" lon="6.13284">
        <ele>360.20001220703</ele>
        <time>2013-03-16T14:24:05Z</time>
      </trkpt>
      <trkpt lat="43.3665" lon="6.13294">
        <ele>360.79998779297</ele>
        <time>2013-03-16T14:24:09Z</time>
      </trkpt>
      <trkpt lat="43.3665" lon="6.133">
        <ele>360.79998779297</ele>
        <time>2013-03-16T14:24:12Z</time>
      </trkpt>
      <trkpt lat="43.36647" lon="6.13319">
        <ele>360.79998779297</ele>
        <time>2013-03-16T14:24:23Z</time>
      </trkpt>
      <trkpt lat="43.36645" lon="6.13321">
        <ele>360.79998779297</ele>
        <time>2013-03-16T14:24:25Z</time>
      </trkpt>
      <trkpt lat="43.36644" lon="6.13329">
        <ele>360.79998779297</ele>
        <time>2013-03-16T14:24:31Z</time>
      </trkpt>
      <trkpt lat="43.36644" lon="6.1333">
        <ele>360.79998779297</ele>
        <time>2013-03-16T14:24:32Z</time>
      </trkpt>
      <trkpt lat="43.36644" lon="6.1333">
        <ele>360.79998779297</ele>
        <time>2013-03-16T14:24:51Z</time>
      </trkpt>
      <trkpt lat="43.36644" lon="6.1333">
        <ele>360.79998779297</ele>
        <time>2013-03-16T14:24:54Z</time>
      </trkpt>
      <trkpt lat="43.36644" lon="6.13332">
        <ele>360.79998779297</ele>
        <time>2013-03-16T14:25:03Z</time>
      </trkpt>
      <trkpt lat="43.36639" lon="6.13347">
        <ele>361.20001220703</ele>
        <time>2013-03-16T14:25:11Z</time>
      </trkpt>
      <trkpt lat="43.36637" lon="6.1335">
        <ele>362</ele>
        <time>2013-03-16T14:25:13Z</time>
      </trkpt>
      <trkpt lat="43.36636" lon="6.13354">
        <ele>362.79998779297</ele>
        <time>2013-03-16T14:25:15Z</time>
      </trkpt>
      <trkpt lat="43.36629" lon="6.13388">
        <ele>362.79998779297</ele>
        <time>2013-03-16T14:25:29Z</time>
      </trkpt>
      <trkpt lat="43.36628" lon="6.13391">
        <ele>362.79998779297</ele>
        <time>2013-03-16T14:25:30Z</time>
      </trkpt>
      <trkpt lat="43.36623" lon="6.13407">
        <ele>362.79998779297</ele>
        <time>2013-03-16T14:25:36Z</time>
      </trkpt>
      <trkpt lat="43.3662" lon="6.1342">
        <ele>362.79998779297</ele>
        <time>2013-03-16T14:25:41Z</time>
      </trkpt>
      <trkpt lat="43.36616" lon="6.13435">
        <ele>362.79998779297</ele>
        <time>2013-03-16T14:25:47Z</time>
      </trkpt>
      <trkpt lat="43.36615" lon="6.13441">
        <ele>363.20001220703</ele>
        <time>2013-03-16T14:25:50Z</time>
      </trkpt>
      <trkpt lat="43.36612" lon="6.13449">
        <ele>364.79998779297</ele>
        <time>2013-03-16T14:25:54Z</time>
      </trkpt>
      <trkpt lat="43.36611" lon="6.13452">
        <ele>364.79998779297</ele>
        <time>2013-03-16T14:25:58Z</time>
      </trkpt>
      <trkpt lat="43.36611" lon="6.13452">
        <ele>364.79998779297</ele>
        <time>2013-03-16T14:26:05Z</time>
      </trkpt>
      <trkpt lat="43.36611" lon="6.13452">
        <ele>364.79998779297</ele>
        <time>2013-03-16T14:26:07Z</time>
      </trkpt>
      <trkpt lat="43.3661" lon="6.13454">
        <ele>364.79998779297</ele>
        <time>2013-03-16T14:26:11Z</time>
      </trkpt>
      <trkpt lat="43.36606" lon="6.13469">
        <ele>364.79998779297</ele>
        <time>2013-03-16T14:26:17Z</time>
      </trkpt>
      <trkpt lat="43.36604" lon="6.13482">
        <ele>364.79998779297</ele>
        <time>2013-03-16T14:26:22Z</time>
      </trkpt>
      <trkpt lat="43.36603" lon="6.13487">
        <ele>364.79998779297</ele>
        <time>2013-03-16T14:26:24Z</time>
      </trkpt>
      <trkpt lat="43.366" lon="6.13504">
        <ele>364.79998779297</ele>
        <time>2013-03-16T14:26:30Z</time>
      </trkpt>
      <trkpt lat="43.36598" lon="6.1352">
        <ele>367</ele>
        <time>2013-03-16T14:26:36Z</time>
      </trkpt>
      <trkpt lat="43.36596" lon="6.13531">
        <ele>367</ele>
        <time>2013-03-16T14:26:40Z</time>
      </trkpt>
      <trkpt lat="43.36584" lon="6.13576">
        <ele>369</ele>
        <time>2013-03-16T14:26:56Z</time>
      </trkpt>
      <trkpt lat="43.36572" lon="6.13615">
        <ele>371</ele>
        <time>2013-03-16T14:27:10Z</time>
      </trkpt>
      <trkpt lat="43.36567" lon="6.13637">
        <ele>371</ele>
        <time>2013-03-16T14:27:17Z</time>
      </trkpt>
      <trkpt lat="43.36562" lon="6.13673">
        <ele>373</ele>
        <time>2013-03-16T14:27:30Z</time>
      </trkpt>
      <trkpt lat="43.3656" lon="6.13681">
        <ele>373.39999389648</ele>
        <time>2013-03-16T14:27:33Z</time>
      </trkpt>
      <trkpt lat="43.36557" lon="6.13702">
        <ele>375.20001220703</ele>
        <time>2013-03-16T14:27:41Z</time>
      </trkpt>
      <trkpt lat="43.36554" lon="6.13724">
        <ele>377.20001220703</ele>
        <time>2013-03-16T14:27:50Z</time>
      </trkpt>
      <trkpt lat="43.36552" lon="6.13734">
        <ele>377.20001220703</ele>
        <time>2013-03-16T14:27:54Z</time>
      </trkpt>
      <trkpt lat="43.36549" lon="6.13756">
        <ele>378.39999389648</ele>
        <time>2013-03-16T14:28:03Z</time>
      </trkpt>
      <trkpt lat="43.36547" lon="6.1377">
        <ele>379.20001220703</ele>
        <time>2013-03-16T14:28:08Z</time>
      </trkpt>
      <trkpt lat="43.36547" lon="6.13782">
        <ele>379.20001220703</ele>
        <time>2013-03-16T14:28:13Z</time>
      </trkpt>
      <trkpt lat="43.36546" lon="6.13789">
        <ele>379.60000610352</ele>
        <time>2013-03-16T14:28:16Z</time>
      </trkpt>
      <trkpt lat="43.36545" lon="6.13791">
        <ele>380.20001220703</ele>
        <time>2013-03-16T14:28:17Z</time>
      </trkpt>
      <trkpt lat="43.36541" lon="6.13813">
        <ele>381.39999389648</ele>
        <time>2013-03-16T14:28:24Z</time>
      </trkpt>
      <trkpt lat="43.36539" lon="6.13819">
        <ele>381.39999389648</ele>
        <time>2013-03-16T14:28:26Z</time>
      </trkpt>
      <trkpt lat="43.36536" lon="6.13837">
        <ele>381.39999389648</ele>
        <time>2013-03-16T14:28:32Z</time>
      </trkpt>
      <trkpt lat="43.36536" lon="6.13846">
        <ele>381.39999389648</ele>
        <time>2013-03-16T14:28:35Z</time>
      </trkpt>
      <trkpt lat="43.36535" lon="6.13854">
        <ele>382.79998779297</ele>
        <time>2013-03-16T14:28:38Z</time>
      </trkpt>
      <trkpt lat="43.36533" lon="6.13868">
        <ele>383.60000610352</ele>
        <time>2013-03-16T14:28:43Z</time>
      </trkpt>
      <trkpt lat="43.36531" lon="6.13886">
        <ele>383.60000610352</ele>
        <time>2013-03-16T14:28:49Z</time>
      </trkpt>
      <trkpt lat="43.3653" lon="6.13897">
        <ele>383.60000610352</ele>
        <time>2013-03-16T14:28:53Z</time>
      </trkpt>
      <trkpt lat="43.36529" lon="6.13906">
        <ele>384</ele>
        <time>2013-03-16T14:28:56Z</time>
      </trkpt>
      <trkpt lat="43.3653" lon="6.1392">
        <ele>385.79998779297</ele>
        <time>2013-03-16T14:29:01Z</time>
      </trkpt>
      <trkpt lat="43.36528" lon="6.13934">
        <ele>385.79998779297</ele>
        <time>2013-03-16T14:29:06Z</time>
      </trkpt>
      <trkpt lat="43.36528" lon="6.13942">
        <ele>385.79998779297</ele>
        <time>2013-03-16T14:29:09Z</time>
      </trkpt>
      <trkpt lat="43.36531" lon="6.13974">
        <ele>386.60000610352</ele>
        <time>2013-03-16T14:29:20Z</time>
      </trkpt>
      <trkpt lat="43.36533" lon="6.13991">
        <ele>387.79998779297</ele>
        <time>2013-03-16T14:29:26Z</time>
      </trkpt>
      <trkpt lat="43.36531" lon="6.14012">
        <ele>387.79998779297</ele>
        <time>2013-03-16T14:29:33Z</time>
      </trkpt>
      <trkpt lat="43.36528" lon="6.14028">
        <ele>387.79998779297</ele>
        <time>2013-03-16T14:29:38Z</time>
      </trkpt>
      <trkpt lat="43.36526" lon="6.1404">
        <ele>388.20001220703</ele>
        <time>2013-03-16T14:29:42Z</time>
      </trkpt>
      <trkpt lat="43.36526" lon="6.14048">
        <ele>389.39999389648</ele>
        <time>2013-03-16T14:29:45Z</time>
      </trkpt>
      <trkpt lat="43.36525" lon="6.14051">
        <ele>389.79998779297</ele>
        <time>2013-03-16T14:29:46Z</time>
      </trkpt>
      <trkpt lat="43.36525" lon="6.14066">
        <ele>389.79998779297</ele>
        <time>2013-03-16T14:29:51Z</time>
      </trkpt>
      <trkpt lat="43.36527" lon="6.14084">
        <ele>389.79998779297</ele>
        <time>2013-03-16T14:29:59Z</time>
      </trkpt>
      <trkpt lat="43.36526" lon="6.1409">
        <ele>390.20001220703</ele>
        <time>2013-03-16T14:30:02Z</time>
      </trkpt>
      <trkpt lat="43.36526" lon="6.14096">
        <ele>391.39999389648</ele>
        <time>2013-03-16T14:30:05Z</time>
      </trkpt>
      <trkpt lat="43.36527" lon="6.14098">
        <ele>392</ele>
        <time>2013-03-16T14:30:06Z</time>
      </trkpt>
      <trkpt lat="43.36533" lon="6.14121">
        <ele>392.79998779297</ele>
        <time>2013-03-16T14:30:18Z</time>
      </trkpt>
      <trkpt lat="43.36535" lon="6.14132">
        <ele>394</ele>
        <time>2013-03-16T14:30:24Z</time>
      </trkpt>
      <trkpt lat="43.36537" lon="6.1415">
        <ele>394</ele>
        <time>2013-03-16T14:30:33Z</time>
      </trkpt>
      <trkpt lat="43.36538" lon="6.14155">
        <ele>394</ele>
        <time>2013-03-16T14:30:36Z</time>
      </trkpt>
      <trkpt lat="43.3654" lon="6.14164">
        <ele>394</ele>
        <time>2013-03-16T14:30:41Z</time>
      </trkpt>
      <trkpt lat="43.36542" lon="6.14177">
        <ele>394</ele>
        <time>2013-03-16T14:30:47Z</time>
      </trkpt>
      <trkpt lat="43.36545" lon="6.14187">
        <ele>394</ele>
        <time>2013-03-16T14:30:52Z</time>
      </trkpt>
      <trkpt lat="43.36545" lon="6.14193">
        <ele>394.39999389648</ele>
        <time>2013-03-16T14:30:55Z</time>
      </trkpt>
      <trkpt lat="43.36543" lon="6.14223">
        <ele>396</ele>
        <time>2013-03-16T14:31:09Z</time>
      </trkpt>
      <trkpt lat="43.36542" lon="6.1424">
        <ele>396</ele>
        <time>2013-03-16T14:31:17Z</time>
      </trkpt>
      <trkpt lat="43.36539" lon="6.14252">
        <ele>398</ele>
        <time>2013-03-16T14:31:24Z</time>
      </trkpt>
      <trkpt lat="43.36538" lon="6.14256">
        <ele>398</ele>
        <time>2013-03-16T14:31:26Z</time>
      </trkpt>
      <trkpt lat="43.36536" lon="6.14273">
        <ele>398</ele>
        <time>2013-03-16T14:31:34Z</time>
      </trkpt>
      <trkpt lat="43.36534" lon="6.14286">
        <ele>398.60000610352</ele>
        <time>2013-03-16T14:31:40Z</time>
      </trkpt>
      <trkpt lat="43.36533" lon="6.14293">
        <ele>399.79998779297</ele>
        <time>2013-03-16T14:31:43Z</time>
      </trkpt>
      <trkpt lat="43.36533" lon="6.14294">
        <ele>400.20001220703</ele>
        <time>2013-03-16T14:31:44Z</time>
      </trkpt>
      <trkpt lat="43.36533" lon="6.14298">
        <ele>400.20001220703</ele>
        <time>2013-03-16T14:31:46Z</time>
      </trkpt>
      <trkpt lat="43.36527" lon="6.14309">
        <ele>400.20001220703</ele>
        <time>2013-03-16T14:31:52Z</time>
      </trkpt>
      <trkpt lat="43.36526" lon="6.14322">
        <ele>400.20001220703</ele>
        <time>2013-03-16T14:31:57Z</time>
      </trkpt>
      <trkpt lat="43.36524" lon="6.14334">
        <ele>400.20001220703</ele>
        <time>2013-03-16T14:32:01Z</time>
      </trkpt>
      <trkpt lat="43.36524" lon="6.14335">
        <ele>400.20001220703</ele>
        <time>2013-03-16T14:32:04Z</time>
      </trkpt>
      <trkpt lat="43.36524" lon="6.14335">
        <ele>400.20001220703</ele>
        <time>2013-03-16T14:32:18Z</time>
      </trkpt>
      <trkpt lat="43.36524" lon="6.14335">
        <ele>400.20001220703</ele>
        <time>2013-03-16T14:32:57Z</time>
      </trkpt>
      <trkpt lat="43.36524" lon="6.14335">
        <ele>400.20001220703</ele>
        <time>2013-03-16T14:33:13Z</time>
      </trkpt>
      <trkpt lat="43.36524" lon="6.14335">
        <ele>400.20001220703</ele>
        <time>2013-03-16T14:33:45Z</time>
      </trkpt>
      <trkpt lat="43.36524" lon="6.14335">
        <ele>400.20001220703</ele>
        <time>2013-03-16T14:33:58Z</time>
      </trkpt>
      <trkpt lat="43.36524" lon="6.14337">
        <ele>400.20001220703</ele>
        <time>2013-03-16T14:34:05Z</time>
      </trkpt>
      <trkpt lat="43.36523" lon="6.14342">
        <ele>400.20001220703</ele>
        <time>2013-03-16T14:34:08Z</time>
      </trkpt>
      <trkpt lat="43.36523" lon="6.1435">
        <ele>400.20001220703</ele>
        <time>2013-03-16T14:34:12Z</time>
      </trkpt>
      <trkpt lat="43.36524" lon="6.14358">
        <ele>400.20001220703</ele>
        <time>2013-03-16T14:34:16Z</time>
      </trkpt>
      <trkpt lat="43.36529" lon="6.14369">
        <ele>400.20001220703</ele>
        <time>2013-03-16T14:34:22Z</time>
      </trkpt>
      <trkpt lat="43.36534" lon="6.14385">
        <ele>400.20001220703</ele>
        <time>2013-03-16T14:34:30Z</time>
      </trkpt>
      <trkpt lat="43.36536" lon="6.14395">
        <ele>400.20001220703</ele>
        <time>2013-03-16T14:34:35Z</time>
      </trkpt>
      <trkpt lat="43.36541" lon="6.14415">
        <ele>401.79998779297</ele>
        <time>2013-03-16T14:34:44Z</time>
      </trkpt>
      <trkpt lat="43.36544" lon="6.14422">
        <ele>402.20001220703</ele>
        <time>2013-03-16T14:34:47Z</time>
      </trkpt>
      <trkpt lat="43.36547" lon="6.14444">
        <ele>402.20001220703</ele>
        <time>2013-03-16T14:34:55Z</time>
      </trkpt>
      <trkpt lat="43.36546" lon="6.1446">
        <ele>402.20001220703</ele>
        <time>2013-03-16T14:35:02Z</time>
      </trkpt>
      <trkpt lat="43.36541" lon="6.14476">
        <ele>402.20001220703</ele>
        <time>2013-03-16T14:35:09Z</time>
      </trkpt>
      <trkpt lat="43.36535" lon="6.14493">
        <ele>402.20001220703</ele>
        <time>2013-03-16T14:35:17Z</time>
      </trkpt>
      <trkpt lat="43.36532" lon="6.14505">
        <ele>402.20001220703</ele>
        <time>2013-03-16T14:35:22Z</time>
      </trkpt>
      <trkpt lat="43.36531" lon="6.14514">
        <ele>402.20001220703</ele>
        <time>2013-03-16T14:35:26Z</time>
      </trkpt>
      <trkpt lat="43.36533" lon="6.14525">
        <ele>402.20001220703</ele>
        <time>2013-03-16T14:35:31Z</time>
      </trkpt>
      <trkpt lat="43.36535" lon="6.14541">
        <ele>402.20001220703</ele>
        <time>2013-03-16T14:35:38Z</time>
      </trkpt>
      <trkpt lat="43.36535" lon="6.14562">
        <ele>403</ele>
        <time>2013-03-16T14:35:46Z</time>
      </trkpt>
      <trkpt lat="43.36535" lon="6.14575">
        <ele>404.39999389648</ele>
        <time>2013-03-16T14:35:52Z</time>
      </trkpt>
      <trkpt lat="43.36535" lon="6.1459">
        <ele>404.39999389648</ele>
        <time>2013-03-16T14:35:59Z</time>
      </trkpt>
      <trkpt lat="43.36535" lon="6.14597">
        <ele>405.20001220703</ele>
        <time>2013-03-16T14:36:02Z</time>
      </trkpt>
      <trkpt lat="43.36535" lon="6.14604">
        <ele>406.39999389648</ele>
        <time>2013-03-16T14:36:05Z</time>
      </trkpt>
      <trkpt lat="43.36533" lon="6.14614">
        <ele>407.60000610352</ele>
        <time>2013-03-16T14:36:10Z</time>
      </trkpt>
      <trkpt lat="43.36533" lon="6.14618">
        <ele>408.39999389648</ele>
        <time>2013-03-16T14:36:12Z</time>
      </trkpt>
      <trkpt lat="43.3653" lon="6.14634">
        <ele>408.39999389648</ele>
        <time>2013-03-16T14:36:19Z</time>
      </trkpt>
      <trkpt lat="43.36529" lon="6.14647">
        <ele>408.79998779297</ele>
        <time>2013-03-16T14:36:24Z</time>
      </trkpt>
      <trkpt lat="43.36528" lon="6.14653">
        <ele>409.79998779297</ele>
        <time>2013-03-16T14:36:26Z</time>
      </trkpt>
      <trkpt lat="43.36528" lon="6.14656">
        <ele>410.20001220703</ele>
        <time>2013-03-16T14:36:27Z</time>
      </trkpt>
      <trkpt lat="43.36527" lon="6.14658">
        <ele>410.60000610352</ele>
        <time>2013-03-16T14:36:28Z</time>
      </trkpt>
      <trkpt lat="43.36523" lon="6.14668">
        <ele>410.60000610352</ele>
        <time>2013-03-16T14:36:32Z</time>
      </trkpt>
      <trkpt lat="43.36522" lon="6.14674">
        <ele>410.60000610352</ele>
        <time>2013-03-16T14:36:35Z</time>
      </trkpt>
      <trkpt lat="43.36522" lon="6.14681">
        <ele>411.79998779297</ele>
        <time>2013-03-16T14:36:39Z</time>
      </trkpt>
      <trkpt lat="43.36522" lon="6.14684">
        <ele>412.60000610352</ele>
        <time>2013-03-16T14:36:41Z</time>
      </trkpt>
      <trkpt lat="43.36523" lon="6.1469">
        <ele>412.60000610352</ele>
        <time>2013-03-16T14:36:44Z</time>
      </trkpt>
      <trkpt lat="43.36524" lon="6.14702">
        <ele>414.39999389648</ele>
        <time>2013-03-16T14:36:50Z</time>
      </trkpt>
      <trkpt lat="43.36522" lon="6.14712">
        <ele>414.79998779297</ele>
        <time>2013-03-16T14:36:56Z</time>
      </trkpt>
      <trkpt lat="43.36522" lon="6.14714">
        <ele>414.79998779297</ele>
        <time>2013-03-16T14:36:57Z</time>
      </trkpt>
      <trkpt lat="43.36523" lon="6.14723">
        <ele>414.79998779297</ele>
        <time>2013-03-16T14:37:02Z</time>
      </trkpt>
      <trkpt lat="43.36521" lon="6.14728">
        <ele>415.60000610352</ele>
        <time>2013-03-16T14:37:05Z</time>
      </trkpt>
      <trkpt lat="43.36517" lon="6.14739">
        <ele>417.79998779297</ele>
        <time>2013-03-16T14:37:11Z</time>
      </trkpt>
      <trkpt lat="43.36518" lon="6.14744">
        <ele>419</ele>
        <time>2013-03-16T14:37:14Z</time>
      </trkpt>
      <trkpt lat="43.36518" lon="6.14753">
        <ele>419</ele>
        <time>2013-03-16T14:37:19Z</time>
      </trkpt>
      <trkpt lat="43.36518" lon="6.14763">
        <ele>419</ele>
        <time>2013-03-16T14:37:25Z</time>
      </trkpt>
      <trkpt lat="43.36517" lon="6.14776">
        <ele>421.20001220703</ele>
        <time>2013-03-16T14:37:32Z</time>
      </trkpt>
      <trkpt lat="43.36517" lon="6.14779">
        <ele>421.20001220703</ele>
        <time>2013-03-16T14:37:34Z</time>
      </trkpt>
      <trkpt lat="43.36517" lon="6.1479">
        <ele>421.20001220703</ele>
        <time>2013-03-16T14:37:40Z</time>
      </trkpt>
      <trkpt lat="43.36519" lon="6.14799">
        <ele>421.60000610352</ele>
        <time>2013-03-16T14:37:46Z</time>
      </trkpt>
      <trkpt lat="43.3652" lon="6.14802">
        <ele>422.39999389648</ele>
        <time>2013-03-16T14:37:48Z</time>
      </trkpt>
      <trkpt lat="43.3652" lon="6.1481">
        <ele>423.20001220703</ele>
        <time>2013-03-16T14:37:53Z</time>
      </trkpt>
      <trkpt lat="43.36521" lon="6.14811">
        <ele>423.20001220703</ele>
        <time>2013-03-16T14:37:54Z</time>
      </trkpt>
      <trkpt lat="43.36523" lon="6.14818">
        <ele>423.20001220703</ele>
        <time>2013-03-16T14:37:58Z</time>
      </trkpt>
      <trkpt lat="43.36528" lon="6.14834">
        <ele>425.20001220703</ele>
        <time>2013-03-16T14:38:08Z</time>
      </trkpt>
      <trkpt lat="43.36529" lon="6.1484">
        <ele>425.20001220703</ele>
        <time>2013-03-16T14:38:11Z</time>
      </trkpt>
      <trkpt lat="43.36533" lon="6.1485">
        <ele>426.39999389648</ele>
        <time>2013-03-16T14:38:16Z</time>
      </trkpt>
      <trkpt lat="43.36536" lon="6.14861">
        <ele>427.39999389648</ele>
        <time>2013-03-16T14:38:23Z</time>
      </trkpt>
      <trkpt lat="43.36538" lon="6.14867">
        <ele>428.20001220703</ele>
        <time>2013-03-16T14:38:28Z</time>
      </trkpt>
      <trkpt lat="43.36539" lon="6.14871">
        <ele>429.39999389648</ele>
        <time>2013-03-16T14:38:31Z</time>
      </trkpt>
      <trkpt lat="43.36539" lon="6.14874">
        <ele>429.39999389648</ele>
        <time>2013-03-16T14:38:34Z</time>
      </trkpt>
      <trkpt lat="43.36539" lon="6.14874">
        <ele>429.39999389648</ele>
        <time>2013-03-16T14:38:50Z</time>
      </trkpt>
      <trkpt lat="43.36539" lon="6.14874">
        <ele>429.39999389648</ele>
        <time>2013-03-16T14:39:14Z</time>
      </trkpt>
      <trkpt lat="43.36538" lon="6.14874">
        <ele>429.39999389648</ele>
        <time>2013-03-16T14:39:18Z</time>
      </trkpt>
      <trkpt lat="43.36538" lon="6.14874">
        <ele>429.39999389648</ele>
        <time>2013-03-16T14:39:37Z</time>
      </trkpt>
      <trkpt lat="43.36538" lon="6.14875">
        <ele>429.39999389648</ele>
        <time>2013-03-16T14:41:20Z</time>
      </trkpt>
      <trkpt lat="43.36538" lon="6.14875">
        <ele>429.39999389648</ele>
        <time>2013-03-16T14:42:00Z</time>
      </trkpt>
      <trkpt lat="43.36538" lon="6.14875">
        <ele>429.39999389648</ele>
        <time>2013-03-16T14:42:10Z</time>
      </trkpt>
      <trkpt lat="43.36538" lon="6.1488">
        <ele>429.39999389648</ele>
        <time>2013-03-16T14:42:17Z</time>
      </trkpt>
      <trkpt lat="43.36538" lon="6.14881">
        <ele>429.39999389648</ele>
        <time>2013-03-16T14:42:18Z</time>
      </trkpt>
      <trkpt lat="43.36538" lon="6.14883">
        <ele>429.39999389648</ele>
        <time>2013-03-16T14:42:20Z</time>
      </trkpt>
      <trkpt lat="43.36539" lon="6.14889">
        <ele>429.39999389648</ele>
        <time>2013-03-16T14:42:23Z</time>
      </trkpt>
      <trkpt lat="43.36541" lon="6.14899">
        <ele>429.39999389648</ele>
        <time>2013-03-16T14:42:28Z</time>
      </trkpt>
      <trkpt lat="43.36543" lon="6.14904">
        <ele>429.39999389648</ele>
        <time>2013-03-16T14:42:31Z</time>
      </trkpt>
      <trkpt lat="43.36544" lon="6.14911">
        <ele>429.39999389648</ele>
        <time>2013-03-16T14:42:34Z</time>
      </trkpt>
      <trkpt lat="43.36544" lon="6.14919">
        <ele>429.39999389648</ele>
        <time>2013-03-16T14:42:37Z</time>
      </trkpt>
      <trkpt lat="43.36545" lon="6.14926">
        <ele>429.39999389648</ele>
        <time>2013-03-16T14:42:40Z</time>
      </trkpt>
      <trkpt lat="43.36547" lon="6.14942">
        <ele>429.39999389648</ele>
        <time>2013-03-16T14:42:45Z</time>
      </trkpt>
      <trkpt lat="43.36551" lon="6.14962">
        <ele>429.39999389648</ele>
        <time>2013-03-16T14:42:50Z</time>
      </trkpt>
      <trkpt lat="43.36555" lon="6.14983">
        <ele>429.39999389648</ele>
        <time>2013-03-16T14:42:54Z</time>
      </trkpt>
      <trkpt lat="43.36555" lon="6.14988">
        <ele>429.39999389648</ele>
        <time>2013-03-16T14:42:55Z</time>
      </trkpt>
      <trkpt lat="43.36555" lon="6.1501">
        <ele>429.39999389648</ele>
        <time>2013-03-16T14:42:59Z</time>
      </trkpt>
      <trkpt lat="43.36555" lon="6.15022">
        <ele>429.39999389648</ele>
        <time>2013-03-16T14:43:01Z</time>
      </trkpt>
      <trkpt lat="43.36555" lon="6.15028">
        <ele>429.39999389648</ele>
        <time>2013-03-16T14:43:02Z</time>
      </trkpt>
      <trkpt lat="43.36556" lon="6.15045">
        <ele>429.39999389648</ele>
        <time>2013-03-16T14:43:05Z</time>
      </trkpt>
      <trkpt lat="43.36557" lon="6.15075">
        <ele>429.39999389648</ele>
        <time>2013-03-16T14:43:11Z</time>
      </trkpt>
      <trkpt lat="43.36555" lon="6.15099">
        <ele>430.60000610352</ele>
        <time>2013-03-16T14:43:16Z</time>
      </trkpt>
      <trkpt lat="43.36554" lon="6.15104">
        <ele>431</ele>
        <time>2013-03-16T14:43:17Z</time>
      </trkpt>
      <trkpt lat="43.36557" lon="6.15148">
        <ele>431.60000610352</ele>
        <time>2013-03-16T14:43:27Z</time>
      </trkpt>
      <trkpt lat="43.36557" lon="6.15165">
        <ele>431.60000610352</ele>
        <time>2013-03-16T14:43:31Z</time>
      </trkpt>
      <trkpt lat="43.36557" lon="6.15169">
        <ele>431.60000610352</ele>
        <time>2013-03-16T14:43:32Z</time>
      </trkpt>
      <trkpt lat="43.36556" lon="6.15182">
        <ele>432</ele>
        <time>2013-03-16T14:43:35Z</time>
      </trkpt>
      <trkpt lat="43.36561" lon="6.15187">
        <ele>432.79998779297</ele>
        <time>2013-03-16T14:43:37Z</time>
      </trkpt>
      <trkpt lat="43.36564" lon="6.1519">
        <ele>433.20001220703</ele>
        <time>2013-03-16T14:43:38Z</time>
      </trkpt>
      <trkpt lat="43.36566" lon="6.15192">
        <ele>433.60000610352</ele>
        <time>2013-03-16T14:43:39Z</time>
      </trkpt>
      <trkpt lat="43.36567" lon="6.15195">
        <ele>433.60000610352</ele>
        <time>2013-03-16T14:43:40Z</time>
      </trkpt>
      <trkpt lat="43.36569" lon="6.15196">
        <ele>433.60000610352</ele>
        <time>2013-03-16T14:43:44Z</time>
      </trkpt>
      <trkpt lat="43.36569" lon="6.15196">
        <ele>433.60000610352</ele>
        <time>2013-03-16T14:44:05Z</time>
      </trkpt>
      <trkpt lat="43.36569" lon="6.15196">
        <ele>433.60000610352</ele>
        <time>2013-03-16T14:44:22Z</time>
      </trkpt>
      <trkpt lat="43.3657" lon="6.15197">
        <ele>433.60000610352</ele>
        <time>2013-03-16T14:44:25Z</time>
      </trkpt>
      <trkpt lat="43.3657" lon="6.15197">
        <ele>433.60000610352</ele>
        <time>2013-03-16T14:44:48Z</time>
      </trkpt>
      <trkpt lat="43.3657" lon="6.15197">
        <ele>433.60000610352</ele>
        <time>2013-03-16T14:45:03Z</time>
      </trkpt>
      <trkpt lat="43.3657" lon="6.15197">
        <ele>433.60000610352</ele>
        <time>2013-03-16T14:45:06Z</time>
      </trkpt>
      <trkpt lat="43.36575" lon="6.15197">
        <ele>433.60000610352</ele>
        <time>2013-03-16T14:45:08Z</time>
      </trkpt>
      <trkpt lat="43.36581" lon="6.15196">
        <ele>433.20001220703</ele>
        <time>2013-03-16T14:45:10Z</time>
      </trkpt>
      <trkpt lat="43.36586" lon="6.15197">
        <ele>432.79998779297</ele>
        <time>2013-03-16T14:45:11Z</time>
      </trkpt>
      <trkpt lat="43.36589" lon="6.15198">
        <ele>432.39999389648</ele>
        <time>2013-03-16T14:45:12Z</time>
      </trkpt>
      <trkpt lat="43.36597" lon="6.15197">
        <ele>431.60000610352</ele>
        <time>2013-03-16T14:45:14Z</time>
      </trkpt>
      <trkpt lat="43.36604" lon="6.15194">
        <ele>431.60000610352</ele>
        <time>2013-03-16T14:45:17Z</time>
      </trkpt>
      <trkpt lat="43.36613" lon="6.15189">
        <ele>431.60000610352</ele>
        <time>2013-03-16T14:45:21Z</time>
      </trkpt>
      <trkpt lat="43.36621" lon="6.15185">
        <ele>431.60000610352</ele>
        <time>2013-03-16T14:45:25Z</time>
      </trkpt>
      <trkpt lat="43.36625" lon="6.15184">
        <ele>431.60000610352</ele>
        <time>2013-03-16T14:45:27Z</time>
      </trkpt>
      <trkpt lat="43.3663" lon="6.15183">
        <ele>431.60000610352</ele>
        <time>2013-03-16T14:45:31Z</time>
      </trkpt>
      <trkpt lat="43.36637" lon="6.15182">
        <ele>431.60000610352</ele>
        <time>2013-03-16T14:45:36Z</time>
      </trkpt>
      <trkpt lat="43.36642" lon="6.15181">
        <ele>431.60000610352</ele>
        <time>2013-03-16T14:45:39Z</time>
      </trkpt>
      <trkpt lat="43.36645" lon="6.15181">
        <ele>432.39999389648</ele>
        <time>2013-03-16T14:45:41Z</time>
      </trkpt>
      <trkpt lat="43.36649" lon="6.15182">
        <ele>433.60000610352</ele>
        <time>2013-03-16T14:45:44Z</time>
      </trkpt>
      <trkpt lat="43.36656" lon="6.1518">
        <ele>434.39999389648</ele>
        <time>2013-03-16T14:45:50Z</time>
      </trkpt>
      <trkpt lat="43.3666" lon="6.15176">
        <ele>435.79998779297</ele>
        <time>2013-03-16T14:45:53Z</time>
      </trkpt>
      <trkpt lat="43.36665" lon="6.15177">
        <ele>435.79998779297</ele>
        <time>2013-03-16T14:45:56Z</time>
      </trkpt>
      <trkpt lat="43.36674" lon="6.15179">
        <ele>435.79998779297</ele>
        <time>2013-03-16T14:46:01Z</time>
      </trkpt>
      <trkpt lat="43.36684" lon="6.1518">
        <ele>436.20001220703</ele>
        <time>2013-03-16T14:46:06Z</time>
      </trkpt>
      <trkpt lat="43.36696" lon="6.15184">
        <ele>437.79998779297</ele>
        <time>2013-03-16T14:46:14Z</time>
      </trkpt>
      <trkpt lat="43.36703" lon="6.15186">
        <ele>437.79998779297</ele>
        <time>2013-03-16T14:46:18Z</time>
      </trkpt>
      <trkpt lat="43.36707" lon="6.15186">
        <ele>437.79998779297</ele>
        <time>2013-03-16T14:46:20Z</time>
      </trkpt>
      <trkpt lat="43.36718" lon="6.15188">
        <ele>437.79998779297</ele>
        <time>2013-03-16T14:46:26Z</time>
      </trkpt>
      <trkpt lat="43.36726" lon="6.15194">
        <ele>439.79998779297</ele>
        <time>2013-03-16T14:46:32Z</time>
      </trkpt>
      <trkpt lat="43.36734" lon="6.15199">
        <ele>439.79998779297</ele>
        <time>2013-03-16T14:46:38Z</time>
      </trkpt>
      <trkpt lat="43.36743" lon="6.15207">
        <ele>440.20001220703</ele>
        <time>2013-03-16T14:46:45Z</time>
      </trkpt>
      <trkpt lat="43.36744" lon="6.15209">
        <ele>440.60000610352</ele>
        <time>2013-03-16T14:46:46Z</time>
      </trkpt>
      <trkpt lat="43.36752" lon="6.15224">
        <ele>442</ele>
        <time>2013-03-16T14:46:57Z</time>
      </trkpt>
      <trkpt lat="43.36755" lon="6.15226">
        <ele>443.20001220703</ele>
        <time>2013-03-16T14:47:01Z</time>
      </trkpt>
      <trkpt lat="43.36757" lon="6.15228">
        <ele>444</ele>
        <time>2013-03-16T14:47:03Z</time>
      </trkpt>
      <trkpt lat="43.36765" lon="6.15233">
        <ele>445</ele>
        <time>2013-03-16T14:47:10Z</time>
      </trkpt>
      <trkpt lat="43.36765" lon="6.15233">
        <ele>445.39999389648</ele>
        <time>2013-03-16T14:47:11Z</time>
      </trkpt>
      <trkpt lat="43.36772" lon="6.15229">
        <ele>446.20001220703</ele>
        <time>2013-03-16T14:47:18Z</time>
      </trkpt>
      <trkpt lat="43.36773" lon="6.15226">
        <ele>447</ele>
        <time>2013-03-16T14:47:20Z</time>
      </trkpt>
      <trkpt lat="43.36772" lon="6.1522">
        <ele>448.20001220703</ele>
        <time>2013-03-16T14:47:25Z</time>
      </trkpt>
      <trkpt lat="43.36774" lon="6.15207">
        <ele>448.20001220703</ele>
        <time>2013-03-16T14:47:30Z</time>
      </trkpt>
      <trkpt lat="43.36777" lon="6.15196">
        <ele>448.20001220703</ele>
        <time>2013-03-16T14:47:36Z</time>
      </trkpt>
      <trkpt lat="43.36783" lon="6.15188">
        <ele>448.20001220703</ele>
        <time>2013-03-16T14:47:42Z</time>
      </trkpt>
      <trkpt lat="43.36788" lon="6.15185">
        <ele>448.20001220703</ele>
        <time>2013-03-16T14:47:46Z</time>
      </trkpt>
      <trkpt lat="43.36791" lon="6.15185">
        <ele>448.20001220703</ele>
        <time>2013-03-16T14:47:48Z</time>
      </trkpt>
      <trkpt lat="43.368" lon="6.15181">
        <ele>449</ele>
        <time>2013-03-16T14:47:55Z</time>
      </trkpt>
      <trkpt lat="43.36815" lon="6.15175">
        <ele>450.79998779297</ele>
        <time>2013-03-16T14:48:06Z</time>
      </trkpt>
      <trkpt lat="43.36821" lon="6.15175">
        <ele>452.60000610352</ele>
        <time>2013-03-16T14:48:10Z</time>
      </trkpt>
      <trkpt lat="43.36826" lon="6.15176">
        <ele>453.39999389648</ele>
        <time>2013-03-16T14:48:14Z</time>
      </trkpt>
      <trkpt lat="43.36827" lon="6.15176">
        <ele>454</ele>
        <time>2013-03-16T14:48:15Z</time>
      </trkpt>
      <trkpt lat="43.36829" lon="6.15177">
        <ele>454.39999389648</ele>
        <time>2013-03-16T14:48:16Z</time>
      </trkpt>
      <trkpt lat="43.36831" lon="6.1518">
        <ele>455</ele>
        <time>2013-03-16T14:48:18Z</time>
      </trkpt>
      <trkpt lat="43.36835" lon="6.15182">
        <ele>456.20001220703</ele>
        <time>2013-03-16T14:48:21Z</time>
      </trkpt>
      <trkpt lat="43.36839" lon="6.15181">
        <ele>457.20001220703</ele>
        <time>2013-03-16T14:48:23Z</time>
      </trkpt>
      <trkpt lat="43.36842" lon="6.15179">
        <ele>458</ele>
        <time>2013-03-16T14:48:26Z</time>
      </trkpt>
      <trkpt lat="43.36843" lon="6.15179">
        <ele>458.39999389648</ele>
        <time>2013-03-16T14:48:27Z</time>
      </trkpt>
      <trkpt lat="43.36847" lon="6.1518">
        <ele>459.20001220703</ele>
        <time>2013-03-16T14:48:30Z</time>
      </trkpt>
      <trkpt lat="43.36854" lon="6.15182">
        <ele>459.20001220703</ele>
        <time>2013-03-16T14:48:36Z</time>
      </trkpt>
      <trkpt lat="43.36856" lon="6.15181">
        <ele>459.20001220703</ele>
        <time>2013-03-16T14:48:39Z</time>
      </trkpt>
      <trkpt lat="43.36861" lon="6.15182">
        <ele>459.20001220703</ele>
        <time>2013-03-16T14:48:45Z</time>
      </trkpt>
      <trkpt lat="43.36861" lon="6.15182">
        <ele>459.20001220703</ele>
        <time>2013-03-16T14:48:47Z</time>
      </trkpt>
      <trkpt lat="43.36861" lon="6.15182">
        <ele>461</ele>
        <time>2013-03-16T14:49:00Z</time>
      </trkpt>
      <trkpt lat="43.36861" lon="6.15182">
        <ele>461.39999389648</ele>
        <time>2013-03-16T14:49:23Z</time>
      </trkpt>
      <trkpt lat="43.36862" lon="6.15182">
        <ele>461.39999389648</ele>
        <time>2013-03-16T14:49:27Z</time>
      </trkpt>
      <trkpt lat="43.36862" lon="6.15182">
        <ele>461.39999389648</ele>
        <time>2013-03-16T14:49:36Z</time>
      </trkpt>
      <trkpt lat="43.36862" lon="6.15182">
        <ele>461.39999389648</ele>
        <time>2013-03-16T14:50:09Z</time>
      </trkpt>
      <trkpt lat="43.36862" lon="6.15182">
        <ele>461.39999389648</ele>
        <time>2013-03-16T14:50:24Z</time>
      </trkpt>
      <trkpt lat="43.36862" lon="6.15182">
        <ele>461.39999389648</ele>
        <time>2013-03-16T14:50:29Z</time>
      </trkpt>
      <trkpt lat="43.36862" lon="6.15182">
        <ele>461.39999389648</ele>
        <time>2013-03-16T14:50:49Z</time>
      </trkpt>
      <trkpt lat="43.36862" lon="6.15182">
        <ele>461.39999389648</ele>
        <time>2013-03-16T14:51:21Z</time>
      </trkpt>
      <trkpt lat="43.36862" lon="6.15182">
        <ele>461.39999389648</ele>
        <time>2013-03-16T14:51:39Z</time>
      </trkpt>
      <trkpt lat="43.36861" lon="6.15182">
        <ele>461.39999389648</ele>
        <time>2013-03-16T14:51:47Z</time>
      </trkpt>
      <trkpt lat="43.36861" lon="6.15182">
        <ele>461.39999389648</ele>
        <time>2013-03-16T14:51:53Z</time>
      </trkpt>
      <trkpt lat="43.36866" lon="6.15183">
        <ele>461.39999389648</ele>
        <time>2013-03-16T14:51:56Z</time>
      </trkpt>
      <trkpt lat="43.36869" lon="6.15184">
        <ele>461.39999389648</ele>
        <time>2013-03-16T14:51:58Z</time>
      </trkpt>
      <trkpt lat="43.36877" lon="6.15186">
        <ele>461.39999389648</ele>
        <time>2013-03-16T14:52:02Z</time>
      </trkpt>
      <trkpt lat="43.3688" lon="6.15189">
        <ele>461.39999389648</ele>
        <time>2013-03-16T14:52:04Z</time>
      </trkpt>
      <trkpt lat="43.36885" lon="6.15193">
        <ele>461.39999389648</ele>
        <time>2013-03-16T14:52:08Z</time>
      </trkpt>
      <trkpt lat="43.3689" lon="6.15199">
        <ele>461.39999389648</ele>
        <time>2013-03-16T14:52:11Z</time>
      </trkpt>
      <trkpt lat="43.36893" lon="6.15202">
        <ele>461.39999389648</ele>
        <time>2013-03-16T14:52:13Z</time>
      </trkpt>
      <trkpt lat="43.36908" lon="6.15213">
        <ele>461.39999389648</ele>
        <time>2013-03-16T14:52:19Z</time>
      </trkpt>
      <trkpt lat="43.36919" lon="6.15212">
        <ele>461.39999389648</ele>
        <time>2013-03-16T14:52:22Z</time>
      </trkpt>
      <trkpt lat="43.36924" lon="6.15209">
        <ele>461.39999389648</ele>
        <time>2013-03-16T14:52:23Z</time>
      </trkpt>
      <trkpt lat="43.36927" lon="6.15206">
        <ele>460.79998779297</ele>
        <time>2013-03-16T14:52:24Z</time>
      </trkpt>
      <trkpt lat="43.36931" lon="6.15206">
        <ele>460</ele>
        <time>2013-03-16T14:52:25Z</time>
      </trkpt>
      <trkpt lat="43.36935" lon="6.15206">
        <ele>459.39999389648</ele>
        <time>2013-03-16T14:52:26Z</time>
      </trkpt>
      <trkpt lat="43.36937" lon="6.15207">
        <ele>458.79998779297</ele>
        <time>2013-03-16T14:52:27Z</time>
      </trkpt>
      <trkpt lat="43.36941" lon="6.15208">
        <ele>458.20001220703</ele>
        <time>2013-03-16T14:52:28Z</time>
      </trkpt>
      <trkpt lat="43.36945" lon="6.15209">
        <ele>457.60000610352</ele>
        <time>2013-03-16T14:52:29Z</time>
      </trkpt>
      <trkpt lat="43.36949" lon="6.15207">
        <ele>457</ele>
        <time>2013-03-16T14:52:30Z</time>
      </trkpt>
      <trkpt lat="43.36953" lon="6.15205">
        <ele>456.60000610352</ele>
        <time>2013-03-16T14:52:31Z</time>
      </trkpt>
      <trkpt lat="43.36958" lon="6.15202">
        <ele>456</ele>
        <time>2013-03-16T14:52:32Z</time>
      </trkpt>
      <trkpt lat="43.36963" lon="6.15198">
        <ele>455.39999389648</ele>
        <time>2013-03-16T14:52:33Z</time>
      </trkpt>
      <trkpt lat="43.36972" lon="6.15189">
        <ele>455</ele>
        <time>2013-03-16T14:52:35Z</time>
      </trkpt>
      <trkpt lat="43.36975" lon="6.15184">
        <ele>454.60000610352</ele>
        <time>2013-03-16T14:52:36Z</time>
      </trkpt>
      <trkpt lat="43.36977" lon="6.15178">
        <ele>454.20001220703</ele>
        <time>2013-03-16T14:52:37Z</time>
      </trkpt>
      <trkpt lat="43.36979" lon="6.15172">
        <ele>453.60000610352</ele>
        <time>2013-03-16T14:52:38Z</time>
      </trkpt>
      <trkpt lat="43.36982" lon="6.15166">
        <ele>453.20001220703</ele>
        <time>2013-03-16T14:52:39Z</time>
      </trkpt>
      <trkpt lat="43.36982" lon="6.1516">
        <ele>452.79998779297</ele>
        <time>2013-03-16T14:52:40Z</time>
      </trkpt>
      <trkpt lat="43.3698" lon="6.15156">
        <ele>452.79998779297</ele>
        <time>2013-03-16T14:52:41Z</time>
      </trkpt>
      <trkpt lat="43.36986" lon="6.15145">
        <ele>452.79998779297</ele>
        <time>2013-03-16T14:52:44Z</time>
      </trkpt>
      <trkpt lat="43.36982" lon="6.15139">
        <ele>452.79998779297</ele>
        <time>2013-03-16T14:52:47Z</time>
      </trkpt>
      <trkpt lat="43.36979" lon="6.15137">
        <ele>452.39999389648</ele>
        <time>2013-03-16T14:52:48Z</time>
      </trkpt>
      <trkpt lat="43.36978" lon="6.15134">
        <ele>451.60000610352</ele>
        <time>2013-03-16T14:52:49Z</time>
      </trkpt>
      <trkpt lat="43.36977" lon="6.15132">
        <ele>451.20001220703</ele>
        <time>2013-03-16T14:52:50Z</time>
      </trkpt>
      <trkpt lat="43.36978" lon="6.15131">
        <ele>450.60000610352</ele>
        <time>2013-03-16T14:52:51Z</time>
      </trkpt>
      <trkpt lat="43.36979" lon="6.15126">
        <ele>450.60000610352</ele>
        <time>2013-03-16T14:52:55Z</time>
      </trkpt>
      <trkpt lat="43.36979" lon="6.15126">
        <ele>450.60000610352</ele>
        <time>2013-03-16T14:53:08Z</time>
      </trkpt>
      <trkpt lat="43.36979" lon="6.15126">
        <ele>450.60000610352</ele>
        <time>2013-03-16T14:53:28Z</time>
      </trkpt>
      <trkpt lat="43.36978" lon="6.15122">
        <ele>450.60000610352</ele>
        <time>2013-03-16T14:53:31Z</time>
      </trkpt>
      <trkpt lat="43.36979" lon="6.15116">
        <ele>450.60000610352</ele>
        <time>2013-03-16T14:53:33Z</time>
      </trkpt>
      <trkpt lat="43.36983" lon="6.15111">
        <ele>450.60000610352</ele>
        <time>2013-03-16T14:53:37Z</time>
      </trkpt>
      <trkpt lat="43.36983" lon="6.15108">
        <ele>450.60000610352</ele>
        <time>2013-03-16T14:53:38Z</time>
      </trkpt>
      <trkpt lat="43.36985" lon="6.15101">
        <ele>450.60000610352</ele>
        <time>2013-03-16T14:53:41Z</time>
      </trkpt>
      <trkpt lat="43.36985" lon="6.15085">
        <ele>450.60000610352</ele>
        <time>2013-03-16T14:53:45Z</time>
      </trkpt>
      <trkpt lat="43.36981" lon="6.15069">
        <ele>450.60000610352</ele>
        <time>2013-03-16T14:53:49Z</time>
      </trkpt>
      <trkpt lat="43.3698" lon="6.15045">
        <ele>450.60000610352</ele>
        <time>2013-03-16T14:53:55Z</time>
      </trkpt>
      <trkpt lat="43.36981" lon="6.15041">
        <ele>450.60000610352</ele>
        <time>2013-03-16T14:53:56Z</time>
      </trkpt>
      <trkpt lat="43.36986" lon="6.15035">
        <ele>450.20001220703</ele>
        <time>2013-03-16T14:53:58Z</time>
      </trkpt>
      <trkpt lat="43.36989" lon="6.15031">
        <ele>449.79998779297</ele>
        <time>2013-03-16T14:53:59Z</time>
      </trkpt>
      <trkpt lat="43.36994" lon="6.15019">
        <ele>449</ele>
        <time>2013-03-16T14:54:01Z</time>
      </trkpt>
      <trkpt lat="43.36995" lon="6.15013">
        <ele>448.20001220703</ele>
        <time>2013-03-16T14:54:02Z</time>
      </trkpt>
      <trkpt lat="43.36996" lon="6.15008">
        <ele>447.60000610352</ele>
        <time>2013-03-16T14:54:03Z</time>
      </trkpt>
      <trkpt lat="43.36998" lon="6.15002">
        <ele>446.20001220703</ele>
        <time>2013-03-16T14:54:04Z</time>
      </trkpt>
      <trkpt lat="43.37002" lon="6.14992">
        <ele>445</ele>
        <time>2013-03-16T14:54:06Z</time>
      </trkpt>
      <trkpt lat="43.37003" lon="6.14988">
        <ele>444.20001220703</ele>
        <time>2013-03-16T14:54:07Z</time>
      </trkpt>
      <trkpt lat="43.37004" lon="6.14978">
        <ele>442.79998779297</ele>
        <time>2013-03-16T14:54:09Z</time>
      </trkpt>
      <trkpt lat="43.37007" lon="6.14973">
        <ele>442.20001220703</ele>
        <time>2013-03-16T14:54:10Z</time>
      </trkpt>
      <trkpt lat="43.37009" lon="6.14971">
        <ele>441.39999389648</ele>
        <time>2013-03-16T14:54:11Z</time>
      </trkpt>
      <trkpt lat="43.37008" lon="6.14964">
        <ele>440</ele>
        <time>2013-03-16T14:54:13Z</time>
      </trkpt>
      <trkpt lat="43.37008" lon="6.14963">
        <ele>439.20001220703</ele>
        <time>2013-03-16T14:54:14Z</time>
      </trkpt>
      <trkpt lat="43.37009" lon="6.14962">
        <ele>438.60000610352</ele>
        <time>2013-03-16T14:54:15Z</time>
      </trkpt>
      <trkpt lat="43.37009" lon="6.14962">
        <ele>438.60000610352</ele>
        <time>2013-03-16T14:54:20Z</time>
      </trkpt>
      <trkpt lat="43.37009" lon="6.14962">
        <ele>438.20001220703</ele>
        <time>2013-03-16T14:54:29Z</time>
      </trkpt>
      <trkpt lat="43.37009" lon="6.14957">
        <ele>437.60000610352</ele>
        <time>2013-03-16T14:54:30Z</time>
      </trkpt>
      <trkpt lat="43.37011" lon="6.14947">
        <ele>436.79998779297</ele>
        <time>2013-03-16T14:54:32Z</time>
      </trkpt>
      <trkpt lat="43.37011" lon="6.14942">
        <ele>436.39999389648</ele>
        <time>2013-03-16T14:54:33Z</time>
      </trkpt>
      <trkpt lat="43.37012" lon="6.14938">
        <ele>436</ele>
        <time>2013-03-16T14:54:34Z</time>
      </trkpt>
      <trkpt lat="43.37015" lon="6.14934">
        <ele>435.60000610352</ele>
        <time>2013-03-16T14:54:35Z</time>
      </trkpt>
      <trkpt lat="43.37017" lon="6.14928">
        <ele>434.60000610352</ele>
        <time>2013-03-16T14:54:37Z</time>
      </trkpt>
      <trkpt lat="43.37017" lon="6.14924">
        <ele>434.20001220703</ele>
        <time>2013-03-16T14:54:38Z</time>
      </trkpt>
      <trkpt lat="43.3702" lon="6.14921">
        <ele>433.60000610352</ele>
        <time>2013-03-16T14:54:39Z</time>
      </trkpt>
      <trkpt lat="43.3702" lon="6.14919">
        <ele>433.20001220703</ele>
        <time>2013-03-16T14:54:40Z</time>
      </trkpt>
      <trkpt lat="43.37021" lon="6.14916">
        <ele>432.79998779297</ele>
        <time>2013-03-16T14:54:41Z</time>
      </trkpt>
      <trkpt lat="43.37022" lon="6.14912">
        <ele>432.39999389648</ele>
        <time>2013-03-16T14:54:42Z</time>
      </trkpt>
      <trkpt lat="43.37022" lon="6.14911">
        <ele>431.79998779297</ele>
        <time>2013-03-16T14:54:43Z</time>
      </trkpt>
      <trkpt lat="43.37022" lon="6.14909">
        <ele>431.20001220703</ele>
        <time>2013-03-16T14:54:44Z</time>
      </trkpt>
      <trkpt lat="43.37024" lon="6.14905">
        <ele>430.79998779297</ele>
        <time>2013-03-16T14:54:45Z</time>
      </trkpt>
      <trkpt lat="43.37025" lon="6.14901">
        <ele>430.20001220703</ele>
        <time>2013-03-16T14:54:46Z</time>
      </trkpt>
      <trkpt lat="43.37025" lon="6.14897">
        <ele>429.79998779297</ele>
        <time>2013-03-16T14:54:47Z</time>
      </trkpt>
      <trkpt lat="43.37025" lon="6.14891">
        <ele>429.20001220703</ele>
        <time>2013-03-16T14:54:49Z</time>
      </trkpt>
      <trkpt lat="43.37024" lon="6.14884">
        <ele>428.20001220703</ele>
        <time>2013-03-16T14:54:51Z</time>
      </trkpt>
      <trkpt lat="43.37026" lon="6.14873">
        <ele>426</ele>
        <time>2013-03-16T14:54:54Z</time>
      </trkpt>
      <trkpt lat="43.37027" lon="6.14868">
        <ele>425.39999389648</ele>
        <time>2013-03-16T14:54:55Z</time>
      </trkpt>
      <trkpt lat="43.37029" lon="6.14863">
        <ele>424.79998779297</ele>
        <time>2013-03-16T14:54:56Z</time>
      </trkpt>
      <trkpt lat="43.37028" lon="6.1486">
        <ele>424.20001220703</ele>
        <time>2013-03-16T14:54:57Z</time>
      </trkpt>
      <trkpt lat="43.37027" lon="6.14857">
        <ele>423.60000610352</ele>
        <time>2013-03-16T14:54:58Z</time>
      </trkpt>
      <trkpt lat="43.37028" lon="6.14854">
        <ele>423</ele>
        <time>2013-03-16T14:54:59Z</time>
      </trkpt>
      <trkpt lat="43.37027" lon="6.14853">
        <ele>422.20001220703</ele>
        <time>2013-03-16T14:55:00Z</time>
      </trkpt>
      <trkpt lat="43.37027" lon="6.14851">
        <ele>421.60000610352</ele>
        <time>2013-03-16T14:55:01Z</time>
      </trkpt>
      <trkpt lat="43.37027" lon="6.1485">
        <ele>420.79998779297</ele>
        <time>2013-03-16T14:55:02Z</time>
      </trkpt>
      <trkpt lat="43.37027" lon="6.14849">
        <ele>420.20001220703</ele>
        <time>2013-03-16T14:55:03Z</time>
      </trkpt>
      <trkpt lat="43.37027" lon="6.14849">
        <ele>419.20001220703</ele>
        <time>2013-03-16T14:55:05Z</time>
      </trkpt>
      <trkpt lat="43.37026" lon="6.14849">
        <ele>418.60000610352</ele>
        <time>2013-03-16T14:55:06Z</time>
      </trkpt>
      <trkpt lat="43.37025" lon="6.14849">
        <ele>418</ele>
        <time>2013-03-16T14:55:07Z</time>
      </trkpt>
      <trkpt lat="43.37025" lon="6.14849">
        <ele>418</ele>
        <time>2013-03-16T14:55:14Z</time>
      </trkpt>
      <trkpt lat="43.37025" lon="6.14849">
        <ele>418</ele>
        <time>2013-03-16T14:55:23Z</time>
      </trkpt>
      <trkpt lat="43.37025" lon="6.14849">
        <ele>418</ele>
        <time>2013-03-16T14:55:47Z</time>
      </trkpt>
      <trkpt lat="43.37028" lon="6.14843">
        <ele>418</ele>
        <time>2013-03-16T14:55:51Z</time>
      </trkpt>
      <trkpt lat="43.37028" lon="6.1484">
        <ele>418</ele>
        <time>2013-03-16T14:55:52Z</time>
      </trkpt>
      <trkpt lat="43.37029" lon="6.14836">
        <ele>417.60000610352</ele>
        <time>2013-03-16T14:55:53Z</time>
      </trkpt>
      <trkpt lat="43.3703" lon="6.14831">
        <ele>417</ele>
        <time>2013-03-16T14:55:54Z</time>
      </trkpt>
      <trkpt lat="43.37031" lon="6.14828">
        <ele>416.39999389648</ele>
        <time>2013-03-16T14:55:55Z</time>
      </trkpt>
      <trkpt lat="43.37033" lon="6.14823">
        <ele>416</ele>
        <time>2013-03-16T14:55:56Z</time>
      </trkpt>
      <trkpt lat="43.37037" lon="6.14814">
        <ele>415</ele>
        <time>2013-03-16T14:55:58Z</time>
      </trkpt>
      <trkpt lat="43.37037" lon="6.1481">
        <ele>414.60000610352</ele>
        <time>2013-03-16T14:55:59Z</time>
      </trkpt>
      <trkpt lat="43.37038" lon="6.14804">
        <ele>413.79998779297</ele>
        <time>2013-03-16T14:56:01Z</time>
      </trkpt>
      <trkpt lat="43.37038" lon="6.148">
        <ele>413.39999389648</ele>
        <time>2013-03-16T14:56:02Z</time>
      </trkpt>
      <trkpt lat="43.3704" lon="6.14785">
        <ele>411.39999389648</ele>
        <time>2013-03-16T14:56:06Z</time>
      </trkpt>
      <trkpt lat="43.37042" lon="6.14777">
        <ele>410.60000610352</ele>
        <time>2013-03-16T14:56:08Z</time>
      </trkpt>
      <trkpt lat="43.37042" lon="6.14773">
        <ele>410.20001220703</ele>
        <time>2013-03-16T14:56:09Z</time>
      </trkpt>
      <trkpt lat="43.37043" lon="6.14768">
        <ele>409.79998779297</ele>
        <time>2013-03-16T14:56:10Z</time>
      </trkpt>
      <trkpt lat="43.37046" lon="6.1476">
        <ele>409</ele>
        <time>2013-03-16T14:56:12Z</time>
      </trkpt>
      <trkpt lat="43.37049" lon="6.14749">
        <ele>408</ele>
        <time>2013-03-16T14:56:14Z</time>
      </trkpt>
      <trkpt lat="43.3705" lon="6.14744">
        <ele>407.60000610352</ele>
        <time>2013-03-16T14:56:15Z</time>
      </trkpt>
      <trkpt lat="43.37049" lon="6.14735">
        <ele>406.60000610352</ele>
        <time>2013-03-16T14:56:17Z</time>
      </trkpt>
      <trkpt lat="43.3705" lon="6.1473">
        <ele>406.20001220703</ele>
        <time>2013-03-16T14:56:18Z</time>
      </trkpt>
      <trkpt lat="43.3705" lon="6.14725">
        <ele>405.79998779297</ele>
        <time>2013-03-16T14:56:19Z</time>
      </trkpt>
      <trkpt lat="43.3705" lon="6.14718">
        <ele>405.39999389648</ele>
        <time>2013-03-16T14:56:20Z</time>
      </trkpt>
      <trkpt lat="43.37051" lon="6.14713">
        <ele>405</ele>
        <time>2013-03-16T14:56:21Z</time>
      </trkpt>
      <trkpt lat="43.37053" lon="6.14708">
        <ele>405</ele>
        <time>2013-03-16T14:56:22Z</time>
      </trkpt>
      <trkpt lat="43.37056" lon="6.14703">
        <ele>404.60000610352</ele>
        <time>2013-03-16T14:56:23Z</time>
      </trkpt>
      <trkpt lat="43.37057" lon="6.14699">
        <ele>404.20001220703</ele>
        <time>2013-03-16T14:56:24Z</time>
      </trkpt>
      <trkpt lat="43.37056" lon="6.14679">
        <ele>402.79998779297</ele>
        <time>2013-03-16T14:56:27Z</time>
      </trkpt>
      <trkpt lat="43.37054" lon="6.14672">
        <ele>402.79998779297</ele>
        <time>2013-03-16T14:56:28Z</time>
      </trkpt>
      <trkpt lat="43.37056" lon="6.14662">
        <ele>402</ele>
        <time>2013-03-16T14:56:30Z</time>
      </trkpt>
      <trkpt lat="43.37053" lon="6.14653">
        <ele>400.79998779297</ele>
        <time>2013-03-16T14:56:32Z</time>
      </trkpt>
      <trkpt lat="43.3705" lon="6.1463">
        <ele>399.79998779297</ele>
        <time>2013-03-16T14:56:37Z</time>
      </trkpt>
      <trkpt lat="43.37045" lon="6.14605">
        <ele>398.60000610352</ele>
        <time>2013-03-16T14:56:41Z</time>
      </trkpt>
      <trkpt lat="43.37049" lon="6.14584">
        <ele>398</ele>
        <time>2013-03-16T14:56:44Z</time>
      </trkpt>
      <trkpt lat="43.37049" lon="6.14578">
        <ele>397.60000610352</ele>
        <time>2013-03-16T14:56:45Z</time>
      </trkpt>
      <trkpt lat="43.37052" lon="6.14566">
        <ele>396.60000610352</ele>
        <time>2013-03-16T14:56:47Z</time>
      </trkpt>
      <trkpt lat="43.37054" lon="6.14559">
        <ele>396</ele>
        <time>2013-03-16T14:56:48Z</time>
      </trkpt>
      <trkpt lat="43.37062" lon="6.14546">
        <ele>396</ele>
        <time>2013-03-16T14:56:51Z</time>
      </trkpt>
      <trkpt lat="43.37066" lon="6.14527">
        <ele>395.60000610352</ele>
        <time>2013-03-16T14:56:54Z</time>
      </trkpt>
      <trkpt lat="43.37067" lon="6.14521">
        <ele>395.20001220703</ele>
        <time>2013-03-16T14:56:55Z</time>
      </trkpt>
      <trkpt lat="43.37068" lon="6.14508">
        <ele>394</ele>
        <time>2013-03-16T14:56:57Z</time>
      </trkpt>
      <trkpt lat="43.37067" lon="6.14498">
        <ele>394</ele>
        <time>2013-03-16T14:56:59Z</time>
      </trkpt>
      <trkpt lat="43.37063" lon="6.14494">
        <ele>394</ele>
        <time>2013-03-16T14:57:00Z</time>
      </trkpt>
      <trkpt lat="43.37061" lon="6.14488">
        <ele>393.39999389648</ele>
        <time>2013-03-16T14:57:01Z</time>
      </trkpt>
      <trkpt lat="43.37059" lon="6.14476">
        <ele>392.60000610352</ele>
        <time>2013-03-16T14:57:03Z</time>
      </trkpt>
      <trkpt lat="43.37061" lon="6.14464">
        <ele>391.60000610352</ele>
        <time>2013-03-16T14:57:05Z</time>
      </trkpt>
      <trkpt lat="43.37061" lon="6.14443">
        <ele>390.79998779297</ele>
        <time>2013-03-16T14:57:08Z</time>
      </trkpt>
      <trkpt lat="43.37061" lon="6.14435">
        <ele>390.20001220703</ele>
        <time>2013-03-16T14:57:09Z</time>
      </trkpt>
      <trkpt lat="43.37062" lon="6.14428">
        <ele>389.79998779297</ele>
        <time>2013-03-16T14:57:10Z</time>
      </trkpt>
      <trkpt lat="43.37062" lon="6.14423">
        <ele>389.20001220703</ele>
        <time>2013-03-16T14:57:11Z</time>
      </trkpt>
      <trkpt lat="43.37062" lon="6.14419">
        <ele>388.79998779297</ele>
        <time>2013-03-16T14:57:12Z</time>
      </trkpt>
      <trkpt lat="43.37064" lon="6.14413">
        <ele>388.39999389648</ele>
        <time>2013-03-16T14:57:13Z</time>
      </trkpt>
      <trkpt lat="43.37065" lon="6.14408">
        <ele>388</ele>
        <time>2013-03-16T14:57:14Z</time>
      </trkpt>
      <trkpt lat="43.37067" lon="6.14404">
        <ele>387.60000610352</ele>
        <time>2013-03-16T14:57:15Z</time>
      </trkpt>
      <trkpt lat="43.3707" lon="6.14403">
        <ele>387.20001220703</ele>
        <time>2013-03-16T14:57:16Z</time>
      </trkpt>
      <trkpt lat="43.37074" lon="6.14398">
        <ele>387.20001220703</ele>
        <time>2013-03-16T14:57:18Z</time>
      </trkpt>
      <trkpt lat="43.37074" lon="6.14398">
        <ele>387.20001220703</ele>
        <time>2013-03-16T14:57:19Z</time>
      </trkpt>
      <trkpt lat="43.37074" lon="6.14398">
        <ele>387.20001220703</ele>
        <time>2013-03-16T14:57:21Z</time>
      </trkpt>
      <trkpt lat="43.37074" lon="6.14398">
        <ele>387.20001220703</ele>
        <time>2013-03-16T14:57:43Z</time>
      </trkpt>
      <trkpt lat="43.37074" lon="6.14398">
        <ele>385.20001220703</ele>
        <time>2013-03-16T14:57:52Z</time>
      </trkpt>
      <trkpt lat="43.3708" lon="6.14396">
        <ele>385.20001220703</ele>
        <time>2013-03-16T14:58:03Z</time>
      </trkpt>
      <trkpt lat="43.37085" lon="6.14394">
        <ele>385.20001220703</ele>
        <time>2013-03-16T14:58:05Z</time>
      </trkpt>
      <trkpt lat="43.37087" lon="6.14385">
        <ele>385.20001220703</ele>
        <time>2013-03-16T14:58:07Z</time>
      </trkpt>
      <trkpt lat="43.37084" lon="6.1438">
        <ele>385.20001220703</ele>
        <time>2013-03-16T14:58:09Z</time>
      </trkpt>
      <trkpt lat="43.37085" lon="6.14376">
        <ele>384.79998779297</ele>
        <time>2013-03-16T14:58:10Z</time>
      </trkpt>
      <trkpt lat="43.37083" lon="6.14371">
        <ele>383.79998779297</ele>
        <time>2013-03-16T14:58:11Z</time>
      </trkpt>
      <trkpt lat="43.37084" lon="6.14364">
        <ele>383.39999389648</ele>
        <time>2013-03-16T14:58:12Z</time>
      </trkpt>
      <trkpt lat="43.37083" lon="6.14356">
        <ele>383</ele>
        <time>2013-03-16T14:58:13Z</time>
      </trkpt>
      <trkpt lat="43.37085" lon="6.14349">
        <ele>382.39999389648</ele>
        <time>2013-03-16T14:58:14Z</time>
      </trkpt>
      <trkpt lat="43.37086" lon="6.14342">
        <ele>382</ele>
        <time>2013-03-16T14:58:15Z</time>
      </trkpt>
      <trkpt lat="43.37085" lon="6.1434">
        <ele>381.60000610352</ele>
        <time>2013-03-16T14:58:16Z</time>
      </trkpt>
      <trkpt lat="43.37085" lon="6.14339">
        <ele>381</ele>
        <time>2013-03-16T14:58:17Z</time>
      </trkpt>
      <trkpt lat="43.37085" lon="6.14339">
        <ele>380.60000610352</ele>
        <time>2013-03-16T14:58:18Z</time>
      </trkpt>
      <trkpt lat="43.37085" lon="6.14339">
        <ele>380.60000610352</ele>
        <time>2013-03-16T14:58:41Z</time>
      </trkpt>
      <trkpt lat="43.37085" lon="6.14339">
        <ele>378.60000610352</ele>
        <time>2013-03-16T14:59:03Z</time>
      </trkpt>
      <trkpt lat="43.37085" lon="6.14339">
        <ele>378.60000610352</ele>
        <time>2013-03-16T14:59:13Z</time>
      </trkpt>
      <trkpt lat="43.37085" lon="6.14338">
        <ele>378.60000610352</ele>
        <time>2013-03-16T14:59:18Z</time>
      </trkpt>
      <trkpt lat="43.37085" lon="6.14338">
        <ele>378.60000610352</ele>
        <time>2013-03-16T14:59:21Z</time>
      </trkpt>
      <trkpt lat="43.37085" lon="6.14338">
        <ele>378.60000610352</ele>
        <time>2013-03-16T14:59:47Z</time>
      </trkpt>
      <trkpt lat="43.37085" lon="6.14337">
        <ele>378.60000610352</ele>
        <time>2013-03-16T15:00:31Z</time>
      </trkpt>
      <trkpt lat="43.37085" lon="6.14337">
        <ele>378.60000610352</ele>
        <time>2013-03-16T15:00:38Z</time>
      </trkpt>
      <trkpt lat="43.37085" lon="6.14338">
        <ele>378.60000610352</ele>
        <time>2013-03-16T15:00:39Z</time>
      </trkpt>
      <trkpt lat="43.37085" lon="6.14338">
        <ele>378.60000610352</ele>
        <time>2013-03-16T15:00:53Z</time>
      </trkpt>
      <trkpt lat="43.37085" lon="6.14338">
        <ele>378.60000610352</ele>
        <time>2013-03-16T15:00:58Z</time>
      </trkpt>
      <trkpt lat="43.37085" lon="6.14338">
        <ele>378.60000610352</ele>
        <time>2013-03-16T15:01:13Z</time>
      </trkpt>
      <trkpt lat="43.37085" lon="6.14338">
        <ele>378.60000610352</ele>
        <time>2013-03-16T15:01:37Z</time>
      </trkpt>
      <trkpt lat="43.37085" lon="6.14338">
        <ele>378.60000610352</ele>
        <time>2013-03-16T15:01:43Z</time>
      </trkpt>
      <trkpt lat="43.37085" lon="6.14336">
        <ele>378.60000610352</ele>
        <time>2013-03-16T15:01:50Z</time>
      </trkpt>
      <trkpt lat="43.37086" lon="6.14323">
        <ele>378.60000610352</ele>
        <time>2013-03-16T15:01:54Z</time>
      </trkpt>
      <trkpt lat="43.37086" lon="6.14319">
        <ele>378.60000610352</ele>
        <time>2013-03-16T15:01:55Z</time>
      </trkpt>
      <trkpt lat="43.3708" lon="6.14303">
        <ele>378.60000610352</ele>
        <time>2013-03-16T15:01:59Z</time>
      </trkpt>
      <trkpt lat="43.37069" lon="6.1427">
        <ele>378.60000610352</ele>
        <time>2013-03-16T15:02:06Z</time>
      </trkpt>
      <trkpt lat="43.37066" lon="6.14249">
        <ele>378.60000610352</ele>
        <time>2013-03-16T15:02:11Z</time>
      </trkpt>
      <trkpt lat="43.37062" lon="6.14224">
        <ele>376.39999389648</ele>
        <time>2013-03-16T15:02:17Z</time>
      </trkpt>
      <trkpt lat="43.37054" lon="6.14203">
        <ele>376.39999389648</ele>
        <time>2013-03-16T15:02:23Z</time>
      </trkpt>
      <trkpt lat="43.37046" lon="6.14187">
        <ele>376.39999389648</ele>
        <time>2013-03-16T15:02:29Z</time>
      </trkpt>
      <trkpt lat="43.37035" lon="6.14167">
        <ele>376</ele>
        <time>2013-03-16T15:02:35Z</time>
      </trkpt>
      <trkpt lat="43.37033" lon="6.14163">
        <ele>375.60000610352</ele>
        <time>2013-03-16T15:02:36Z</time>
      </trkpt>
      <trkpt lat="43.37027" lon="6.14146">
        <ele>374.39999389648</ele>
        <time>2013-03-16T15:02:39Z</time>
      </trkpt>
      <trkpt lat="43.37025" lon="6.14141">
        <ele>374.39999389648</ele>
        <time>2013-03-16T15:02:40Z</time>
      </trkpt>
      <trkpt lat="43.37023" lon="6.14136">
        <ele>374.39999389648</ele>
        <time>2013-03-16T15:02:41Z</time>
      </trkpt>
      <trkpt lat="43.37014" lon="6.14122">
        <ele>374</ele>
        <time>2013-03-16T15:02:44Z</time>
      </trkpt>
      <trkpt lat="43.37011" lon="6.14117">
        <ele>373.60000610352</ele>
        <time>2013-03-16T15:02:45Z</time>
      </trkpt>
      <trkpt lat="43.37007" lon="6.14113">
        <ele>373.20001220703</ele>
        <time>2013-03-16T15:02:46Z</time>
      </trkpt>
      <trkpt lat="43.37003" lon="6.14109">
        <ele>372.79998779297</ele>
        <time>2013-03-16T15:02:47Z</time>
      </trkpt>
      <trkpt lat="43.37" lon="6.14105">
        <ele>372.39999389648</ele>
        <time>2013-03-16T15:02:48Z</time>
      </trkpt>
      <trkpt lat="43.36994" lon="6.141">
        <ele>372.39999389648</ele>
        <time>2013-03-16T15:02:50Z</time>
      </trkpt>
      <trkpt lat="43.3698" lon="6.14094">
        <ele>372.39999389648</ele>
        <time>2013-03-16T15:02:57Z</time>
      </trkpt>
      <trkpt lat="43.36973" lon="6.14095">
        <ele>372.39999389648</ele>
        <time>2013-03-16T15:03:01Z</time>
      </trkpt>
      <trkpt lat="43.3696" lon="6.141">
        <ele>372.39999389648</ele>
        <time>2013-03-16T15:03:07Z</time>
      </trkpt>
      <trkpt lat="43.36952" lon="6.14104">
        <ele>372.39999389648</ele>
        <time>2013-03-16T15:03:11Z</time>
      </trkpt>
      <trkpt lat="43.3695" lon="6.14105">
        <ele>372.39999389648</ele>
        <time>2013-03-16T15:03:13Z</time>
      </trkpt>
      <trkpt lat="43.3694" lon="6.14113">
        <ele>372.39999389648</ele>
        <time>2013-03-16T15:03:19Z</time>
      </trkpt>
      <trkpt lat="43.36934" lon="6.14114">
        <ele>372.39999389648</ele>
        <time>2013-03-16T15:03:23Z</time>
      </trkpt>
      <trkpt lat="43.36926" lon="6.14109">
        <ele>372.39999389648</ele>
        <time>2013-03-16T15:03:28Z</time>
      </trkpt>
      <trkpt lat="43.36919" lon="6.14107">
        <ele>372.79998779297</ele>
        <time>2013-03-16T15:03:32Z</time>
      </trkpt>
      <trkpt lat="43.36913" lon="6.14109">
        <ele>374.60000610352</ele>
        <time>2013-03-16T15:03:36Z</time>
      </trkpt>
      <trkpt lat="43.36907" lon="6.14112">
        <ele>374.60000610352</ele>
        <time>2013-03-16T15:03:39Z</time>
      </trkpt>
      <trkpt lat="43.36901" lon="6.14118">
        <ele>374.60000610352</ele>
        <time>2013-03-16T15:03:43Z</time>
      </trkpt>
      <trkpt lat="43.36899" lon="6.14119">
        <ele>374.60000610352</ele>
        <time>2013-03-16T15:03:44Z</time>
      </trkpt>
      <trkpt lat="43.36898" lon="6.14119">
        <ele>374.60000610352</ele>
        <time>2013-03-16T15:03:48Z</time>
      </trkpt>
      <trkpt lat="43.36898" lon="6.14119">
        <ele>374.60000610352</ele>
        <time>2013-03-16T15:04:11Z</time>
      </trkpt>
      <trkpt lat="43.36898" lon="6.14119">
        <ele>374.60000610352</ele>
        <time>2013-03-16T15:04:23Z</time>
      </trkpt>
      <trkpt lat="43.36897" lon="6.1412">
        <ele>374.60000610352</ele>
        <time>2013-03-16T15:04:26Z</time>
      </trkpt>
      <trkpt lat="43.36897" lon="6.1412">
        <ele>374.60000610352</ele>
        <time>2013-03-16T15:04:43Z</time>
      </trkpt>
      <trkpt lat="43.36897" lon="6.1412">
        <ele>374.60000610352</ele>
        <time>2013-03-16T15:04:52Z</time>
      </trkpt>
      <trkpt lat="43.36894" lon="6.14119">
        <ele>374.60000610352</ele>
        <time>2013-03-16T15:05:01Z</time>
      </trkpt>
      <trkpt lat="43.36888" lon="6.14112">
        <ele>374.20001220703</ele>
        <time>2013-03-16T15:05:04Z</time>
      </trkpt>
      <trkpt lat="43.36886" lon="6.14108">
        <ele>373.79998779297</ele>
        <time>2013-03-16T15:05:05Z</time>
      </trkpt>
      <trkpt lat="43.36882" lon="6.14097">
        <ele>372.79998779297</ele>
        <time>2013-03-16T15:05:07Z</time>
      </trkpt>
      <trkpt lat="43.36881" lon="6.14091">
        <ele>372.39999389648</ele>
        <time>2013-03-16T15:05:08Z</time>
      </trkpt>
      <trkpt lat="43.36878" lon="6.14079">
        <ele>372.39999389648</ele>
        <time>2013-03-16T15:05:10Z</time>
      </trkpt>
      <trkpt lat="43.36876" lon="6.14072">
        <ele>372</ele>
        <time>2013-03-16T15:05:11Z</time>
      </trkpt>
      <trkpt lat="43.36875" lon="6.14065">
        <ele>371.60000610352</ele>
        <time>2013-03-16T15:05:12Z</time>
      </trkpt>
      <trkpt lat="43.36874" lon="6.14058">
        <ele>371.20001220703</ele>
        <time>2013-03-16T15:05:13Z</time>
      </trkpt>
      <trkpt lat="43.36872" lon="6.14051">
        <ele>370.79998779297</ele>
        <time>2013-03-16T15:05:14Z</time>
      </trkpt>
      <trkpt lat="43.3687" lon="6.14045">
        <ele>370.20001220703</ele>
        <time>2013-03-16T15:05:15Z</time>
      </trkpt>
      <trkpt lat="43.36866" lon="6.14039">
        <ele>369.60000610352</ele>
        <time>2013-03-16T15:05:16Z</time>
      </trkpt>
      <trkpt lat="43.36864" lon="6.14032">
        <ele>369</ele>
        <time>2013-03-16T15:05:17Z</time>
      </trkpt>
      <trkpt lat="43.36862" lon="6.14007">
        <ele>367.20001220703</ele>
        <time>2013-03-16T15:05:20Z</time>
      </trkpt>
      <trkpt lat="43.36862" lon="6.13998">
        <ele>366.39999389648</ele>
        <time>2013-03-16T15:05:21Z</time>
      </trkpt>
      <trkpt lat="43.36862" lon="6.13992">
        <ele>365.79998779297</ele>
        <time>2013-03-16T15:05:22Z</time>
      </trkpt>
      <trkpt lat="43.36861" lon="6.13987">
        <ele>365</ele>
        <time>2013-03-16T15:05:23Z</time>
      </trkpt>
      <trkpt lat="43.36856" lon="6.13979">
        <ele>363.39999389648</ele>
        <time>2013-03-16T15:05:25Z</time>
      </trkpt>
      <trkpt lat="43.36853" lon="6.13976">
        <ele>362.79998779297</ele>
        <time>2013-03-16T15:05:26Z</time>
      </trkpt>
      <trkpt lat="43.36845" lon="6.13966">
        <ele>362.39999389648</ele>
        <time>2013-03-16T15:05:29Z</time>
      </trkpt>
      <trkpt lat="43.36842" lon="6.13963">
        <ele>361.79998779297</ele>
        <time>2013-03-16T15:05:30Z</time>
      </trkpt>
      <trkpt lat="43.36839" lon="6.1396">
        <ele>361.39999389648</ele>
        <time>2013-03-16T15:05:31Z</time>
      </trkpt>
      <trkpt lat="43.36837" lon="6.13958">
        <ele>361</ele>
        <time>2013-03-16T15:05:32Z</time>
      </trkpt>
      <trkpt lat="43.36836" lon="6.13956">
        <ele>360.60000610352</ele>
        <time>2013-03-16T15:05:33Z</time>
      </trkpt>
      <trkpt lat="43.36831" lon="6.13955">
        <ele>360.60000610352</ele>
        <time>2013-03-16T15:05:36Z</time>
      </trkpt>
      <trkpt lat="43.36829" lon="6.13956">
        <ele>360.60000610352</ele>
        <time>2013-03-16T15:05:37Z</time>
      </trkpt>
      <trkpt lat="43.36825" lon="6.1396">
        <ele>360.60000610352</ele>
        <time>2013-03-16T15:05:40Z</time>
      </trkpt>
      <trkpt lat="43.36825" lon="6.13962">
        <ele>360.60000610352</ele>
        <time>2013-03-16T15:05:41Z</time>
      </trkpt>
      <trkpt lat="43.36824" lon="6.13966">
        <ele>360.60000610352</ele>
        <time>2013-03-16T15:05:43Z</time>
      </trkpt>
      <trkpt lat="43.36824" lon="6.1397">
        <ele>360.60000610352</ele>
        <time>2013-03-16T15:05:45Z</time>
      </trkpt>
      <trkpt lat="43.36823" lon="6.13974">
        <ele>360.60000610352</ele>
        <time>2013-03-16T15:05:47Z</time>
      </trkpt>
      <trkpt lat="43.36819" lon="6.13978">
        <ele>361</ele>
        <time>2013-03-16T15:05:50Z</time>
      </trkpt>
      <trkpt lat="43.36806" lon="6.13984">
        <ele>362.60000610352</ele>
        <time>2013-03-16T15:05:57Z</time>
      </trkpt>
      <trkpt lat="43.36802" lon="6.13986">
        <ele>362.60000610352</ele>
        <time>2013-03-16T15:05:59Z</time>
      </trkpt>
      <trkpt lat="43.36797" lon="6.13989">
        <ele>363.79998779297</ele>
        <time>2013-03-16T15:06:02Z</time>
      </trkpt>
      <trkpt lat="43.3679" lon="6.13994">
        <ele>364.79998779297</ele>
        <time>2013-03-16T15:06:06Z</time>
      </trkpt>
      <trkpt lat="43.36781" lon="6.13999">
        <ele>364.79998779297</ele>
        <time>2013-03-16T15:06:12Z</time>
      </trkpt>
      <trkpt lat="43.36775" lon="6.14006">
        <ele>364.79998779297</ele>
        <time>2013-03-16T15:06:16Z</time>
      </trkpt>
      <trkpt lat="43.36772" lon="6.1401">
        <ele>364.79998779297</ele>
        <time>2013-03-16T15:06:18Z</time>
      </trkpt>
      <trkpt lat="43.36769" lon="6.14012">
        <ele>365.20001220703</ele>
        <time>2013-03-16T15:06:20Z</time>
      </trkpt>
      <trkpt lat="43.36766" lon="6.14013">
        <ele>366.20001220703</ele>
        <time>2013-03-16T15:06:22Z</time>
      </trkpt>
      <trkpt lat="43.36766" lon="6.14013">
        <ele>367</ele>
        <time>2013-03-16T15:06:23Z</time>
      </trkpt>
      <trkpt lat="43.36763" lon="6.14015">
        <ele>367</ele>
        <time>2013-03-16T15:06:28Z</time>
      </trkpt>
      <trkpt lat="43.36763" lon="6.14015">
        <ele>367</ele>
        <time>2013-03-16T15:06:37Z</time>
      </trkpt>
      <trkpt lat="43.36763" lon="6.14015">
        <ele>367</ele>
        <time>2013-03-16T15:06:41Z</time>
      </trkpt>
      <trkpt lat="43.36763" lon="6.14014">
        <ele>367</ele>
        <time>2013-03-16T15:06:47Z</time>
      </trkpt>
      <trkpt lat="43.36763" lon="6.14013">
        <ele>367</ele>
        <time>2013-03-16T15:06:48Z</time>
      </trkpt>
      <trkpt lat="43.36765" lon="6.14012">
        <ele>367</ele>
        <time>2013-03-16T15:06:51Z</time>
      </trkpt>
      <trkpt lat="43.36768" lon="6.14012">
        <ele>367</ele>
        <time>2013-03-16T15:06:53Z</time>
      </trkpt>
      <trkpt lat="43.36776" lon="6.14006">
        <ele>367</ele>
        <time>2013-03-16T15:06:56Z</time>
      </trkpt>
      <trkpt lat="43.3679" lon="6.13993">
        <ele>367</ele>
        <time>2013-03-16T15:06:59Z</time>
      </trkpt>
      <trkpt lat="43.36795" lon="6.1399">
        <ele>367</ele>
        <time>2013-03-16T15:07:00Z</time>
      </trkpt>
      <trkpt lat="43.36801" lon="6.13987">
        <ele>366.60000610352</ele>
        <time>2013-03-16T15:07:01Z</time>
      </trkpt>
      <trkpt lat="43.36806" lon="6.13984">
        <ele>366</ele>
        <time>2013-03-16T15:07:02Z</time>
      </trkpt>
      <trkpt lat="43.36811" lon="6.13982">
        <ele>365.60000610352</ele>
        <time>2013-03-16T15:07:03Z</time>
      </trkpt>
      <trkpt lat="43.36816" lon="6.1398">
        <ele>365.20001220703</ele>
        <time>2013-03-16T15:07:04Z</time>
      </trkpt>
      <trkpt lat="43.3682" lon="6.13978">
        <ele>364.60000610352</ele>
        <time>2013-03-16T15:07:05Z</time>
      </trkpt>
      <trkpt lat="43.36824" lon="6.13974">
        <ele>364.60000610352</ele>
        <time>2013-03-16T15:07:06Z</time>
      </trkpt>
      <trkpt lat="43.36827" lon="6.13963">
        <ele>363.79998779297</ele>
        <time>2013-03-16T15:07:08Z</time>
      </trkpt>
      <trkpt lat="43.36829" lon="6.13958">
        <ele>363.39999389648</ele>
        <time>2013-03-16T15:07:09Z</time>
      </trkpt>
      <trkpt lat="43.36831" lon="6.13955">
        <ele>362.79998779297</ele>
        <time>2013-03-16T15:07:10Z</time>
      </trkpt>
      <trkpt lat="43.36836" lon="6.13955">
        <ele>362</ele>
        <time>2013-03-16T15:07:12Z</time>
      </trkpt>
      <trkpt lat="43.36838" lon="6.13958">
        <ele>361</ele>
        <time>2013-03-16T15:07:13Z</time>
      </trkpt>
      <trkpt lat="43.3684" lon="6.13961">
        <ele>360.60000610352</ele>
        <time>2013-03-16T15:07:14Z</time>
      </trkpt>
      <trkpt lat="43.36842" lon="6.13964">
        <ele>360</ele>
        <time>2013-03-16T15:07:15Z</time>
      </trkpt>
      <trkpt lat="43.36845" lon="6.13969">
        <ele>360</ele>
        <time>2013-03-16T15:07:17Z</time>
      </trkpt>
      <trkpt lat="43.36852" lon="6.13975">
        <ele>360</ele>
        <time>2013-03-16T15:07:21Z</time>
      </trkpt>
      <trkpt lat="43.36853" lon="6.13976">
        <ele>360</ele>
        <time>2013-03-16T15:07:22Z</time>
      </trkpt>
      <trkpt lat="43.36853" lon="6.13976">
        <ele>360</ele>
        <time>2013-03-16T15:07:25Z</time>
      </trkpt>
      <trkpt lat="43.36853" lon="6.13976">
        <ele>360</ele>
        <time>2013-03-16T15:07:52Z</time>
      </trkpt>
      <trkpt lat="43.36853" lon="6.13976">
        <ele>360</ele>
        <time>2013-03-16T15:08:57Z</time>
      </trkpt>
      <trkpt lat="43.36853" lon="6.13976">
        <ele>360</ele>
        <time>2013-03-16T15:09:21Z</time>
      </trkpt>
      <trkpt lat="43.36853" lon="6.13976">
        <ele>360</ele>
        <time>2013-03-16T15:09:48Z</time>
      </trkpt>
      <trkpt lat="43.36853" lon="6.13976">
        <ele>360</ele>
        <time>2013-03-16T15:10:31Z</time>
      </trkpt>
      <trkpt lat="43.36853" lon="6.13976">
        <ele>360</ele>
        <time>2013-03-16T15:10:38Z</time>
      </trkpt>
      <trkpt lat="43.36853" lon="6.13976">
        <ele>360</ele>
        <time>2013-03-16T15:10:45Z</time>
      </trkpt>
      <trkpt lat="43.36853" lon="6.13976">
        <ele>360</ele>
        <time>2013-03-16T15:11:14Z</time>
      </trkpt>
      <trkpt lat="43.36853" lon="6.13976">
        <ele>360</ele>
        <time>2013-03-16T15:12:09Z</time>
      </trkpt>
      <trkpt lat="43.36853" lon="6.13976">
        <ele>360</ele>
        <time>2013-03-16T15:12:28Z</time>
      </trkpt>
      <trkpt lat="43.36853" lon="6.13976">
        <ele>360</ele>
        <time>2013-03-16T15:12:59Z</time>
      </trkpt>
      <trkpt lat="43.36853" lon="6.13976">
        <ele>360</ele>
        <time>2013-03-16T15:13:24Z</time>
      </trkpt>
      <trkpt lat="43.36853" lon="6.13977">
        <ele>360</ele>
        <time>2013-03-16T15:13:25Z</time>
      </trkpt>
      <trkpt lat="43.36853" lon="6.13977">
        <ele>360</ele>
        <time>2013-03-16T15:13:53Z</time>
      </trkpt>
      <trkpt lat="43.36853" lon="6.13977">
        <ele>360</ele>
        <time>2013-03-16T15:14:02Z</time>
      </trkpt>
      <trkpt lat="43.36853" lon="6.13977">
        <ele>360</ele>
        <time>2013-03-16T15:14:10Z</time>
      </trkpt>
      <trkpt lat="43.36853" lon="6.13977">
        <ele>360</ele>
        <time>2013-03-16T15:14:23Z</time>
      </trkpt>
      <trkpt lat="43.36853" lon="6.13977">
        <ele>360</ele>
        <time>2013-03-16T15:14:31Z</time>
      </trkpt>
      <trkpt lat="43.36853" lon="6.13976">
        <ele>360</ele>
        <time>2013-03-16T15:14:37Z</time>
      </trkpt>
      <trkpt lat="43.36853" lon="6.13976">
        <ele>360</ele>
        <time>2013-03-16T15:14:42Z</time>
      </trkpt>
      <trkpt lat="43.36853" lon="6.13976">
        <ele>360</ele>
        <time>2013-03-16T15:15:09Z</time>
      </trkpt>
      <trkpt lat="43.36853" lon="6.13976">
        <ele>360</ele>
        <time>2013-03-16T15:15:41Z</time>
      </trkpt>
      <trkpt lat="43.36853" lon="6.13976">
        <ele>360</ele>
        <time>2013-03-16T15:16:11Z</time>
      </trkpt>
      <trkpt lat="43.36853" lon="6.13976">
        <ele>360</ele>
        <time>2013-03-16T15:16:23Z</time>
      </trkpt>
      <trkpt lat="43.36853" lon="6.13975">
        <ele>360</ele>
        <time>2013-03-16T15:16:25Z</time>
      </trkpt>
      <trkpt lat="43.36852" lon="6.13974">
        <ele>360</ele>
        <time>2013-03-16T15:16:27Z</time>
      </trkpt>
      <trkpt lat="43.36852" lon="6.13974">
        <ele>360</ele>
        <time>2013-03-16T15:16:36Z</time>
      </trkpt>
      <trkpt lat="43.36852" lon="6.13974">
        <ele>360</ele>
        <time>2013-03-16T15:16:55Z</time>
      </trkpt>
      <trkpt lat="43.36852" lon="6.13974">
        <ele>360</ele>
        <time>2013-03-16T15:18:32Z</time>
      </trkpt>
      <trkpt lat="43.36852" lon="6.13974">
        <ele>360</ele>
        <time>2013-03-16T15:18:40Z</time>
      </trkpt>
      <trkpt lat="43.36852" lon="6.13974">
        <ele>360</ele>
        <time>2013-03-16T15:18:51Z</time>
      </trkpt>
      <trkpt lat="43.36852" lon="6.13974">
        <ele>360</ele>
        <time>2013-03-16T15:19:08Z</time>
      </trkpt>
      <trkpt lat="43.36852" lon="6.13973">
        <ele>360</ele>
        <time>2013-03-16T15:19:13Z</time>
      </trkpt>
      <trkpt lat="43.36852" lon="6.13973">
        <ele>360</ele>
        <time>2013-03-16T15:19:15Z</time>
      </trkpt>
      <trkpt lat="43.36852" lon="6.13973">
        <ele>360</ele>
        <time>2013-03-16T15:19:21Z</time>
      </trkpt>
      <trkpt lat="43.36852" lon="6.13973">
        <ele>360</ele>
        <time>2013-03-16T15:19:33Z</time>
      </trkpt>
      <trkpt lat="43.36852" lon="6.13973">
        <ele>360</ele>
        <time>2013-03-16T15:19:46Z</time>
      </trkpt>
      <trkpt lat="43.36851" lon="6.13973">
        <ele>360</ele>
        <time>2013-03-16T15:19:50Z</time>
      </trkpt>
      <trkpt lat="43.36851" lon="6.13973">
        <ele>360</ele>
        <time>2013-03-16T15:20:06Z</time>
      </trkpt>
      <trkpt lat="43.36851" lon="6.13972">
        <ele>360</ele>
        <time>2013-03-16T15:22:03Z</time>
      </trkpt>
      <trkpt lat="43.36851" lon="6.13972">
        <ele>360</ele>
        <time>2013-03-16T15:22:17Z</time>
      </trkpt>
      <trkpt lat="43.3685" lon="6.13971">
        <ele>360</ele>
        <time>2013-03-16T15:22:28Z</time>
      </trkpt>
      <trkpt lat="43.36843" lon="6.13966">
        <ele>360</ele>
        <time>2013-03-16T15:22:34Z</time>
      </trkpt>
      <trkpt lat="43.36842" lon="6.13964">
        <ele>360</ele>
        <time>2013-03-16T15:22:35Z</time>
      </trkpt>
      <trkpt lat="43.36839" lon="6.13958">
        <ele>360</ele>
        <time>2013-03-16T15:22:39Z</time>
      </trkpt>
      <trkpt lat="43.36833" lon="6.13954">
        <ele>358.79998779297</ele>
        <time>2013-03-16T15:22:44Z</time>
      </trkpt>
      <trkpt lat="43.36831" lon="6.13954">
        <ele>358</ele>
        <time>2013-03-16T15:22:46Z</time>
      </trkpt>
      <trkpt lat="43.3683" lon="6.13955">
        <ele>358</ele>
        <time>2013-03-16T15:22:48Z</time>
      </trkpt>
      <trkpt lat="43.36824" lon="6.13964">
        <ele>358</ele>
        <time>2013-03-16T15:22:54Z</time>
      </trkpt>
      <trkpt lat="43.36821" lon="6.13977">
        <ele>358.79998779297</ele>
        <time>2013-03-16T15:22:59Z</time>
      </trkpt>
      <trkpt lat="43.36814" lon="6.13981">
        <ele>360.20001220703</ele>
        <time>2013-03-16T15:23:02Z</time>
      </trkpt>
      <trkpt lat="43.36811" lon="6.13982">
        <ele>360.20001220703</ele>
        <time>2013-03-16T15:23:03Z</time>
      </trkpt>
      <trkpt lat="43.36806" lon="6.13983">
        <ele>360.20001220703</ele>
        <time>2013-03-16T15:23:05Z</time>
      </trkpt>
      <trkpt lat="43.36804" lon="6.13984">
        <ele>360.60000610352</ele>
        <time>2013-03-16T15:23:06Z</time>
      </trkpt>
      <trkpt lat="43.36802" lon="6.13985">
        <ele>361</ele>
        <time>2013-03-16T15:23:07Z</time>
      </trkpt>
      <trkpt lat="43.36797" lon="6.13988">
        <ele>361.79998779297</ele>
        <time>2013-03-16T15:23:09Z</time>
      </trkpt>
      <trkpt lat="43.36794" lon="6.13989">
        <ele>362.20001220703</ele>
        <time>2013-03-16T15:23:10Z</time>
      </trkpt>
      <trkpt lat="43.36785" lon="6.13995">
        <ele>362.20001220703</ele>
        <time>2013-03-16T15:23:14Z</time>
      </trkpt>
      <trkpt lat="43.36777" lon="6.14003">
        <ele>362.20001220703</ele>
        <time>2013-03-16T15:23:19Z</time>
      </trkpt>
      <trkpt lat="43.36773" lon="6.14007">
        <ele>362.60000610352</ele>
        <time>2013-03-16T15:23:21Z</time>
      </trkpt>
      <trkpt lat="43.36771" lon="6.14011">
        <ele>363.39999389648</ele>
        <time>2013-03-16T15:23:23Z</time>
      </trkpt>
      <trkpt lat="43.36771" lon="6.14012">
        <ele>363.79998779297</ele>
        <time>2013-03-16T15:23:24Z</time>
      </trkpt>
      <trkpt lat="43.36771" lon="6.14012">
        <ele>364.20001220703</ele>
        <time>2013-03-16T15:23:25Z</time>
      </trkpt>
      <trkpt lat="43.36771" lon="6.14012">
        <ele>364.20001220703</ele>
        <time>2013-03-16T15:23:26Z</time>
      </trkpt>
      <trkpt lat="43.3677" lon="6.14012">
        <ele>364.20001220703</ele>
        <time>2013-03-16T15:23:32Z</time>
      </trkpt>
      <trkpt lat="43.36769" lon="6.14013">
        <ele>364.20001220703</ele>
        <time>2013-03-16T15:23:33Z</time>
      </trkpt>
      <trkpt lat="43.36768" lon="6.14013">
        <ele>364.20001220703</ele>
        <time>2013-03-16T15:23:36Z</time>
      </trkpt>
      <trkpt lat="43.36767" lon="6.14017">
        <ele>364.20001220703</ele>
        <time>2013-03-16T15:23:41Z</time>
      </trkpt>
      <trkpt lat="43.36766" lon="6.14017">
        <ele>364.60000610352</ele>
        <time>2013-03-16T15:23:42Z</time>
      </trkpt>
      <trkpt lat="43.36765" lon="6.14017">
        <ele>365.39999389648</ele>
        <time>2013-03-16T15:23:43Z</time>
      </trkpt>
      <trkpt lat="43.36765" lon="6.14016">
        <ele>365.79998779297</ele>
        <time>2013-03-16T15:23:44Z</time>
      </trkpt>
      <trkpt lat="43.36765" lon="6.14016">
        <ele>366.20001220703</ele>
        <time>2013-03-16T15:23:45Z</time>
      </trkpt>
      <trkpt lat="43.36764" lon="6.14016">
        <ele>366.20001220703</ele>
        <time>2013-03-16T15:23:48Z</time>
      </trkpt>
      <trkpt lat="43.36751" lon="6.14017">
        <ele>366.20001220703</ele>
        <time>2013-03-16T15:23:57Z</time>
      </trkpt>
      <trkpt lat="43.36749" lon="6.14017">
        <ele>366.20001220703</ele>
        <time>2013-03-16T15:23:58Z</time>
      </trkpt>
      <trkpt lat="43.3674" lon="6.14011">
        <ele>366.20001220703</ele>
        <time>2013-03-16T15:24:03Z</time>
      </trkpt>
      <trkpt lat="43.36726" lon="6.14003">
        <ele>366.20001220703</ele>
        <time>2013-03-16T15:24:10Z</time>
      </trkpt>
      <trkpt lat="43.36717" lon="6.14003">
        <ele>366.20001220703</ele>
        <time>2013-03-16T15:24:15Z</time>
      </trkpt>
      <trkpt lat="43.36712" lon="6.14004">
        <ele>366.20001220703</ele>
        <time>2013-03-16T15:24:17Z</time>
      </trkpt>
      <trkpt lat="43.36707" lon="6.14011">
        <ele>366.20001220703</ele>
        <time>2013-03-16T15:24:19Z</time>
      </trkpt>
      <trkpt lat="43.36702" lon="6.1402">
        <ele>366.20001220703</ele>
        <time>2013-03-16T15:24:22Z</time>
      </trkpt>
      <trkpt lat="43.36699" lon="6.14025">
        <ele>366.20001220703</ele>
        <time>2013-03-16T15:24:24Z</time>
      </trkpt>
      <trkpt lat="43.36677" lon="6.14049">
        <ele>366.20001220703</ele>
        <time>2013-03-16T15:24:35Z</time>
      </trkpt>
      <trkpt lat="43.36667" lon="6.14069">
        <ele>366.20001220703</ele>
        <time>2013-03-16T15:24:42Z</time>
      </trkpt>
      <trkpt lat="43.36665" lon="6.14084">
        <ele>366.20001220703</ele>
        <time>2013-03-16T15:24:47Z</time>
      </trkpt>
      <trkpt lat="43.36663" lon="6.141">
        <ele>367.39999389648</ele>
        <time>2013-03-16T15:24:53Z</time>
      </trkpt>
      <trkpt lat="43.36664" lon="6.14104">
        <ele>368.39999389648</ele>
        <time>2013-03-16T15:24:55Z</time>
      </trkpt>
      <trkpt lat="43.36665" lon="6.14116">
        <ele>368.39999389648</ele>
        <time>2013-03-16T15:25:00Z</time>
      </trkpt>
      <trkpt lat="43.36665" lon="6.14134">
        <ele>368.79998779297</ele>
        <time>2013-03-16T15:25:08Z</time>
      </trkpt>
      <trkpt lat="43.36665" lon="6.14139">
        <ele>369.60000610352</ele>
        <time>2013-03-16T15:25:10Z</time>
      </trkpt>
      <trkpt lat="43.36666" lon="6.14141">
        <ele>370</ele>
        <time>2013-03-16T15:25:11Z</time>
      </trkpt>
      <trkpt lat="43.36668" lon="6.14154">
        <ele>370.39999389648</ele>
        <time>2013-03-16T15:25:17Z</time>
      </trkpt>
      <trkpt lat="43.36671" lon="6.14162">
        <ele>370.39999389648</ele>
        <time>2013-03-16T15:25:23Z</time>
      </trkpt>
      <trkpt lat="43.36672" lon="6.14164">
        <ele>370.39999389648</ele>
        <time>2013-03-16T15:25:25Z</time>
      </trkpt>
      <trkpt lat="43.36673" lon="6.14173">
        <ele>370.79998779297</ele>
        <time>2013-03-16T15:25:32Z</time>
      </trkpt>
      <trkpt lat="43.36675" lon="6.14181">
        <ele>372.60000610352</ele>
        <time>2013-03-16T15:25:36Z</time>
      </trkpt>
      <trkpt lat="43.36676" lon="6.14185">
        <ele>372.60000610352</ele>
        <time>2013-03-16T15:25:38Z</time>
      </trkpt>
      <trkpt lat="43.36677" lon="6.14193">
        <ele>372.60000610352</ele>
        <time>2013-03-16T15:25:42Z</time>
      </trkpt>
      <trkpt lat="43.36679" lon="6.14205">
        <ele>372.60000610352</ele>
        <time>2013-03-16T15:25:48Z</time>
      </trkpt>
      <trkpt lat="43.3668" lon="6.14225">
        <ele>372.60000610352</ele>
        <time>2013-03-16T15:25:57Z</time>
      </trkpt>
      <trkpt lat="43.36681" lon="6.14231">
        <ele>372.60000610352</ele>
        <time>2013-03-16T15:25:59Z</time>
      </trkpt>
      <trkpt lat="43.36682" lon="6.14245">
        <ele>372.60000610352</ele>
        <time>2013-03-16T15:26:04Z</time>
      </trkpt>
      <trkpt lat="43.36682" lon="6.14253">
        <ele>373</ele>
        <time>2013-03-16T15:26:07Z</time>
      </trkpt>
      <trkpt lat="43.36681" lon="6.14264">
        <ele>375</ele>
        <time>2013-03-16T15:26:11Z</time>
      </trkpt>
      <trkpt lat="43.3668" lon="6.14277">
        <ele>375</ele>
        <time>2013-03-16T15:26:16Z</time>
      </trkpt>
      <trkpt lat="43.3668" lon="6.14286">
        <ele>375</ele>
        <time>2013-03-16T15:26:20Z</time>
      </trkpt>
      <trkpt lat="43.36679" lon="6.14294">
        <ele>375</ele>
        <time>2013-03-16T15:26:24Z</time>
      </trkpt>
      <trkpt lat="43.36679" lon="6.14299">
        <ele>376</ele>
        <time>2013-03-16T15:26:26Z</time>
      </trkpt>
      <trkpt lat="43.36674" lon="6.1431">
        <ele>377.20001220703</ele>
        <time>2013-03-16T15:26:31Z</time>
      </trkpt>
      <trkpt lat="43.36672" lon="6.14327">
        <ele>377.20001220703</ele>
        <time>2013-03-16T15:26:37Z</time>
      </trkpt>
      <trkpt lat="43.36665" lon="6.14344">
        <ele>377.20001220703</ele>
        <time>2013-03-16T15:26:45Z</time>
      </trkpt>
      <trkpt lat="43.36657" lon="6.14359">
        <ele>377.20001220703</ele>
        <time>2013-03-16T15:26:52Z</time>
      </trkpt>
      <trkpt lat="43.36651" lon="6.14367">
        <ele>379</ele>
        <time>2013-03-16T15:26:56Z</time>
      </trkpt>
      <trkpt lat="43.3664" lon="6.1438">
        <ele>379.39999389648</ele>
        <time>2013-03-16T15:27:03Z</time>
      </trkpt>
      <trkpt lat="43.3662" lon="6.14402">
        <ele>381.60000610352</ele>
        <time>2013-03-16T15:27:16Z</time>
      </trkpt>
      <trkpt lat="43.36611" lon="6.14417">
        <ele>381.60000610352</ele>
        <time>2013-03-16T15:27:24Z</time>
      </trkpt>
      <trkpt lat="43.36605" lon="6.14427">
        <ele>382.79998779297</ele>
        <time>2013-03-16T15:27:31Z</time>
      </trkpt>
      <trkpt lat="43.36604" lon="6.14429">
        <ele>383.20001220703</ele>
        <time>2013-03-16T15:27:32Z</time>
      </trkpt>
      <trkpt lat="43.36604" lon="6.14431">
        <ele>383.60000610352</ele>
        <time>2013-03-16T15:27:33Z</time>
      </trkpt>
      <trkpt lat="43.36601" lon="6.1444">
        <ele>383.60000610352</ele>
        <time>2013-03-16T15:27:38Z</time>
      </trkpt>
      <trkpt lat="43.36598" lon="6.1445">
        <ele>383.60000610352</ele>
        <time>2013-03-16T15:27:44Z</time>
      </trkpt>
      <trkpt lat="43.36592" lon="6.14457">
        <ele>383.60000610352</ele>
        <time>2013-03-16T15:27:50Z</time>
      </trkpt>
      <trkpt lat="43.36586" lon="6.14457">
        <ele>383.60000610352</ele>
        <time>2013-03-16T15:27:54Z</time>
      </trkpt>
      <trkpt lat="43.36583" lon="6.14449">
        <ele>383.60000610352</ele>
        <time>2013-03-16T15:27:58Z</time>
      </trkpt>
      <trkpt lat="43.36581" lon="6.14436">
        <ele>383.60000610352</ele>
        <time>2013-03-16T15:28:03Z</time>
      </trkpt>
      <trkpt lat="43.36581" lon="6.1443">
        <ele>383.60000610352</ele>
        <time>2013-03-16T15:28:05Z</time>
      </trkpt>
      <trkpt lat="43.3658" lon="6.14417">
        <ele>383.60000610352</ele>
        <time>2013-03-16T15:28:09Z</time>
      </trkpt>
      <trkpt lat="43.3658" lon="6.14413">
        <ele>384.20001220703</ele>
        <time>2013-03-16T15:28:10Z</time>
      </trkpt>
      <trkpt lat="43.3658" lon="6.14406">
        <ele>385</ele>
        <time>2013-03-16T15:28:12Z</time>
      </trkpt>
      <trkpt lat="43.36579" lon="6.14403">
        <ele>385.39999389648</ele>
        <time>2013-03-16T15:28:13Z</time>
      </trkpt>
      <trkpt lat="43.36578" lon="6.14401">
        <ele>385.79998779297</ele>
        <time>2013-03-16T15:28:14Z</time>
      </trkpt>
      <trkpt lat="43.36575" lon="6.14399">
        <ele>386.20001220703</ele>
        <time>2013-03-16T15:28:16Z</time>
      </trkpt>
      <trkpt lat="43.36573" lon="6.14396">
        <ele>387.20001220703</ele>
        <time>2013-03-16T15:28:18Z</time>
      </trkpt>
      <trkpt lat="43.36569" lon="6.14393">
        <ele>388</ele>
        <time>2013-03-16T15:28:21Z</time>
      </trkpt>
      <trkpt lat="43.36568" lon="6.14392">
        <ele>388</ele>
        <time>2013-03-16T15:28:22Z</time>
      </trkpt>
      <trkpt lat="43.36562" lon="6.14387">
        <ele>389.60000610352</ele>
        <time>2013-03-16T15:28:26Z</time>
      </trkpt>
      <trkpt lat="43.36559" lon="6.14385">
        <ele>390</ele>
        <time>2013-03-16T15:28:28Z</time>
      </trkpt>
      <trkpt lat="43.36557" lon="6.14385">
        <ele>390</ele>
        <time>2013-03-16T15:28:29Z</time>
      </trkpt>
      <trkpt lat="43.36548" lon="6.14384">
        <ele>391.20001220703</ele>
        <time>2013-03-16T15:28:35Z</time>
      </trkpt>
      <trkpt lat="43.36547" lon="6.14382">
        <ele>391.79998779297</ele>
        <time>2013-03-16T15:28:36Z</time>
      </trkpt>
      <trkpt lat="43.36542" lon="6.14379">
        <ele>392.60000610352</ele>
        <time>2013-03-16T15:28:40Z</time>
      </trkpt>
      <trkpt lat="43.36539" lon="6.14378">
        <ele>393.39999389648</ele>
        <time>2013-03-16T15:28:42Z</time>
      </trkpt>
      <trkpt lat="43.36536" lon="6.14376">
        <ele>394.39999389648</ele>
        <time>2013-03-16T15:28:44Z</time>
      </trkpt>
      <trkpt lat="43.36535" lon="6.14376">
        <ele>394.39999389648</ele>
        <time>2013-03-16T15:28:45Z</time>
      </trkpt>
      <trkpt lat="43.3653" lon="6.14372">
        <ele>395.20001220703</ele>
        <time>2013-03-16T15:28:51Z</time>
      </trkpt>
      <trkpt lat="43.3653" lon="6.14372">
        <ele>395.60000610352</ele>
        <time>2013-03-16T15:28:52Z</time>
      </trkpt>
      <trkpt lat="43.3653" lon="6.14372">
        <ele>396</ele>
        <time>2013-03-16T15:28:53Z</time>
      </trkpt>
      <trkpt lat="43.3653" lon="6.14372">
        <ele>396.39999389648</ele>
        <time>2013-03-16T15:29:06Z</time>
      </trkpt>
      <trkpt lat="43.3653" lon="6.14372">
        <ele>396.39999389648</ele>
        <time>2013-03-16T15:29:39Z</time>
      </trkpt>
      <trkpt lat="43.3653" lon="6.14372">
        <ele>396.39999389648</ele>
        <time>2013-03-16T15:29:53Z</time>
      </trkpt>
      <trkpt lat="43.3653" lon="6.14371">
        <ele>396.39999389648</ele>
        <time>2013-03-16T15:29:58Z</time>
      </trkpt>
      <trkpt lat="43.36529" lon="6.14369">
        <ele>396.39999389648</ele>
        <time>2013-03-16T15:30:01Z</time>
      </trkpt>
      <trkpt lat="43.36524" lon="6.14355">
        <ele>396.39999389648</ele>
        <time>2013-03-16T15:30:06Z</time>
      </trkpt>
      <trkpt lat="43.36522" lon="6.14345">
        <ele>396.39999389648</ele>
        <time>2013-03-16T15:30:09Z</time>
      </trkpt>
      <trkpt lat="43.36522" lon="6.14338">
        <ele>396.39999389648</ele>
        <time>2013-03-16T15:30:11Z</time>
      </trkpt>
      <trkpt lat="43.36523" lon="6.14334">
        <ele>396.39999389648</ele>
        <time>2013-03-16T15:30:12Z</time>
      </trkpt>
      <trkpt lat="43.36531" lon="6.14313">
        <ele>396.39999389648</ele>
        <time>2013-03-16T15:30:18Z</time>
      </trkpt>
      <trkpt lat="43.36541" lon="6.14289">
        <ele>396.39999389648</ele>
        <time>2013-03-16T15:30:24Z</time>
      </trkpt>
      <trkpt lat="43.36542" lon="6.14283">
        <ele>396.39999389648</ele>
        <time>2013-03-16T15:30:27Z</time>
      </trkpt>
      <trkpt lat="43.36544" lon="6.14279">
        <ele>396</ele>
        <time>2013-03-16T15:30:28Z</time>
      </trkpt>
      <trkpt lat="43.36546" lon="6.14269">
        <ele>395.20001220703</ele>
        <time>2013-03-16T15:30:30Z</time>
      </trkpt>
      <trkpt lat="43.36548" lon="6.14258">
        <ele>394.39999389648</ele>
        <time>2013-03-16T15:30:32Z</time>
      </trkpt>
      <trkpt lat="43.36551" lon="6.14223">
        <ele>393.79998779297</ele>
        <time>2013-03-16T15:30:38Z</time>
      </trkpt>
      <trkpt lat="43.36551" lon="6.14216">
        <ele>393.39999389648</ele>
        <time>2013-03-16T15:30:39Z</time>
      </trkpt>
      <trkpt lat="43.36551" lon="6.14204">
        <ele>392.60000610352</ele>
        <time>2013-03-16T15:30:41Z</time>
      </trkpt>
      <trkpt lat="43.36551" lon="6.14178">
        <ele>390.79998779297</ele>
        <time>2013-03-16T15:30:45Z</time>
      </trkpt>
      <trkpt lat="43.36544" lon="6.1413">
        <ele>389.39999389648</ele>
        <time>2013-03-16T15:30:52Z</time>
      </trkpt>
      <trkpt lat="43.36543" lon="6.14123">
        <ele>389</ele>
        <time>2013-03-16T15:30:53Z</time>
      </trkpt>
      <trkpt lat="43.36538" lon="6.14102">
        <ele>387.79998779297</ele>
        <time>2013-03-16T15:30:56Z</time>
      </trkpt>
      <trkpt lat="43.36532" lon="6.14081">
        <ele>387.39999389648</ele>
        <time>2013-03-16T15:30:59Z</time>
      </trkpt>
      <trkpt lat="43.36528" lon="6.14066">
        <ele>386.60000610352</ele>
        <time>2013-03-16T15:31:01Z</time>
      </trkpt>
      <trkpt lat="43.36526" lon="6.14058">
        <ele>386.20001220703</ele>
        <time>2013-03-16T15:31:02Z</time>
      </trkpt>
      <trkpt lat="43.36525" lon="6.1405">
        <ele>385.79998779297</ele>
        <time>2013-03-16T15:31:03Z</time>
      </trkpt>
      <trkpt lat="43.36525" lon="6.14033">
        <ele>385.79998779297</ele>
        <time>2013-03-16T15:31:05Z</time>
      </trkpt>
      <trkpt lat="43.36528" lon="6.14006">
        <ele>383.60000610352</ele>
        <time>2013-03-16T15:31:09Z</time>
      </trkpt>
      <trkpt lat="43.36529" lon="6.13987">
        <ele>383.60000610352</ele>
        <time>2013-03-16T15:31:12Z</time>
      </trkpt>
      <trkpt lat="43.36528" lon="6.1398">
        <ele>383.60000610352</ele>
        <time>2013-03-16T15:31:13Z</time>
      </trkpt>
      <trkpt lat="43.36524" lon="6.13945">
        <ele>383.60000610352</ele>
        <time>2013-03-16T15:31:18Z</time>
      </trkpt>
      <trkpt lat="43.36523" lon="6.13937">
        <ele>383.60000610352</ele>
        <time>2013-03-16T15:31:19Z</time>
      </trkpt>
      <trkpt lat="43.36523" lon="6.13906">
        <ele>383</ele>
        <time>2013-03-16T15:31:23Z</time>
      </trkpt>
      <trkpt lat="43.36524" lon="6.13889">
        <ele>382.20001220703</ele>
        <time>2013-03-16T15:31:25Z</time>
      </trkpt>
      <trkpt lat="43.36526" lon="6.13872">
        <ele>381.39999389648</ele>
        <time>2013-03-16T15:31:27Z</time>
      </trkpt>
      <trkpt lat="43.36529" lon="6.13844">
        <ele>381.39999389648</ele>
        <time>2013-03-16T15:31:30Z</time>
      </trkpt>
      <trkpt lat="43.3653" lon="6.13826">
        <ele>380.60000610352</ele>
        <time>2013-03-16T15:31:32Z</time>
      </trkpt>
      <trkpt lat="43.36536" lon="6.138">
        <ele>379.20001220703</ele>
        <time>2013-03-16T15:31:35Z</time>
      </trkpt>
      <trkpt lat="43.36538" lon="6.13791">
        <ele>378.60000610352</ele>
        <time>2013-03-16T15:31:36Z</time>
      </trkpt>
      <trkpt lat="43.36543" lon="6.13764">
        <ele>376.60000610352</ele>
        <time>2013-03-16T15:31:39Z</time>
      </trkpt>
      <trkpt lat="43.36544" lon="6.13754">
        <ele>376.60000610352</ele>
        <time>2013-03-16T15:31:40Z</time>
      </trkpt>
      <trkpt lat="43.36551" lon="6.13711">
        <ele>375.39999389648</ele>
        <time>2013-03-16T15:31:44Z</time>
      </trkpt>
      <trkpt lat="43.36553" lon="6.137">
        <ele>375</ele>
        <time>2013-03-16T15:31:45Z</time>
      </trkpt>
      <trkpt lat="43.36555" lon="6.13687">
        <ele>374.60000610352</ele>
        <time>2013-03-16T15:31:46Z</time>
      </trkpt>
      <trkpt lat="43.3656" lon="6.13649">
        <ele>374.20001220703</ele>
        <time>2013-03-16T15:31:49Z</time>
      </trkpt>
      <trkpt lat="43.36562" lon="6.13636">
        <ele>373.79998779297</ele>
        <time>2013-03-16T15:31:50Z</time>
      </trkpt>
      <trkpt lat="43.36564" lon="6.13622">
        <ele>373.20001220703</ele>
        <time>2013-03-16T15:31:51Z</time>
      </trkpt>
      <trkpt lat="43.36567" lon="6.13608">
        <ele>372.60000610352</ele>
        <time>2013-03-16T15:31:52Z</time>
      </trkpt>
      <trkpt lat="43.3657" lon="6.13595">
        <ele>371.79998779297</ele>
        <time>2013-03-16T15:31:53Z</time>
      </trkpt>
      <trkpt lat="43.36574" lon="6.13582">
        <ele>371.20001220703</ele>
        <time>2013-03-16T15:31:54Z</time>
      </trkpt>
      <trkpt lat="43.36577" lon="6.13572">
        <ele>370.39999389648</ele>
        <time>2013-03-16T15:31:55Z</time>
      </trkpt>
      <trkpt lat="43.3658" lon="6.13559">
        <ele>369.79998779297</ele>
        <time>2013-03-16T15:31:56Z</time>
      </trkpt>
      <trkpt lat="43.36583" lon="6.13547">
        <ele>368.79998779297</ele>
        <time>2013-03-16T15:31:57Z</time>
      </trkpt>
      <trkpt lat="43.36586" lon="6.13534">
        <ele>368.39999389648</ele>
        <time>2013-03-16T15:31:58Z</time>
      </trkpt>
      <trkpt lat="43.36597" lon="6.13484">
        <ele>366.20001220703</ele>
        <time>2013-03-16T15:32:02Z</time>
      </trkpt>
      <trkpt lat="43.36602" lon="6.13462">
        <ele>364.79998779297</ele>
        <time>2013-03-16T15:32:04Z</time>
      </trkpt>
      <trkpt lat="43.36606" lon="6.1344">
        <ele>364.39999389648</ele>
        <time>2013-03-16T15:32:06Z</time>
      </trkpt>
      <trkpt lat="43.36609" lon="6.13429">
        <ele>364</ele>
        <time>2013-03-16T15:32:07Z</time>
      </trkpt>
      <trkpt lat="43.36626" lon="6.1337">
        <ele>362.79998779297</ele>
        <time>2013-03-16T15:32:13Z</time>
      </trkpt>
      <trkpt lat="43.36628" lon="6.13361">
        <ele>362.20001220703</ele>
        <time>2013-03-16T15:32:14Z</time>
      </trkpt>
      <trkpt lat="43.3663" lon="6.13352">
        <ele>361.79998779297</ele>
        <time>2013-03-16T15:32:15Z</time>
      </trkpt>
      <trkpt lat="43.36632" lon="6.13344">
        <ele>361.39999389648</ele>
        <time>2013-03-16T15:32:16Z</time>
      </trkpt>
      <trkpt lat="43.36638" lon="6.13318">
        <ele>360.39999389648</ele>
        <time>2013-03-16T15:32:19Z</time>
      </trkpt>
      <trkpt lat="43.36642" lon="6.133">
        <ele>359.60000610352</ele>
        <time>2013-03-16T15:32:21Z</time>
      </trkpt>
      <trkpt lat="43.36645" lon="6.13285">
        <ele>358.79998779297</ele>
        <time>2013-03-16T15:32:23Z</time>
      </trkpt>
      <trkpt lat="43.36647" lon="6.13279">
        <ele>358.39999389648</ele>
        <time>2013-03-16T15:32:24Z</time>
      </trkpt>
      <trkpt lat="43.36649" lon="6.13263">
        <ele>357.79998779297</ele>
        <time>2013-03-16T15:32:27Z</time>
      </trkpt>
      <trkpt lat="43.3665" lon="6.13257">
        <ele>357.39999389648</ele>
        <time>2013-03-16T15:32:28Z</time>
      </trkpt>
      <trkpt lat="43.36651" lon="6.13251">
        <ele>357</ele>
        <time>2013-03-16T15:32:29Z</time>
      </trkpt>
      <trkpt lat="43.36651" lon="6.13244">
        <ele>356.60000610352</ele>
        <time>2013-03-16T15:32:30Z</time>
      </trkpt>
      <trkpt lat="43.3665" lon="6.13238">
        <ele>356.20001220703</ele>
        <time>2013-03-16T15:32:31Z</time>
      </trkpt>
      <trkpt lat="43.36651" lon="6.13222">
        <ele>356.20001220703</ele>
        <time>2013-03-16T15:32:33Z</time>
      </trkpt>
      <trkpt lat="43.36657" lon="6.13183">
        <ele>355.39999389648</ele>
        <time>2013-03-16T15:32:38Z</time>
      </trkpt>
      <trkpt lat="43.36659" lon="6.13166">
        <ele>354.60000610352</ele>
        <time>2013-03-16T15:32:40Z</time>
      </trkpt>
      <trkpt lat="43.36661" lon="6.13159">
        <ele>354</ele>
        <time>2013-03-16T15:32:41Z</time>
      </trkpt>
      <trkpt lat="43.36664" lon="6.13153">
        <ele>353.39999389648</ele>
        <time>2013-03-16T15:32:42Z</time>
      </trkpt>
      <trkpt lat="43.36671" lon="6.13145">
        <ele>352.39999389648</ele>
        <time>2013-03-16T15:32:44Z</time>
      </trkpt>
      <trkpt lat="43.36681" lon="6.13142">
        <ele>350.79998779297</ele>
        <time>2013-03-16T15:32:46Z</time>
      </trkpt>
      <trkpt lat="43.36687" lon="6.13139">
        <ele>350.39999389648</ele>
        <time>2013-03-16T15:32:47Z</time>
      </trkpt>
      <trkpt lat="43.36692" lon="6.13133">
        <ele>349.79998779297</ele>
        <time>2013-03-16T15:32:48Z</time>
      </trkpt>
      <trkpt lat="43.36696" lon="6.13124">
        <ele>349.39999389648</ele>
        <time>2013-03-16T15:32:49Z</time>
      </trkpt>
      <trkpt lat="43.36703" lon="6.13107">
        <ele>348.39999389648</ele>
        <time>2013-03-16T15:32:51Z</time>
      </trkpt>
      <trkpt lat="43.36707" lon="6.13086">
        <ele>347.20001220703</ele>
        <time>2013-03-16T15:32:53Z</time>
      </trkpt>
      <trkpt lat="43.36712" lon="6.13064">
        <ele>346</ele>
        <time>2013-03-16T15:32:55Z</time>
      </trkpt>
      <trkpt lat="43.36726" lon="6.13038">
        <ele>345.20001220703</ele>
        <time>2013-03-16T15:32:58Z</time>
      </trkpt>
      <trkpt lat="43.36741" lon="6.13012">
        <ele>343.79998779297</ele>
        <time>2013-03-16T15:33:01Z</time>
      </trkpt>
      <trkpt lat="43.36753" lon="6.12993">
        <ele>342.79998779297</ele>
        <time>2013-03-16T15:33:03Z</time>
      </trkpt>
      <trkpt lat="43.36758" lon="6.12984">
        <ele>342.39999389648</ele>
        <time>2013-03-16T15:33:04Z</time>
      </trkpt>
      <trkpt lat="43.36773" lon="6.12967">
        <ele>341.20001220703</ele>
        <time>2013-03-16T15:33:06Z</time>
      </trkpt>
      <trkpt lat="43.36811" lon="6.12931">
        <ele>337.39999389648</ele>
        <time>2013-03-16T15:33:11Z</time>
      </trkpt>
      <trkpt lat="43.36818" lon="6.12923">
        <ele>336.79998779297</ele>
        <time>2013-03-16T15:33:12Z</time>
      </trkpt>
      <trkpt lat="43.36826" lon="6.12916">
        <ele>336.39999389648</ele>
        <time>2013-03-16T15:33:13Z</time>
      </trkpt>
      <trkpt lat="43.3684" lon="6.12901">
        <ele>335.60000610352</ele>
        <time>2013-03-16T15:33:15Z</time>
      </trkpt>
      <trkpt lat="43.3689" lon="6.12857">
        <ele>332.60000610352</ele>
        <time>2013-03-16T15:33:21Z</time>
      </trkpt>
      <trkpt lat="43.36904" lon="6.12842">
        <ele>331.20001220703</ele>
        <time>2013-03-16T15:33:23Z</time>
      </trkpt>
      <trkpt lat="43.36914" lon="6.12823">
        <ele>330</ele>
        <time>2013-03-16T15:33:25Z</time>
      </trkpt>
      <trkpt lat="43.36933" lon="6.12784">
        <ele>328.39999389648</ele>
        <time>2013-03-16T15:33:29Z</time>
      </trkpt>
      <trkpt lat="43.36957" lon="6.12737">
        <ele>326.60000610352</ele>
        <time>2013-03-16T15:33:34Z</time>
      </trkpt>
      <trkpt lat="43.36965" lon="6.12719">
        <ele>325.20001220703</ele>
        <time>2013-03-16T15:33:36Z</time>
      </trkpt>
      <trkpt lat="43.36973" lon="6.12701">
        <ele>324.39999389648</ele>
        <time>2013-03-16T15:33:38Z</time>
      </trkpt>
      <trkpt lat="43.36977" lon="6.12692">
        <ele>324</ele>
        <time>2013-03-16T15:33:39Z</time>
      </trkpt>
      <trkpt lat="43.36984" lon="6.12676">
        <ele>324</ele>
        <time>2013-03-16T15:33:41Z</time>
      </trkpt>
      <trkpt lat="43.36995" lon="6.12652">
        <ele>324</ele>
        <time>2013-03-16T15:33:44Z</time>
      </trkpt>
      <trkpt lat="43.37008" lon="6.12622">
        <ele>324</ele>
        <time>2013-03-16T15:33:48Z</time>
      </trkpt>
      <trkpt lat="43.37011" lon="6.12617">
        <ele>324</ele>
        <time>2013-03-16T15:33:51Z</time>
      </trkpt>
      <trkpt lat="43.37012" lon="6.12614">
        <ele>324</ele>
        <time>2013-03-16T15:33:56Z</time>
      </trkpt>
      <trkpt lat="43.37021" lon="6.12599">
        <ele>324</ele>
        <time>2013-03-16T15:34:00Z</time>
      </trkpt>
      <trkpt lat="43.37033" lon="6.12575">
        <ele>324</ele>
        <time>2013-03-16T15:34:05Z</time>
      </trkpt>
      <trkpt lat="43.37037" lon="6.12569">
        <ele>324</ele>
        <time>2013-03-16T15:34:06Z</time>
      </trkpt>
      <trkpt lat="43.37052" lon="6.12552">
        <ele>323.60000610352</ele>
        <time>2013-03-16T15:34:10Z</time>
      </trkpt>
      <trkpt lat="43.37056" lon="6.12548">
        <ele>323.20001220703</ele>
        <time>2013-03-16T15:34:11Z</time>
      </trkpt>
      <trkpt lat="43.37059" lon="6.12544">
        <ele>322.60000610352</ele>
        <time>2013-03-16T15:34:12Z</time>
      </trkpt>
      <trkpt lat="43.37068" lon="6.12536">
        <ele>321.79998779297</ele>
        <time>2013-03-16T15:34:14Z</time>
      </trkpt>
      <trkpt lat="43.37083" lon="6.12524">
        <ele>321.79998779297</ele>
        <time>2013-03-16T15:34:17Z</time>
      </trkpt>
      <trkpt lat="43.37093" lon="6.12515">
        <ele>321</ele>
        <time>2013-03-16T15:34:19Z</time>
      </trkpt>
      <trkpt lat="43.37101" lon="6.12506">
        <ele>320.20001220703</ele>
        <time>2013-03-16T15:34:21Z</time>
      </trkpt>
      <trkpt lat="43.37105" lon="6.12501">
        <ele>319.79998779297</ele>
        <time>2013-03-16T15:34:22Z</time>
      </trkpt>
      <trkpt lat="43.37112" lon="6.12491">
        <ele>319.79998779297</ele>
        <time>2013-03-16T15:34:24Z</time>
      </trkpt>
      <trkpt lat="43.37129" lon="6.12455">
        <ele>319.79998779297</ele>
        <time>2013-03-16T15:34:30Z</time>
      </trkpt>
      <trkpt lat="43.37147" lon="6.12415">
        <ele>319.79998779297</ele>
        <time>2013-03-16T15:34:37Z</time>
      </trkpt>
      <trkpt lat="43.37169" lon="6.12379">
        <ele>319.79998779297</ele>
        <time>2013-03-16T15:34:44Z</time>
      </trkpt>
      <trkpt lat="43.37186" lon="6.1236">
        <ele>319.79998779297</ele>
        <time>2013-03-16T15:34:49Z</time>
      </trkpt>
      <trkpt lat="43.37192" lon="6.12352">
        <ele>319.79998779297</ele>
        <time>2013-03-16T15:34:51Z</time>
      </trkpt>
      <trkpt lat="43.37203" lon="6.12334">
        <ele>320.60000610352</ele>
        <time>2013-03-16T15:34:56Z</time>
      </trkpt>
      <trkpt lat="43.37207" lon="6.12327">
        <ele>321.39999389648</ele>
        <time>2013-03-16T15:34:58Z</time>
      </trkpt>
      <trkpt lat="43.37216" lon="6.12306">
        <ele>321.79998779297</ele>
        <time>2013-03-16T15:35:04Z</time>
      </trkpt>
      <trkpt lat="43.37219" lon="6.123">
        <ele>322.39999389648</ele>
        <time>2013-03-16T15:35:06Z</time>
      </trkpt>
      <trkpt lat="43.37221" lon="6.12293">
        <ele>323.20001220703</ele>
        <time>2013-03-16T15:35:08Z</time>
      </trkpt>
      <trkpt lat="43.37223" lon="6.12287">
        <ele>324.20001220703</ele>
        <time>2013-03-16T15:35:10Z</time>
      </trkpt>
      <trkpt lat="43.37225" lon="6.12281">
        <ele>324.20001220703</ele>
        <time>2013-03-16T15:35:12Z</time>
      </trkpt>
      <trkpt lat="43.37232" lon="6.12263">
        <ele>324.60000610352</ele>
        <time>2013-03-16T15:35:18Z</time>
      </trkpt>
      <trkpt lat="43.37236" lon="6.1225">
        <ele>326.20001220703</ele>
        <time>2013-03-16T15:35:22Z</time>
      </trkpt>
      <trkpt lat="43.37244" lon="6.12227">
        <ele>327</ele>
        <time>2013-03-16T15:35:30Z</time>
      </trkpt>
      <trkpt lat="43.37247" lon="6.12221">
        <ele>327.79998779297</ele>
        <time>2013-03-16T15:35:32Z</time>
      </trkpt>
      <trkpt lat="43.37249" lon="6.12218">
        <ele>328.20001220703</ele>
        <time>2013-03-16T15:35:33Z</time>
      </trkpt>
      <trkpt lat="43.37257" lon="6.12201">
        <ele>328.20001220703</ele>
        <time>2013-03-16T15:35:39Z</time>
      </trkpt>
      <trkpt lat="43.37262" lon="6.12189">
        <ele>329.39999389648</ele>
        <time>2013-03-16T15:35:44Z</time>
      </trkpt>
      <trkpt lat="43.37274" lon="6.12168">
        <ele>331.60000610352</ele>
        <time>2013-03-16T15:35:53Z</time>
      </trkpt>
      <trkpt lat="43.37278" lon="6.12162">
        <ele>332.39999389648</ele>
        <time>2013-03-16T15:35:56Z</time>
      </trkpt>
      <trkpt lat="43.37284" lon="6.12152">
        <ele>332.39999389648</ele>
        <time>2013-03-16T15:36:02Z</time>
      </trkpt>
      <trkpt lat="43.37288" lon="6.12148">
        <ele>333.39999389648</ele>
        <time>2013-03-16T15:36:05Z</time>
      </trkpt>
      <trkpt lat="43.37291" lon="6.12145">
        <ele>334.20001220703</ele>
        <time>2013-03-16T15:36:07Z</time>
      </trkpt>
      <trkpt lat="43.37301" lon="6.12137">
        <ele>336.39999389648</ele>
        <time>2013-03-16T15:36:16Z</time>
      </trkpt>
      <trkpt lat="43.37303" lon="6.12136">
        <ele>337</ele>
        <time>2013-03-16T15:36:17Z</time>
      </trkpt>
      <trkpt lat="43.37309" lon="6.12133">
        <ele>337.79998779297</ele>
        <time>2013-03-16T15:36:23Z</time>
      </trkpt>
      <trkpt lat="43.37318" lon="6.12127">
        <ele>339</ele>
        <time>2013-03-16T15:36:30Z</time>
      </trkpt>
      <trkpt lat="43.37328" lon="6.12118">
        <ele>340.60000610352</ele>
        <time>2013-03-16T15:36:39Z</time>
      </trkpt>
      <trkpt lat="43.37347" lon="6.12105">
        <ele>341.39999389648</ele>
        <time>2013-03-16T15:36:53Z</time>
      </trkpt>
      <trkpt lat="43.37361" lon="6.12094">
        <ele>343.20001220703</ele>
        <time>2013-03-16T15:37:04Z</time>
      </trkpt>
      <trkpt lat="43.37368" lon="6.12092">
        <ele>344.60000610352</ele>
        <time>2013-03-16T15:37:09Z</time>
      </trkpt>
      <trkpt lat="43.3738" lon="6.12089">
        <ele>345.39999389648</ele>
        <time>2013-03-16T15:37:18Z</time>
      </trkpt>
      <trkpt lat="43.37388" lon="6.12087">
        <ele>345.39999389648</ele>
        <time>2013-03-16T15:37:24Z</time>
      </trkpt>
      <trkpt lat="43.37391" lon="6.12087">
        <ele>346.20001220703</ele>
        <time>2013-03-16T15:37:26Z</time>
      </trkpt>
      <trkpt lat="43.37403" lon="6.12088">
        <ele>347.39999389648</ele>
        <time>2013-03-16T15:37:35Z</time>
      </trkpt>
      <trkpt lat="43.37404" lon="6.12088">
        <ele>347.39999389648</ele>
        <time>2013-03-16T15:37:36Z</time>
      </trkpt>
      <trkpt lat="43.37416" lon="6.12086">
        <ele>347.79998779297</ele>
        <time>2013-03-16T15:37:43Z</time>
      </trkpt>
      <trkpt lat="43.37417" lon="6.12085">
        <ele>348.60000610352</ele>
        <time>2013-03-16T15:37:44Z</time>
      </trkpt>
      <trkpt lat="43.3742" lon="6.12084">
        <ele>349.60000610352</ele>
        <time>2013-03-16T15:37:46Z</time>
      </trkpt>
      <trkpt lat="43.37423" lon="6.12084">
        <ele>349.60000610352</ele>
        <time>2013-03-16T15:37:49Z</time>
      </trkpt>
      <trkpt lat="43.37424" lon="6.12084">
        <ele>349.60000610352</ele>
        <time>2013-03-16T15:37:55Z</time>
      </trkpt>
      <trkpt lat="43.37424" lon="6.12084">
        <ele>349.60000610352</ele>
        <time>2013-03-16T15:38:10Z</time>
      </trkpt>
      <trkpt lat="43.37424" lon="6.12084">
        <ele>349.60000610352</ele>
        <time>2013-03-16T15:38:50Z</time>
      </trkpt>
      <trkpt lat="43.37424" lon="6.12084">
        <ele>349.60000610352</ele>
        <time>2013-03-16T15:39:03Z</time>
      </trkpt>
      <trkpt lat="43.37424" lon="6.12084">
        <ele>349.60000610352</ele>
        <time>2013-03-16T15:39:11Z</time>
      </trkpt>
      <trkpt lat="43.37425" lon="6.12084">
        <ele>349.60000610352</ele>
        <time>2013-03-16T15:39:13Z</time>
      </trkpt>
      <trkpt lat="43.37432" lon="6.12083">
        <ele>349.60000610352</ele>
        <time>2013-03-16T15:39:18Z</time>
      </trkpt>
      <trkpt lat="43.37442" lon="6.12085">
        <ele>349.60000610352</ele>
        <time>2013-03-16T15:39:22Z</time>
      </trkpt>
      <trkpt lat="43.37451" lon="6.12083">
        <ele>349.60000610352</ele>
        <time>2013-03-16T15:39:24Z</time>
      </trkpt>
      <trkpt lat="43.37461" lon="6.12079">
        <ele>349.60000610352</ele>
        <time>2013-03-16T15:39:26Z</time>
      </trkpt>
      <trkpt lat="43.37466" lon="6.12076">
        <ele>349.60000610352</ele>
        <time>2013-03-16T15:39:27Z</time>
      </trkpt>
      <trkpt lat="43.37477" lon="6.12067">
        <ele>348.60000610352</ele>
        <time>2013-03-16T15:39:29Z</time>
      </trkpt>
      <trkpt lat="43.37484" lon="6.1206">
        <ele>348.20001220703</ele>
        <time>2013-03-16T15:39:30Z</time>
      </trkpt>
      <trkpt lat="43.3749" lon="6.12054">
        <ele>347.60000610352</ele>
        <time>2013-03-16T15:39:31Z</time>
      </trkpt>
      <trkpt lat="43.37497" lon="6.12047">
        <ele>346.79998779297</ele>
        <time>2013-03-16T15:39:32Z</time>
      </trkpt>
      <trkpt lat="43.37504" lon="6.12041">
        <ele>345.79998779297</ele>
        <time>2013-03-16T15:39:33Z</time>
      </trkpt>
      <trkpt lat="43.37511" lon="6.12033">
        <ele>345</ele>
        <time>2013-03-16T15:39:34Z</time>
      </trkpt>
      <trkpt lat="43.37519" lon="6.12025">
        <ele>344</ele>
        <time>2013-03-16T15:39:35Z</time>
      </trkpt>
      <trkpt lat="43.37526" lon="6.12017">
        <ele>342.79998779297</ele>
        <time>2013-03-16T15:39:36Z</time>
      </trkpt>
      <trkpt lat="43.37534" lon="6.12008">
        <ele>341.79998779297</ele>
        <time>2013-03-16T15:39:37Z</time>
      </trkpt>
      <trkpt lat="43.37557" lon="6.11983">
        <ele>338</ele>
        <time>2013-03-16T15:39:40Z</time>
      </trkpt>
      <trkpt lat="43.37587" lon="6.11959">
        <ele>332.79998779297</ele>
        <time>2013-03-16T15:39:44Z</time>
      </trkpt>
      <trkpt lat="43.37593" lon="6.11951">
        <ele>331.60000610352</ele>
        <time>2013-03-16T15:39:45Z</time>
      </trkpt>
      <trkpt lat="43.376" lon="6.11943">
        <ele>330.60000610352</ele>
        <time>2013-03-16T15:39:46Z</time>
      </trkpt>
      <trkpt lat="43.37606" lon="6.11932">
        <ele>329.60000610352</ele>
        <time>2013-03-16T15:39:47Z</time>
      </trkpt>
      <trkpt lat="43.37627" lon="6.11898">
        <ele>325.39999389648</ele>
        <time>2013-03-16T15:39:50Z</time>
      </trkpt>
      <trkpt lat="43.37643" lon="6.11874">
        <ele>323</ele>
        <time>2013-03-16T15:39:52Z</time>
      </trkpt>
      <trkpt lat="43.37659" lon="6.11852">
        <ele>320.60000610352</ele>
        <time>2013-03-16T15:39:54Z</time>
      </trkpt>
      <trkpt lat="43.37666" lon="6.11844">
        <ele>319.60000610352</ele>
        <time>2013-03-16T15:39:55Z</time>
      </trkpt>
      <trkpt lat="43.37672" lon="6.11835">
        <ele>318.79998779297</ele>
        <time>2013-03-16T15:39:56Z</time>
      </trkpt>
      <trkpt lat="43.37677" lon="6.11827">
        <ele>318</ele>
        <time>2013-03-16T15:39:57Z</time>
      </trkpt>
      <trkpt lat="43.37684" lon="6.11807">
        <ele>316.20001220703</ele>
        <time>2013-03-16T15:39:59Z</time>
      </trkpt>
      <trkpt lat="43.37692" lon="6.11783">
        <ele>314.39999389648</ele>
        <time>2013-03-16T15:40:01Z</time>
      </trkpt>
      <trkpt lat="43.37696" lon="6.11772">
        <ele>313.39999389648</ele>
        <time>2013-03-16T15:40:02Z</time>
      </trkpt>
      <trkpt lat="43.37701" lon="6.11761">
        <ele>312.20001220703</ele>
        <time>2013-03-16T15:40:03Z</time>
      </trkpt>
      <trkpt lat="43.37706" lon="6.11751">
        <ele>311</ele>
        <time>2013-03-16T15:40:04Z</time>
      </trkpt>
      <trkpt lat="43.37711" lon="6.11741">
        <ele>310.20001220703</ele>
        <time>2013-03-16T15:40:05Z</time>
      </trkpt>
      <trkpt lat="43.37733" lon="6.11701">
        <ele>306.79998779297</ele>
        <time>2013-03-16T15:40:09Z</time>
      </trkpt>
      <trkpt lat="43.37748" lon="6.11672">
        <ele>304</ele>
        <time>2013-03-16T15:40:12Z</time>
      </trkpt>
      <trkpt lat="43.37762" lon="6.11643">
        <ele>303.60000610352</ele>
        <time>2013-03-16T15:40:15Z</time>
      </trkpt>
      <trkpt lat="43.37768" lon="6.11633">
        <ele>303.20001220703</ele>
        <time>2013-03-16T15:40:16Z</time>
      </trkpt>
      <trkpt lat="43.37799" lon="6.11589">
        <ele>301.79998779297</ele>
        <time>2013-03-16T15:40:21Z</time>
      </trkpt>
      <trkpt lat="43.37813" lon="6.11573">
        <ele>300.79998779297</ele>
        <time>2013-03-16T15:40:23Z</time>
      </trkpt>
      <trkpt lat="43.37818" lon="6.11564">
        <ele>300.39999389648</ele>
        <time>2013-03-16T15:40:24Z</time>
      </trkpt>
      <trkpt lat="43.37822" lon="6.11555">
        <ele>300</ele>
        <time>2013-03-16T15:40:25Z</time>
      </trkpt>
      <trkpt lat="43.37833" lon="6.11527">
        <ele>299</ele>
        <time>2013-03-16T15:40:28Z</time>
      </trkpt>
      <trkpt lat="43.37843" lon="6.11499">
        <ele>297.79998779297</ele>
        <time>2013-03-16T15:40:31Z</time>
      </trkpt>
      <trkpt lat="43.37848" lon="6.11491">
        <ele>297.39999389648</ele>
        <time>2013-03-16T15:40:32Z</time>
      </trkpt>
      <trkpt lat="43.37852" lon="6.11483">
        <ele>297</ele>
        <time>2013-03-16T15:40:33Z</time>
      </trkpt>
      <trkpt lat="43.37859" lon="6.11476">
        <ele>296.60000610352</ele>
        <time>2013-03-16T15:40:34Z</time>
      </trkpt>
      <trkpt lat="43.37865" lon="6.11472">
        <ele>296</ele>
        <time>2013-03-16T15:40:35Z</time>
      </trkpt>
      <trkpt lat="43.37872" lon="6.11471">
        <ele>295.60000610352</ele>
        <time>2013-03-16T15:40:36Z</time>
      </trkpt>
      <trkpt lat="43.37878" lon="6.1147">
        <ele>295.20001220703</ele>
        <time>2013-03-16T15:40:37Z</time>
      </trkpt>
      <trkpt lat="43.379" lon="6.11456">
        <ele>295.20001220703</ele>
        <time>2013-03-16T15:40:41Z</time>
      </trkpt>
      <trkpt lat="43.3792" lon="6.11435">
        <ele>295.20001220703</ele>
        <time>2013-03-16T15:40:46Z</time>
      </trkpt>
      <trkpt lat="43.37929" lon="6.11425">
        <ele>295.20001220703</ele>
        <time>2013-03-16T15:40:49Z</time>
      </trkpt>
      <trkpt lat="43.37934" lon="6.11418">
        <ele>295.20001220703</ele>
        <time>2013-03-16T15:40:51Z</time>
      </trkpt>
      <trkpt lat="43.37948" lon="6.11398">
        <ele>295.20001220703</ele>
        <time>2013-03-16T15:40:56Z</time>
      </trkpt>
      <trkpt lat="43.37961" lon="6.11383">
        <ele>294</ele>
        <time>2013-03-16T15:41:00Z</time>
      </trkpt>
      <trkpt lat="43.37965" lon="6.11379">
        <ele>293.60000610352</ele>
        <time>2013-03-16T15:41:01Z</time>
      </trkpt>
      <trkpt lat="43.37968" lon="6.11376">
        <ele>293.20001220703</ele>
        <time>2013-03-16T15:41:02Z</time>
      </trkpt>
      <trkpt lat="43.3798" lon="6.11362">
        <ele>293.20001220703</ele>
        <time>2013-03-16T15:41:06Z</time>
      </trkpt>
      <trkpt lat="43.37986" lon="6.11353">
        <ele>293.20001220703</ele>
        <time>2013-03-16T15:41:10Z</time>
      </trkpt>
      <trkpt lat="43.37986" lon="6.11353">
        <ele>293.20001220703</ele>
        <time>2013-03-16T15:41:15Z</time>
      </trkpt>
      <trkpt lat="43.37986" lon="6.11353">
        <ele>293.20001220703</ele>
        <time>2013-03-16T15:41:16Z</time>
      </trkpt>
      <trkpt lat="43.37986" lon="6.11353">
        <ele>293.20001220703</ele>
        <time>2013-03-16T15:41:27Z</time>
      </trkpt>
      <trkpt lat="43.37991" lon="6.11345">
        <ele>293.20001220703</ele>
        <time>2013-03-16T15:41:32Z</time>
      </trkpt>
      <trkpt lat="43.37994" lon="6.11337">
        <ele>293.20001220703</ele>
        <time>2013-03-16T15:41:34Z</time>
      </trkpt>
      <trkpt lat="43.37998" lon="6.11328">
        <ele>293.20001220703</ele>
        <time>2013-03-16T15:41:36Z</time>
      </trkpt>
      <trkpt lat="43.38003" lon="6.11318">
        <ele>293.20001220703</ele>
        <time>2013-03-16T15:41:38Z</time>
      </trkpt>
      <trkpt lat="43.38013" lon="6.11298">
        <ele>293.20001220703</ele>
        <time>2013-03-16T15:41:42Z</time>
      </trkpt>
      <trkpt lat="43.38031" lon="6.11257">
        <ele>293.20001220703</ele>
        <time>2013-03-16T15:41:50Z</time>
      </trkpt>
      <trkpt lat="43.38041" lon="6.11236">
        <ele>293.20001220703</ele>
        <time>2013-03-16T15:41:55Z</time>
      </trkpt>
      <trkpt lat="43.38055" lon="6.11212">
        <ele>293.20001220703</ele>
        <time>2013-03-16T15:42:01Z</time>
      </trkpt>
      <trkpt lat="43.38077" lon="6.11186">
        <ele>293.20001220703</ele>
        <time>2013-03-16T15:42:07Z</time>
      </trkpt>
      <trkpt lat="43.38097" lon="6.11162">
        <ele>293.20001220703</ele>
        <time>2013-03-16T15:42:12Z</time>
      </trkpt>
      <trkpt lat="43.38102" lon="6.11157">
        <ele>293.20001220703</ele>
        <time>2013-03-16T15:42:13Z</time>
      </trkpt>
      <trkpt lat="43.38129" lon="6.11128">
        <ele>292.60000610352</ele>
        <time>2013-03-16T15:42:18Z</time>
      </trkpt>
      <trkpt lat="43.38135" lon="6.11122">
        <ele>292.20001220703</ele>
        <time>2013-03-16T15:42:19Z</time>
      </trkpt>
      <trkpt lat="43.38145" lon="6.11108">
        <ele>291.20001220703</ele>
        <time>2013-03-16T15:42:21Z</time>
      </trkpt>
      <trkpt lat="43.38157" lon="6.11082">
        <ele>290.79998779297</ele>
        <time>2013-03-16T15:42:24Z</time>
      </trkpt>
      <trkpt lat="43.38165" lon="6.11054">
        <ele>290</ele>
        <time>2013-03-16T15:42:27Z</time>
      </trkpt>
      <trkpt lat="43.38167" lon="6.11044">
        <ele>289.60000610352</ele>
        <time>2013-03-16T15:42:28Z</time>
      </trkpt>
      <trkpt lat="43.38169" lon="6.11033">
        <ele>289.20001220703</ele>
        <time>2013-03-16T15:42:29Z</time>
      </trkpt>
      <trkpt lat="43.38171" lon="6.11023">
        <ele>288.79998779297</ele>
        <time>2013-03-16T15:42:30Z</time>
      </trkpt>
      <trkpt lat="43.38179" lon="6.1098">
        <ele>288.39999389648</ele>
        <time>2013-03-16T15:42:34Z</time>
      </trkpt>
      <trkpt lat="43.38182" lon="6.10969">
        <ele>287.79998779297</ele>
        <time>2013-03-16T15:42:35Z</time>
      </trkpt>
      <trkpt lat="43.38184" lon="6.10958">
        <ele>287.39999389648</ele>
        <time>2013-03-16T15:42:36Z</time>
      </trkpt>
      <trkpt lat="43.38187" lon="6.10947">
        <ele>287</ele>
        <time>2013-03-16T15:42:37Z</time>
      </trkpt>
      <trkpt lat="43.38189" lon="6.10936">
        <ele>286.39999389648</ele>
        <time>2013-03-16T15:42:38Z</time>
      </trkpt>
      <trkpt lat="43.38195" lon="6.10897">
        <ele>286</ele>
        <time>2013-03-16T15:42:42Z</time>
      </trkpt>
      <trkpt lat="43.38196" lon="6.10892">
        <ele>285.60000610352</ele>
        <time>2013-03-16T15:42:43Z</time>
      </trkpt>
      <trkpt lat="43.38197" lon="6.10889">
        <ele>285</ele>
        <time>2013-03-16T15:42:44Z</time>
      </trkpt>
      <trkpt lat="43.38197" lon="6.10887">
        <ele>284.60000610352</ele>
        <time>2013-03-16T15:42:45Z</time>
      </trkpt>
      <trkpt lat="43.38197" lon="6.10886">
        <ele>284.20001220703</ele>
        <time>2013-03-16T15:42:46Z</time>
      </trkpt>
      <trkpt lat="43.38197" lon="6.10875">
        <ele>284.20001220703</ele>
        <time>2013-03-16T15:42:51Z</time>
      </trkpt>
      <trkpt lat="43.382" lon="6.10854">
        <ele>284.20001220703</ele>
        <time>2013-03-16T15:42:57Z</time>
      </trkpt>
      <trkpt lat="43.38204" lon="6.10831">
        <ele>284.20001220703</ele>
        <time>2013-03-16T15:43:03Z</time>
      </trkpt>
      <trkpt lat="43.38213" lon="6.10802">
        <ele>284.20001220703</ele>
        <time>2013-03-16T15:43:09Z</time>
      </trkpt>
      <trkpt lat="43.38218" lon="6.10789">
        <ele>283.79998779297</ele>
        <time>2013-03-16T15:43:11Z</time>
      </trkpt>
      <trkpt lat="43.38222" lon="6.10776">
        <ele>283</ele>
        <time>2013-03-16T15:43:13Z</time>
      </trkpt>
      <trkpt lat="43.38224" lon="6.10769">
        <ele>282.60000610352</ele>
        <time>2013-03-16T15:43:14Z</time>
      </trkpt>
      <trkpt lat="43.38228" lon="6.10756">
        <ele>282.20001220703</ele>
        <time>2013-03-16T15:43:16Z</time>
      </trkpt>
      <trkpt lat="43.38246" lon="6.10703">
        <ele>282.20001220703</ele>
        <time>2013-03-16T15:43:24Z</time>
      </trkpt>
      <trkpt lat="43.38268" lon="6.10655">
        <ele>282.20001220703</ele>
        <time>2013-03-16T15:43:31Z</time>
      </trkpt>
      <trkpt lat="43.38279" lon="6.10633">
        <ele>281.20001220703</ele>
        <time>2013-03-16T15:43:34Z</time>
      </trkpt>
      <trkpt lat="43.38287" lon="6.10617">
        <ele>280.39999389648</ele>
        <time>2013-03-16T15:43:36Z</time>
      </trkpt>
      <trkpt lat="43.38295" lon="6.10601">
        <ele>279.60000610352</ele>
        <time>2013-03-16T15:43:38Z</time>
      </trkpt>
      <trkpt lat="43.38301" lon="6.10583">
        <ele>278.79998779297</ele>
        <time>2013-03-16T15:43:40Z</time>
      </trkpt>
      <trkpt lat="43.38308" lon="6.10566">
        <ele>278</ele>
        <time>2013-03-16T15:43:42Z</time>
      </trkpt>
      <trkpt lat="43.38315" lon="6.10549">
        <ele>278</ele>
        <time>2013-03-16T15:43:44Z</time>
      </trkpt>
      <trkpt lat="43.38336" lon="6.10493">
        <ele>278</ele>
        <time>2013-03-16T15:43:50Z</time>
      </trkpt>
      <trkpt lat="43.38349" lon="6.10483">
        <ele>278</ele>
        <time>2013-03-16T15:43:52Z</time>
      </trkpt>
      <trkpt lat="43.38356" lon="6.10481">
        <ele>277.39999389648</ele>
        <time>2013-03-16T15:43:53Z</time>
      </trkpt>
      <trkpt lat="43.38363" lon="6.1048">
        <ele>276.60000610352</ele>
        <time>2013-03-16T15:43:54Z</time>
      </trkpt>
      <trkpt lat="43.3837" lon="6.10479">
        <ele>276.20001220703</ele>
        <time>2013-03-16T15:43:55Z</time>
      </trkpt>
      <trkpt lat="43.38377" lon="6.10479">
        <ele>275.79998779297</ele>
        <time>2013-03-16T15:43:56Z</time>
      </trkpt>
      <trkpt lat="43.38383" lon="6.10478">
        <ele>275.79998779297</ele>
        <time>2013-03-16T15:43:57Z</time>
      </trkpt>
      <trkpt lat="43.38408" lon="6.10475">
        <ele>275.79998779297</ele>
        <time>2013-03-16T15:44:01Z</time>
      </trkpt>
      <trkpt lat="43.38418" lon="6.10473">
        <ele>275.79998779297</ele>
        <time>2013-03-16T15:44:03Z</time>
      </trkpt>
      <trkpt lat="43.38431" lon="6.10471">
        <ele>275.79998779297</ele>
        <time>2013-03-16T15:44:06Z</time>
      </trkpt>
      <trkpt lat="43.38438" lon="6.10467">
        <ele>275.79998779297</ele>
        <time>2013-03-16T15:44:08Z</time>
      </trkpt>
      <trkpt lat="43.38443" lon="6.10463">
        <ele>276.60000610352</ele>
        <time>2013-03-16T15:44:10Z</time>
      </trkpt>
      <trkpt lat="43.38445" lon="6.10461">
        <ele>277</ele>
        <time>2013-03-16T15:44:11Z</time>
      </trkpt>
      <trkpt lat="43.38448" lon="6.10459">
        <ele>277.39999389648</ele>
        <time>2013-03-16T15:44:12Z</time>
      </trkpt>
      <trkpt lat="43.3845" lon="6.10457">
        <ele>277.79998779297</ele>
        <time>2013-03-16T15:44:13Z</time>
      </trkpt>
      <trkpt lat="43.38456" lon="6.10451">
        <ele>278.39999389648</ele>
        <time>2013-03-16T15:44:16Z</time>
      </trkpt>
      <trkpt lat="43.3846" lon="6.10448">
        <ele>279.20001220703</ele>
        <time>2013-03-16T15:44:18Z</time>
      </trkpt>
      <trkpt lat="43.38462" lon="6.10446">
        <ele>280.20001220703</ele>
        <time>2013-03-16T15:44:19Z</time>
      </trkpt>
      <trkpt lat="43.38466" lon="6.10442">
        <ele>280.20001220703</ele>
        <time>2013-03-16T15:44:21Z</time>
      </trkpt>
      <trkpt lat="43.38476" lon="6.10433">
        <ele>282.39999389648</ele>
        <time>2013-03-16T15:44:26Z</time>
      </trkpt>
      <trkpt lat="43.38482" lon="6.10427">
        <ele>283.79998779297</ele>
        <time>2013-03-16T15:44:29Z</time>
      </trkpt>
      <trkpt lat="43.3849" lon="6.10413">
        <ele>286</ele>
        <time>2013-03-16T15:44:35Z</time>
      </trkpt>
      <trkpt lat="43.38492" lon="6.10409">
        <ele>287</ele>
        <time>2013-03-16T15:44:37Z</time>
      </trkpt>
      <trkpt lat="43.38499" lon="6.10399">
        <ele>288.20001220703</ele>
        <time>2013-03-16T15:44:42Z</time>
      </trkpt>
      <trkpt lat="43.38502" lon="6.10396">
        <ele>289</ele>
        <time>2013-03-16T15:44:44Z</time>
      </trkpt>
      <trkpt lat="43.38505" lon="6.1039">
        <ele>289</ele>
        <time>2013-03-16T15:44:48Z</time>
      </trkpt>
      <trkpt lat="43.38512" lon="6.1038">
        <ele>291</ele>
        <time>2013-03-16T15:44:54Z</time>
      </trkpt>
      <trkpt lat="43.38518" lon="6.10375">
        <ele>291</ele>
        <time>2013-03-16T15:44:58Z</time>
      </trkpt>
      <trkpt lat="43.38523" lon="6.1037">
        <ele>291</ele>
        <time>2013-03-16T15:45:02Z</time>
      </trkpt>
      <trkpt lat="43.38525" lon="6.10369">
        <ele>291.39999389648</ele>
        <time>2013-03-16T15:45:04Z</time>
      </trkpt>
      <trkpt lat="43.38527" lon="6.10365">
        <ele>292.79998779297</ele>
        <time>2013-03-16T15:45:07Z</time>
      </trkpt>
      <trkpt lat="43.38529" lon="6.10363">
        <ele>293.20001220703</ele>
        <time>2013-03-16T15:45:10Z</time>
      </trkpt>
      <trkpt lat="43.3853" lon="6.10362">
        <ele>293.20001220703</ele>
        <time>2013-03-16T15:45:12Z</time>
      </trkpt>
      <trkpt lat="43.38531" lon="6.10363">
        <ele>293.20001220703</ele>
        <time>2013-03-16T15:45:16Z</time>
      </trkpt>
      <trkpt lat="43.38531" lon="6.10363">
        <ele>293.20001220703</ele>
        <time>2013-03-16T15:45:34Z</time>
      </trkpt>
      <trkpt lat="43.38531" lon="6.10363">
        <ele>293.20001220703</ele>
        <time>2013-03-16T15:46:17Z</time>
      </trkpt>
      <trkpt lat="43.38531" lon="6.10363">
        <ele>293.20001220703</ele>
        <time>2013-03-16T15:46:29Z</time>
      </trkpt>
      <trkpt lat="43.38532" lon="6.10363">
        <ele>293.20001220703</ele>
        <time>2013-03-16T15:46:32Z</time>
      </trkpt>
      <trkpt lat="43.38533" lon="6.10362">
        <ele>293.20001220703</ele>
        <time>2013-03-16T15:46:33Z</time>
      </trkpt>
      <trkpt lat="43.38534" lon="6.1036">
        <ele>293.20001220703</ele>
        <time>2013-03-16T15:46:34Z</time>
      </trkpt>
      <trkpt lat="43.38538" lon="6.10357">
        <ele>293.20001220703</ele>
        <time>2013-03-16T15:46:37Z</time>
      </trkpt>
      <trkpt lat="43.38541" lon="6.10355">
        <ele>293.60000610352</ele>
        <time>2013-03-16T15:46:39Z</time>
      </trkpt>
      <trkpt lat="43.38543" lon="6.10353">
        <ele>294.39999389648</ele>
        <time>2013-03-16T15:46:41Z</time>
      </trkpt>
      <trkpt lat="43.38545" lon="6.10352">
        <ele>294.79998779297</ele>
        <time>2013-03-16T15:46:42Z</time>
      </trkpt>
      <trkpt lat="43.38547" lon="6.10351">
        <ele>295.20001220703</ele>
        <time>2013-03-16T15:46:43Z</time>
      </trkpt>
      <trkpt lat="43.38551" lon="6.10346">
        <ele>295.20001220703</ele>
        <time>2013-03-16T15:46:47Z</time>
      </trkpt>
      <trkpt lat="43.38573" lon="6.10325">
        <ele>297.20001220703</ele>
        <time>2013-03-16T15:46:59Z</time>
      </trkpt>
      <trkpt lat="43.38587" lon="6.10317">
        <ele>297.20001220703</ele>
        <time>2013-03-16T15:47:05Z</time>
      </trkpt>
      <trkpt lat="43.38599" lon="6.10313">
        <ele>297.20001220703</ele>
        <time>2013-03-16T15:47:10Z</time>
      </trkpt>
      <trkpt lat="43.38614" lon="6.1031">
        <ele>297.20001220703</ele>
        <time>2013-03-16T15:47:16Z</time>
      </trkpt>
      <trkpt lat="43.38628" lon="6.10311">
        <ele>297.20001220703</ele>
        <time>2013-03-16T15:47:21Z</time>
      </trkpt>
      <trkpt lat="43.38631" lon="6.10311">
        <ele>297.20001220703</ele>
        <time>2013-03-16T15:47:22Z</time>
      </trkpt>
      <trkpt lat="43.38646" lon="6.1031">
        <ele>297.20001220703</ele>
        <time>2013-03-16T15:47:28Z</time>
      </trkpt>
      <trkpt lat="43.38659" lon="6.10308">
        <ele>297.20001220703</ele>
        <time>2013-03-16T15:47:34Z</time>
      </trkpt>
      <trkpt lat="43.38671" lon="6.10299">
        <ele>297.20001220703</ele>
        <time>2013-03-16T15:47:40Z</time>
      </trkpt>
      <trkpt lat="43.38681" lon="6.10281">
        <ele>297.20001220703</ele>
        <time>2013-03-16T15:47:48Z</time>
      </trkpt>
      <trkpt lat="43.38683" lon="6.10261">
        <ele>299.20001220703</ele>
        <time>2013-03-16T15:47:54Z</time>
      </trkpt>
      <trkpt lat="43.38683" lon="6.10237">
        <ele>299.20001220703</ele>
        <time>2013-03-16T15:48:01Z</time>
      </trkpt>
      <trkpt lat="43.38684" lon="6.1022">
        <ele>299.20001220703</ele>
        <time>2013-03-16T15:48:07Z</time>
      </trkpt>
      <trkpt lat="43.38685" lon="6.10217">
        <ele>299.20001220703</ele>
        <time>2013-03-16T15:48:10Z</time>
      </trkpt>
      <trkpt lat="43.38686" lon="6.10213">
        <ele>299.20001220703</ele>
        <time>2013-03-16T15:48:12Z</time>
      </trkpt>
      <trkpt lat="43.38695" lon="6.10209">
        <ele>299.20001220703</ele>
        <time>2013-03-16T15:48:16Z</time>
      </trkpt>
      <trkpt lat="43.38712" lon="6.10202">
        <ele>299.60000610352</ele>
        <time>2013-03-16T15:48:23Z</time>
      </trkpt>
      <trkpt lat="43.38717" lon="6.10201">
        <ele>300.39999389648</ele>
        <time>2013-03-16T15:48:25Z</time>
      </trkpt>
      <trkpt lat="43.38729" lon="6.10196">
        <ele>301.20001220703</ele>
        <time>2013-03-16T15:48:31Z</time>
      </trkpt>
      <trkpt lat="43.38741" lon="6.10192">
        <ele>301.60000610352</ele>
        <time>2013-03-16T15:48:37Z</time>
      </trkpt>
      <trkpt lat="43.38743" lon="6.10192">
        <ele>302</ele>
        <time>2013-03-16T15:48:38Z</time>
      </trkpt>
      <trkpt lat="43.3875" lon="6.10188">
        <ele>303.20001220703</ele>
        <time>2013-03-16T15:48:41Z</time>
      </trkpt>
      <trkpt lat="43.38765" lon="6.10183">
        <ele>303.20001220703</ele>
        <time>2013-03-16T15:48:46Z</time>
      </trkpt>
      <trkpt lat="43.38779" lon="6.10178">
        <ele>303.79998779297</ele>
        <time>2013-03-16T15:48:50Z</time>
      </trkpt>
      <trkpt lat="43.38786" lon="6.10176">
        <ele>305</ele>
        <time>2013-03-16T15:48:52Z</time>
      </trkpt>
      <trkpt lat="43.38789" lon="6.10175">
        <ele>305.60000610352</ele>
        <time>2013-03-16T15:48:53Z</time>
      </trkpt>
      <trkpt lat="43.38803" lon="6.10169">
        <ele>305.60000610352</ele>
        <time>2013-03-16T15:48:57Z</time>
      </trkpt>
      <trkpt lat="43.38809" lon="6.10167">
        <ele>306</ele>
        <time>2013-03-16T15:48:59Z</time>
      </trkpt>
      <trkpt lat="43.38812" lon="6.10166">
        <ele>306.39999389648</ele>
        <time>2013-03-16T15:49:00Z</time>
      </trkpt>
      <trkpt lat="43.38815" lon="6.10166">
        <ele>306.79998779297</ele>
        <time>2013-03-16T15:49:01Z</time>
      </trkpt>
      <trkpt lat="43.3882" lon="6.10165">
        <ele>307.60000610352</ele>
        <time>2013-03-16T15:49:03Z</time>
      </trkpt>
      <trkpt lat="43.38822" lon="6.10166">
        <ele>307.60000610352</ele>
        <time>2013-03-16T15:49:04Z</time>
      </trkpt>
      <trkpt lat="43.38824" lon="6.10171">
        <ele>307.60000610352</ele>
        <time>2013-03-16T15:49:06Z</time>
      </trkpt>
      <trkpt lat="43.38825" lon="6.10175">
        <ele>307.60000610352</ele>
        <time>2013-03-16T15:49:09Z</time>
      </trkpt>
      <trkpt lat="43.38825" lon="6.10176">
        <ele>307.60000610352</ele>
        <time>2013-03-16T15:49:10Z</time>
      </trkpt>
      <trkpt lat="43.38826" lon="6.1018">
        <ele>307.60000610352</ele>
        <time>2013-03-16T15:49:12Z</time>
      </trkpt>
      <trkpt lat="43.38828" lon="6.10202">
        <ele>307.60000610352</ele>
        <time>2013-03-16T15:49:17Z</time>
      </trkpt>
      <trkpt lat="43.38828" lon="6.10214">
        <ele>307.60000610352</ele>
        <time>2013-03-16T15:49:19Z</time>
      </trkpt>
      <trkpt lat="43.3883" lon="6.10235">
        <ele>307.60000610352</ele>
        <time>2013-03-16T15:49:22Z</time>
      </trkpt>
      <trkpt lat="43.38832" lon="6.10266">
        <ele>307.20001220703</ele>
        <time>2013-03-16T15:49:26Z</time>
      </trkpt>
      <trkpt lat="43.38833" lon="6.10283">
        <ele>306.39999389648</ele>
        <time>2013-03-16T15:49:28Z</time>
      </trkpt>
      <trkpt lat="43.38835" lon="6.10301">
        <ele>305.60000610352</ele>
        <time>2013-03-16T15:49:30Z</time>
      </trkpt>
      <trkpt lat="43.3884" lon="6.1035">
        <ele>305</ele>
        <time>2013-03-16T15:49:35Z</time>
      </trkpt>
      <trkpt lat="43.38842" lon="6.10372">
        <ele>304</ele>
        <time>2013-03-16T15:49:37Z</time>
      </trkpt>
      <trkpt lat="43.38844" lon="6.10383">
        <ele>303.60000610352</ele>
        <time>2013-03-16T15:49:38Z</time>
      </trkpt>
      <trkpt lat="43.38845" lon="6.10394">
        <ele>303</ele>
        <time>2013-03-16T15:49:39Z</time>
      </trkpt>
      <trkpt lat="43.38846" lon="6.10404">
        <ele>302.60000610352</ele>
        <time>2013-03-16T15:49:40Z</time>
      </trkpt>
      <trkpt lat="43.38846" lon="6.10415">
        <ele>301.60000610352</ele>
        <time>2013-03-16T15:49:41Z</time>
      </trkpt>
      <trkpt lat="43.38846" lon="6.10425">
        <ele>301</ele>
        <time>2013-03-16T15:49:42Z</time>
      </trkpt>
      <trkpt lat="43.38845" lon="6.10436">
        <ele>300.39999389648</ele>
        <time>2013-03-16T15:49:43Z</time>
      </trkpt>
      <trkpt lat="43.38842" lon="6.10456">
        <ele>299.20001220703</ele>
        <time>2013-03-16T15:49:45Z</time>
      </trkpt>
      <trkpt lat="43.38833" lon="6.10512">
        <ele>297.39999389648</ele>
        <time>2013-03-16T15:49:51Z</time>
      </trkpt>
      <trkpt lat="43.38829" lon="6.10531">
        <ele>296.39999389648</ele>
        <time>2013-03-16T15:49:53Z</time>
      </trkpt>
      <trkpt lat="43.38818" lon="6.10584">
        <ele>296</ele>
        <time>2013-03-16T15:49:59Z</time>
      </trkpt>
      <trkpt lat="43.38813" lon="6.106">
        <ele>295.20001220703</ele>
        <time>2013-03-16T15:50:01Z</time>
      </trkpt>
      <trkpt lat="43.38805" lon="6.10628">
        <ele>294.20001220703</ele>
        <time>2013-03-16T15:50:05Z</time>
      </trkpt>
      <trkpt lat="43.38791" lon="6.10674">
        <ele>293.79998779297</ele>
        <time>2013-03-16T15:50:12Z</time>
      </trkpt>
      <trkpt lat="43.38785" lon="6.10694">
        <ele>292.39999389648</ele>
        <time>2013-03-16T15:50:15Z</time>
      </trkpt>
      <trkpt lat="43.38783" lon="6.10701">
        <ele>292</ele>
        <time>2013-03-16T15:50:16Z</time>
      </trkpt>
      <trkpt lat="43.38777" lon="6.10726">
        <ele>292</ele>
        <time>2013-03-16T15:50:20Z</time>
      </trkpt>
      <trkpt lat="43.38775" lon="6.10731">
        <ele>292</ele>
        <time>2013-03-16T15:50:21Z</time>
      </trkpt>
      <trkpt lat="43.38773" lon="6.10745">
        <ele>292</ele>
        <time>2013-03-16T15:50:24Z</time>
      </trkpt>
      <trkpt lat="43.38774" lon="6.1075">
        <ele>292</ele>
        <time>2013-03-16T15:50:25Z</time>
      </trkpt>
      <trkpt lat="43.38783" lon="6.10758">
        <ele>292</ele>
        <time>2013-03-16T15:50:28Z</time>
      </trkpt>
      <trkpt lat="43.38794" lon="6.10758">
        <ele>291.39999389648</ele>
        <time>2013-03-16T15:50:30Z</time>
      </trkpt>
      <trkpt lat="43.38811" lon="6.10756">
        <ele>289.20001220703</ele>
        <time>2013-03-16T15:50:33Z</time>
      </trkpt>
      <trkpt lat="43.38836" lon="6.10755">
        <ele>288.79998779297</ele>
        <time>2013-03-16T15:50:37Z</time>
      </trkpt>
      <trkpt lat="43.38842" lon="6.10755">
        <ele>288.39999389648</ele>
        <time>2013-03-16T15:50:38Z</time>
      </trkpt>
      <trkpt lat="43.38848" lon="6.10755">
        <ele>288</ele>
        <time>2013-03-16T15:50:39Z</time>
      </trkpt>
      <trkpt lat="43.38855" lon="6.10755">
        <ele>287.60000610352</ele>
        <time>2013-03-16T15:50:40Z</time>
      </trkpt>
      <trkpt lat="43.38861" lon="6.10754">
        <ele>287.20001220703</ele>
        <time>2013-03-16T15:50:41Z</time>
      </trkpt>
      <trkpt lat="43.38879" lon="6.10757">
        <ele>287.20001220703</ele>
        <time>2013-03-16T15:50:44Z</time>
      </trkpt>
      <trkpt lat="43.38897" lon="6.10761">
        <ele>286.39999389648</ele>
        <time>2013-03-16T15:50:47Z</time>
      </trkpt>
      <trkpt lat="43.38908" lon="6.10768">
        <ele>285.60000610352</ele>
        <time>2013-03-16T15:50:49Z</time>
      </trkpt>
      <trkpt lat="43.38913" lon="6.10775">
        <ele>285.20001220703</ele>
        <time>2013-03-16T15:50:50Z</time>
      </trkpt>
      <trkpt lat="43.38926" lon="6.10812">
        <ele>285.20001220703</ele>
        <time>2013-03-16T15:50:55Z</time>
      </trkpt>
      <trkpt lat="43.38934" lon="6.10822">
        <ele>285.20001220703</ele>
        <time>2013-03-16T15:50:57Z</time>
      </trkpt>
      <trkpt lat="43.38956" lon="6.10833">
        <ele>285.20001220703</ele>
        <time>2013-03-16T15:51:01Z</time>
      </trkpt>
      <trkpt lat="43.38986" lon="6.10844">
        <ele>285.20001220703</ele>
        <time>2013-03-16T15:51:07Z</time>
      </trkpt>
      <trkpt lat="43.39007" lon="6.10841">
        <ele>285.20001220703</ele>
        <time>2013-03-16T15:51:11Z</time>
      </trkpt>
      <trkpt lat="43.39012" lon="6.10838">
        <ele>285.20001220703</ele>
        <time>2013-03-16T15:51:12Z</time>
      </trkpt>
      <trkpt lat="43.39025" lon="6.1083">
        <ele>285.20001220703</ele>
        <time>2013-03-16T15:51:15Z</time>
      </trkpt>
      <trkpt lat="43.39073" lon="6.10814">
        <ele>285.20001220703</ele>
        <time>2013-03-16T15:51:25Z</time>
      </trkpt>
      <trkpt lat="43.39082" lon="6.10807">
        <ele>285.20001220703</ele>
        <time>2013-03-16T15:51:27Z</time>
      </trkpt>
      <trkpt lat="43.39088" lon="6.10798">
        <ele>285.20001220703</ele>
        <time>2013-03-16T15:51:29Z</time>
      </trkpt>
      <trkpt lat="43.39091" lon="6.10794">
        <ele>285.20001220703</ele>
        <time>2013-03-16T15:51:30Z</time>
      </trkpt>
      <trkpt lat="43.39103" lon="6.10782">
        <ele>285.20001220703</ele>
        <time>2013-03-16T15:51:33Z</time>
      </trkpt>
      <trkpt lat="43.39111" lon="6.10774">
        <ele>285.20001220703</ele>
        <time>2013-03-16T15:51:35Z</time>
      </trkpt>
      <trkpt lat="43.39138" lon="6.10757">
        <ele>284</ele>
        <time>2013-03-16T15:51:40Z</time>
      </trkpt>
      <trkpt lat="43.3915" lon="6.1075">
        <ele>283.20001220703</ele>
        <time>2013-03-16T15:51:42Z</time>
      </trkpt>
      <trkpt lat="43.39161" lon="6.10739">
        <ele>283.20001220703</ele>
        <time>2013-03-16T15:51:44Z</time>
      </trkpt>
      <trkpt lat="43.39166" lon="6.10733">
        <ele>282.60000610352</ele>
        <time>2013-03-16T15:51:45Z</time>
      </trkpt>
      <trkpt lat="43.3917" lon="6.10726">
        <ele>282.20001220703</ele>
        <time>2013-03-16T15:51:46Z</time>
      </trkpt>
      <trkpt lat="43.39173" lon="6.10718">
        <ele>281.79998779297</ele>
        <time>2013-03-16T15:51:47Z</time>
      </trkpt>
      <trkpt lat="43.39176" lon="6.1071">
        <ele>281.20001220703</ele>
        <time>2013-03-16T15:51:48Z</time>
      </trkpt>
      <trkpt lat="43.39178" lon="6.107">
        <ele>280.79998779297</ele>
        <time>2013-03-16T15:51:49Z</time>
      </trkpt>
      <trkpt lat="43.39181" lon="6.10682">
        <ele>280.79998779297</ele>
        <time>2013-03-16T15:51:51Z</time>
      </trkpt>
      <trkpt lat="43.39185" lon="6.10666">
        <ele>280.79998779297</ele>
        <time>2013-03-16T15:51:53Z</time>
      </trkpt>
      <trkpt lat="43.392" lon="6.10641">
        <ele>280.79998779297</ele>
        <time>2013-03-16T15:51:57Z</time>
      </trkpt>
      <trkpt lat="43.39214" lon="6.10632">
        <ele>280.79998779297</ele>
        <time>2013-03-16T15:52:00Z</time>
      </trkpt>
      <trkpt lat="43.39222" lon="6.10623">
        <ele>280.79998779297</ele>
        <time>2013-03-16T15:52:02Z</time>
      </trkpt>
      <trkpt lat="43.3924" lon="6.10601">
        <ele>280.79998779297</ele>
        <time>2013-03-16T15:52:07Z</time>
      </trkpt>
      <trkpt lat="43.39252" lon="6.10593">
        <ele>280.79998779297</ele>
        <time>2013-03-16T15:52:10Z</time>
      </trkpt>
      <trkpt lat="43.3926" lon="6.10583">
        <ele>280.79998779297</ele>
        <time>2013-03-16T15:52:12Z</time>
      </trkpt>
      <trkpt lat="43.39263" lon="6.10577">
        <ele>280.79998779297</ele>
        <time>2013-03-16T15:52:13Z</time>
      </trkpt>
      <trkpt lat="43.39268" lon="6.10565">
        <ele>280.79998779297</ele>
        <time>2013-03-16T15:52:15Z</time>
      </trkpt>
      <trkpt lat="43.39277" lon="6.10531">
        <ele>280.79998779297</ele>
        <time>2013-03-16T15:52:20Z</time>
      </trkpt>
      <trkpt lat="43.39293" lon="6.10487">
        <ele>280.79998779297</ele>
        <time>2013-03-16T15:52:26Z</time>
      </trkpt>
      <trkpt lat="43.39297" lon="6.10481">
        <ele>280.39999389648</ele>
        <time>2013-03-16T15:52:27Z</time>
      </trkpt>
      <trkpt lat="43.39302" lon="6.10474">
        <ele>280</ele>
        <time>2013-03-16T15:52:28Z</time>
      </trkpt>
      <trkpt lat="43.3931" lon="6.10461">
        <ele>279.20001220703</ele>
        <time>2013-03-16T15:52:30Z</time>
      </trkpt>
      <trkpt lat="43.39318" lon="6.10447">
        <ele>278.79998779297</ele>
        <time>2013-03-16T15:52:32Z</time>
      </trkpt>
      <trkpt lat="43.39326" lon="6.10432">
        <ele>277.20001220703</ele>
        <time>2013-03-16T15:52:34Z</time>
      </trkpt>
      <trkpt lat="43.39336" lon="6.10421">
        <ele>276.20001220703</ele>
        <time>2013-03-16T15:52:36Z</time>
      </trkpt>
      <trkpt lat="43.39341" lon="6.10419">
        <ele>276.20001220703</ele>
        <time>2013-03-16T15:52:37Z</time>
      </trkpt>
      <trkpt lat="43.39358" lon="6.10418">
        <ele>276.20001220703</ele>
        <time>2013-03-16T15:52:40Z</time>
      </trkpt>
      <trkpt lat="43.39363" lon="6.10414">
        <ele>275.60000610352</ele>
        <time>2013-03-16T15:52:41Z</time>
      </trkpt>
      <trkpt lat="43.39367" lon="6.10407">
        <ele>275.20001220703</ele>
        <time>2013-03-16T15:52:42Z</time>
      </trkpt>
      <trkpt lat="43.39372" lon="6.10384">
        <ele>273.60000610352</ele>
        <time>2013-03-16T15:52:45Z</time>
      </trkpt>
      <trkpt lat="43.39386" lon="6.10361">
        <ele>273.60000610352</ele>
        <time>2013-03-16T15:52:49Z</time>
      </trkpt>
      <trkpt lat="43.39401" lon="6.10334">
        <ele>273.60000610352</ele>
        <time>2013-03-16T15:52:54Z</time>
      </trkpt>
      <trkpt lat="43.39417" lon="6.10309">
        <ele>273.60000610352</ele>
        <time>2013-03-16T15:52:59Z</time>
      </trkpt>
      <trkpt lat="43.39421" lon="6.10305">
        <ele>273.60000610352</ele>
        <time>2013-03-16T15:53:00Z</time>
      </trkpt>
      <trkpt lat="43.39433" lon="6.10294">
        <ele>273.60000610352</ele>
        <time>2013-03-16T15:53:03Z</time>
      </trkpt>
      <trkpt lat="43.39442" lon="6.10287">
        <ele>273.20001220703</ele>
        <time>2013-03-16T15:53:05Z</time>
      </trkpt>
      <trkpt lat="43.39454" lon="6.10276">
        <ele>272</ele>
        <time>2013-03-16T15:53:08Z</time>
      </trkpt>
      <trkpt lat="43.39458" lon="6.10271">
        <ele>271.60000610352</ele>
        <time>2013-03-16T15:53:09Z</time>
      </trkpt>
      <trkpt lat="43.39468" lon="6.10262">
        <ele>271.60000610352</ele>
        <time>2013-03-16T15:53:11Z</time>
      </trkpt>
      <trkpt lat="43.39482" lon="6.10245">
        <ele>271.60000610352</ele>
        <time>2013-03-16T15:53:14Z</time>
      </trkpt>
      <trkpt lat="43.39486" lon="6.10238">
        <ele>271.20001220703</ele>
        <time>2013-03-16T15:53:15Z</time>
      </trkpt>
      <trkpt lat="43.39489" lon="6.10231">
        <ele>270.60000610352</ele>
        <time>2013-03-16T15:53:16Z</time>
      </trkpt>
      <trkpt lat="43.39493" lon="6.10224">
        <ele>270.20001220703</ele>
        <time>2013-03-16T15:53:17Z</time>
      </trkpt>
      <trkpt lat="43.39496" lon="6.10216">
        <ele>269.60000610352</ele>
        <time>2013-03-16T15:53:18Z</time>
      </trkpt>
      <trkpt lat="43.39499" lon="6.10208">
        <ele>269</ele>
        <time>2013-03-16T15:53:19Z</time>
      </trkpt>
      <trkpt lat="43.39503" lon="6.10193">
        <ele>268.60000610352</ele>
        <time>2013-03-16T15:53:21Z</time>
      </trkpt>
      <trkpt lat="43.39504" lon="6.10186">
        <ele>268.20001220703</ele>
        <time>2013-03-16T15:53:22Z</time>
      </trkpt>
      <trkpt lat="43.39506" lon="6.10178">
        <ele>267.20001220703</ele>
        <time>2013-03-16T15:53:23Z</time>
      </trkpt>
      <trkpt lat="43.39508" lon="6.10171">
        <ele>266.79998779297</ele>
        <time>2013-03-16T15:53:24Z</time>
      </trkpt>
      <trkpt lat="43.39514" lon="6.1015">
        <ele>266.79998779297</ele>
        <time>2013-03-16T15:53:27Z</time>
      </trkpt>
      <trkpt lat="43.39525" lon="6.1011">
        <ele>266.39999389648</ele>
        <time>2013-03-16T15:53:33Z</time>
      </trkpt>
      <trkpt lat="43.39526" lon="6.10106">
        <ele>265.79998779297</ele>
        <time>2013-03-16T15:53:34Z</time>
      </trkpt>
      <trkpt lat="43.39526" lon="6.10106">
        <ele>265.39999389648</ele>
        <time>2013-03-16T15:53:35Z</time>
      </trkpt>
      <trkpt lat="43.39527" lon="6.10105">
        <ele>264.39999389648</ele>
        <time>2013-03-16T15:53:37Z</time>
      </trkpt>
      <trkpt lat="43.3953" lon="6.101">
        <ele>264.39999389648</ele>
        <time>2013-03-16T15:53:39Z</time>
      </trkpt>
      <trkpt lat="43.39532" lon="6.10097">
        <ele>264.39999389648</ele>
        <time>2013-03-16T15:53:40Z</time>
      </trkpt>
      <trkpt lat="43.39537" lon="6.10089">
        <ele>264.39999389648</ele>
        <time>2013-03-16T15:53:42Z</time>
      </trkpt>
      <trkpt lat="43.39542" lon="6.10077">
        <ele>264.39999389648</ele>
        <time>2013-03-16T15:53:44Z</time>
      </trkpt>
      <trkpt lat="43.39546" lon="6.10063">
        <ele>264</ele>
        <time>2013-03-16T15:53:46Z</time>
      </trkpt>
      <trkpt lat="43.39548" lon="6.10056">
        <ele>263.60000610352</ele>
        <time>2013-03-16T15:53:47Z</time>
      </trkpt>
      <trkpt lat="43.3955" lon="6.10049">
        <ele>262.79998779297</ele>
        <time>2013-03-16T15:53:48Z</time>
      </trkpt>
      <trkpt lat="43.39553" lon="6.10042">
        <ele>262.39999389648</ele>
        <time>2013-03-16T15:53:49Z</time>
      </trkpt>
      <trkpt lat="43.39558" lon="6.10021">
        <ele>262.39999389648</ele>
        <time>2013-03-16T15:53:52Z</time>
      </trkpt>
      <trkpt lat="43.39555" lon="6.10011">
        <ele>262.39999389648</ele>
        <time>2013-03-16T15:53:54Z</time>
      </trkpt>
      <trkpt lat="43.39553" lon="6.09998">
        <ele>262.39999389648</ele>
        <time>2013-03-16T15:53:57Z</time>
      </trkpt>
      <trkpt lat="43.39553" lon="6.0999">
        <ele>262.39999389648</ele>
        <time>2013-03-16T15:54:01Z</time>
      </trkpt>
      <trkpt lat="43.39553" lon="6.09988">
        <ele>262.39999389648</ele>
        <time>2013-03-16T15:54:02Z</time>
      </trkpt>
      <trkpt lat="43.39554" lon="6.09972">
        <ele>262.39999389648</ele>
        <time>2013-03-16T15:54:08Z</time>
      </trkpt>
      <trkpt lat="43.39554" lon="6.09952">
        <ele>262.39999389648</ele>
        <time>2013-03-16T15:54:13Z</time>
      </trkpt>
      <trkpt lat="43.39552" lon="6.09938">
        <ele>262.39999389648</ele>
        <time>2013-03-16T15:54:16Z</time>
      </trkpt>
      <trkpt lat="43.3955" lon="6.09931">
        <ele>263.20001220703</ele>
        <time>2013-03-16T15:54:18Z</time>
      </trkpt>
      <trkpt lat="43.39548" lon="6.09928">
        <ele>263.79998779297</ele>
        <time>2013-03-16T15:54:19Z</time>
      </trkpt>
      <trkpt lat="43.39546" lon="6.09925">
        <ele>264.20001220703</ele>
        <time>2013-03-16T15:54:20Z</time>
      </trkpt>
      <trkpt lat="43.39545" lon="6.09922">
        <ele>264.60000610352</ele>
        <time>2013-03-16T15:54:21Z</time>
      </trkpt>
      <trkpt lat="43.39544" lon="6.09915">
        <ele>264.60000610352</ele>
        <time>2013-03-16T15:54:23Z</time>
      </trkpt>
      <trkpt lat="43.39544" lon="6.09908">
        <ele>265.39999389648</ele>
        <time>2013-03-16T15:54:25Z</time>
      </trkpt>
      <trkpt lat="43.39546" lon="6.09901">
        <ele>266.39999389648</ele>
        <time>2013-03-16T15:54:27Z</time>
      </trkpt>
      <trkpt lat="43.39548" lon="6.09897">
        <ele>266.79998779297</ele>
        <time>2013-03-16T15:54:29Z</time>
      </trkpt>
      <trkpt lat="43.39553" lon="6.09886">
        <ele>266.79998779297</ele>
        <time>2013-03-16T15:54:33Z</time>
      </trkpt>
      <trkpt lat="43.39558" lon="6.09835">
        <ele>266.79998779297</ele>
        <time>2013-03-16T15:54:45Z</time>
      </trkpt>
      <trkpt lat="43.39563" lon="6.09813">
        <ele>266.79998779297</ele>
        <time>2013-03-16T15:54:50Z</time>
      </trkpt>
      <trkpt lat="43.39567" lon="6.09786">
        <ele>266.79998779297</ele>
        <time>2013-03-16T15:54:56Z</time>
      </trkpt>
      <trkpt lat="43.39582" lon="6.09739">
        <ele>266.79998779297</ele>
        <time>2013-03-16T15:55:07Z</time>
      </trkpt>
      <trkpt lat="43.39592" lon="6.09703">
        <ele>266.79998779297</ele>
        <time>2013-03-16T15:55:15Z</time>
      </trkpt>
      <trkpt lat="43.396" lon="6.09664">
        <ele>266.79998779297</ele>
        <time>2013-03-16T15:55:22Z</time>
      </trkpt>
      <trkpt lat="43.39606" lon="6.09631">
        <ele>266.79998779297</ele>
        <time>2013-03-16T15:55:28Z</time>
      </trkpt>
      <trkpt lat="43.39608" lon="6.0962">
        <ele>266.79998779297</ele>
        <time>2013-03-16T15:55:30Z</time>
      </trkpt>
      <trkpt lat="43.39613" lon="6.09598">
        <ele>266.79998779297</ele>
        <time>2013-03-16T15:55:34Z</time>
      </trkpt>
      <trkpt lat="43.39626" lon="6.0956">
        <ele>266.79998779297</ele>
        <time>2013-03-16T15:55:41Z</time>
      </trkpt>
      <trkpt lat="43.39635" lon="6.0954">
        <ele>266.79998779297</ele>
        <time>2013-03-16T15:55:44Z</time>
      </trkpt>
      <trkpt lat="43.39652" lon="6.09517">
        <ele>265.79998779297</ele>
        <time>2013-03-16T15:55:48Z</time>
      </trkpt>
      <trkpt lat="43.39656" lon="6.0951">
        <ele>265.39999389648</ele>
        <time>2013-03-16T15:55:49Z</time>
      </trkpt>
      <trkpt lat="43.3966" lon="6.09502">
        <ele>265</ele>
        <time>2013-03-16T15:55:50Z</time>
      </trkpt>
      <trkpt lat="43.39664" lon="6.09494">
        <ele>264.39999389648</ele>
        <time>2013-03-16T15:55:51Z</time>
      </trkpt>
      <trkpt lat="43.39667" lon="6.09485">
        <ele>263.79998779297</ele>
        <time>2013-03-16T15:55:52Z</time>
      </trkpt>
      <trkpt lat="43.3967" lon="6.09476">
        <ele>262.60000610352</ele>
        <time>2013-03-16T15:55:53Z</time>
      </trkpt>
      <trkpt lat="43.39674" lon="6.09459">
        <ele>261</ele>
        <time>2013-03-16T15:55:55Z</time>
      </trkpt>
      <trkpt lat="43.39677" lon="6.0945">
        <ele>260.20001220703</ele>
        <time>2013-03-16T15:55:56Z</time>
      </trkpt>
      <trkpt lat="43.39681" lon="6.09442">
        <ele>259.60000610352</ele>
        <time>2013-03-16T15:55:57Z</time>
      </trkpt>
      <trkpt lat="43.39692" lon="6.09427">
        <ele>258.39999389648</ele>
        <time>2013-03-16T15:55:59Z</time>
      </trkpt>
      <trkpt lat="43.39698" lon="6.09421">
        <ele>257.79998779297</ele>
        <time>2013-03-16T15:56:00Z</time>
      </trkpt>
      <trkpt lat="43.39704" lon="6.09417">
        <ele>257</ele>
        <time>2013-03-16T15:56:01Z</time>
      </trkpt>
      <trkpt lat="43.39711" lon="6.09413">
        <ele>256.39999389648</ele>
        <time>2013-03-16T15:56:02Z</time>
      </trkpt>
      <trkpt lat="43.39717" lon="6.09409">
        <ele>255.39999389648</ele>
        <time>2013-03-16T15:56:03Z</time>
      </trkpt>
      <trkpt lat="43.39724" lon="6.09404">
        <ele>254.60000610352</ele>
        <time>2013-03-16T15:56:04Z</time>
      </trkpt>
      <trkpt lat="43.3973" lon="6.09398">
        <ele>253.80000305176</ele>
        <time>2013-03-16T15:56:05Z</time>
      </trkpt>
      <trkpt lat="43.3974" lon="6.09385">
        <ele>252.19999694824</ele>
        <time>2013-03-16T15:56:07Z</time>
      </trkpt>
      <trkpt lat="43.39755" lon="6.09361">
        <ele>251.39999389648</ele>
        <time>2013-03-16T15:56:11Z</time>
      </trkpt>
      <trkpt lat="43.39764" lon="6.09344">
        <ele>250</ele>
        <time>2013-03-16T15:56:14Z</time>
      </trkpt>
      <trkpt lat="43.39769" lon="6.09334">
        <ele>250</ele>
        <time>2013-03-16T15:56:16Z</time>
      </trkpt>
      <trkpt lat="43.39781" lon="6.09305">
        <ele>250</ele>
        <time>2013-03-16T15:56:22Z</time>
      </trkpt>
      <trkpt lat="43.39787" lon="6.09279">
        <ele>250</ele>
        <time>2013-03-16T15:56:28Z</time>
      </trkpt>
      <trkpt lat="43.39791" lon="6.09264">
        <ele>250</ele>
        <time>2013-03-16T15:56:31Z</time>
      </trkpt>
      <trkpt lat="43.39799" lon="6.09222">
        <ele>250</ele>
        <time>2013-03-16T15:56:38Z</time>
      </trkpt>
      <trkpt lat="43.39799" lon="6.09216">
        <ele>250</ele>
        <time>2013-03-16T15:56:39Z</time>
      </trkpt>
      <trkpt lat="43.39798" lon="6.09191">
        <ele>250</ele>
        <time>2013-03-16T15:56:43Z</time>
      </trkpt>
      <trkpt lat="43.39798" lon="6.09178">
        <ele>250</ele>
        <time>2013-03-16T15:56:45Z</time>
      </trkpt>
      <trkpt lat="43.39798" lon="6.09161">
        <ele>250</ele>
        <time>2013-03-16T15:56:48Z</time>
      </trkpt>
      <trkpt lat="43.39801" lon="6.09131">
        <ele>251.19999694824</ele>
        <time>2013-03-16T15:56:53Z</time>
      </trkpt>
      <trkpt lat="43.39804" lon="6.09121">
        <ele>252</ele>
        <time>2013-03-16T15:56:55Z</time>
      </trkpt>
      <trkpt lat="43.39807" lon="6.0911">
        <ele>252</ele>
        <time>2013-03-16T15:56:57Z</time>
      </trkpt>
      <trkpt lat="43.39814" lon="6.0909">
        <ele>252</ele>
        <time>2013-03-16T15:57:01Z</time>
      </trkpt>
      <trkpt lat="43.39817" lon="6.0908">
        <ele>252</ele>
        <time>2013-03-16T15:57:03Z</time>
      </trkpt>
      <trkpt lat="43.39819" lon="6.09074">
        <ele>252</ele>
        <time>2013-03-16T15:57:04Z</time>
      </trkpt>
      <trkpt lat="43.39833" lon="6.09048">
        <ele>252</ele>
        <time>2013-03-16T15:57:09Z</time>
      </trkpt>
      <trkpt lat="43.39849" lon="6.09029">
        <ele>252</ele>
        <time>2013-03-16T15:57:13Z</time>
      </trkpt>
      <trkpt lat="43.39859" lon="6.0902">
        <ele>252</ele>
        <time>2013-03-16T15:57:15Z</time>
      </trkpt>
      <trkpt lat="43.39865" lon="6.09008">
        <ele>252</ele>
        <time>2013-03-16T15:57:17Z</time>
      </trkpt>
      <trkpt lat="43.39883" lon="6.08993">
        <ele>252</ele>
        <time>2013-03-16T15:57:21Z</time>
      </trkpt>
      <trkpt lat="43.39888" lon="6.0899">
        <ele>251.60000610352</ele>
        <time>2013-03-16T15:57:22Z</time>
      </trkpt>
      <trkpt lat="43.39894" lon="6.0899">
        <ele>251.19999694824</ele>
        <time>2013-03-16T15:57:23Z</time>
      </trkpt>
      <trkpt lat="43.39905" lon="6.0899">
        <ele>250.39999389648</ele>
        <time>2013-03-16T15:57:25Z</time>
      </trkpt>
      <trkpt lat="43.39928" lon="6.08989">
        <ele>249.60000610352</ele>
        <time>2013-03-16T15:57:29Z</time>
      </trkpt>
      <trkpt lat="43.39935" lon="6.08988">
        <ele>249.19999694824</ele>
        <time>2013-03-16T15:57:30Z</time>
      </trkpt>
      <trkpt lat="43.39941" lon="6.08986">
        <ele>248.39999389648</ele>
        <time>2013-03-16T15:57:31Z</time>
      </trkpt>
      <trkpt lat="43.39954" lon="6.08981">
        <ele>247.39999389648</ele>
        <time>2013-03-16T15:57:33Z</time>
      </trkpt>
      <trkpt lat="43.39961" lon="6.08979">
        <ele>247</ele>
        <time>2013-03-16T15:57:34Z</time>
      </trkpt>
      <trkpt lat="43.39968" lon="6.08978">
        <ele>246.60000610352</ele>
        <time>2013-03-16T15:57:35Z</time>
      </trkpt>
      <trkpt lat="43.39975" lon="6.08976">
        <ele>246</ele>
        <time>2013-03-16T15:57:36Z</time>
      </trkpt>
      <trkpt lat="43.39982" lon="6.08974">
        <ele>245.60000610352</ele>
        <time>2013-03-16T15:57:37Z</time>
      </trkpt>
      <trkpt lat="43.40007" lon="6.08969">
        <ele>245.60000610352</ele>
        <time>2013-03-16T15:57:41Z</time>
      </trkpt>
      <trkpt lat="43.40026" lon="6.08954">
        <ele>245.60000610352</ele>
        <time>2013-03-16T15:57:45Z</time>
      </trkpt>
      <trkpt lat="43.40031" lon="6.08933">
        <ele>245.60000610352</ele>
        <time>2013-03-16T15:57:48Z</time>
      </trkpt>
      <trkpt lat="43.40036" lon="6.08907">
        <ele>245.60000610352</ele>
        <time>2013-03-16T15:57:52Z</time>
      </trkpt>
      <trkpt lat="43.40042" lon="6.08887">
        <ele>245.60000610352</ele>
        <time>2013-03-16T15:57:55Z</time>
      </trkpt>
      <trkpt lat="43.40053" lon="6.0885">
        <ele>245.60000610352</ele>
        <time>2013-03-16T15:58:01Z</time>
      </trkpt>
      <trkpt lat="43.40057" lon="6.0884">
        <ele>245.60000610352</ele>
        <time>2013-03-16T15:58:03Z</time>
      </trkpt>
      <trkpt lat="43.40064" lon="6.08823">
        <ele>245.60000610352</ele>
        <time>2013-03-16T15:58:07Z</time>
      </trkpt>
      <trkpt lat="43.40073" lon="6.08804">
        <ele>245.60000610352</ele>
        <time>2013-03-16T15:58:12Z</time>
      </trkpt>
      <trkpt lat="43.40084" lon="6.08773">
        <ele>245.60000610352</ele>
        <time>2013-03-16T15:58:21Z</time>
      </trkpt>
      <trkpt lat="43.40086" lon="6.08768">
        <ele>245.60000610352</ele>
        <time>2013-03-16T15:58:23Z</time>
      </trkpt>
      <trkpt lat="43.40088" lon="6.08761">
        <ele>245.60000610352</ele>
        <time>2013-03-16T15:58:26Z</time>
      </trkpt>
      <trkpt lat="43.40089" lon="6.08754">
        <ele>245.60000610352</ele>
        <time>2013-03-16T15:58:29Z</time>
      </trkpt>
      <trkpt lat="43.40091" lon="6.08749">
        <ele>245.60000610352</ele>
        <time>2013-03-16T15:58:31Z</time>
      </trkpt>
      <trkpt lat="43.40092" lon="6.08743">
        <ele>245.60000610352</ele>
        <time>2013-03-16T15:58:36Z</time>
      </trkpt>
      <trkpt lat="43.40092" lon="6.08743">
        <ele>244.39999389648</ele>
        <time>2013-03-16T15:58:49Z</time>
      </trkpt>
      <trkpt lat="43.40092" lon="6.08743">
        <ele>243.60000610352</ele>
        <time>2013-03-16T15:58:58Z</time>
      </trkpt>
      <trkpt lat="43.40093" lon="6.08741">
        <ele>243.60000610352</ele>
        <time>2013-03-16T15:58:59Z</time>
      </trkpt>
      <trkpt lat="43.40095" lon="6.08735">
        <ele>243.60000610352</ele>
        <time>2013-03-16T15:59:03Z</time>
      </trkpt>
      <trkpt lat="43.40096" lon="6.08729">
        <ele>243.60000610352</ele>
        <time>2013-03-16T15:59:05Z</time>
      </trkpt>
      <trkpt lat="43.40098" lon="6.08716">
        <ele>243.60000610352</ele>
        <time>2013-03-16T15:59:08Z</time>
      </trkpt>
      <trkpt lat="43.401" lon="6.08701">
        <ele>243.60000610352</ele>
        <time>2013-03-16T15:59:12Z</time>
      </trkpt>
      <trkpt lat="43.40101" lon="6.08685">
        <ele>243.60000610352</ele>
        <time>2013-03-16T15:59:16Z</time>
      </trkpt>
      <trkpt lat="43.40099" lon="6.08664">
        <ele>243.60000610352</ele>
        <time>2013-03-16T15:59:20Z</time>
      </trkpt>
      <trkpt lat="43.40097" lon="6.08657">
        <ele>243.19999694824</ele>
        <time>2013-03-16T15:59:21Z</time>
      </trkpt>
      <trkpt lat="43.40097" lon="6.0865">
        <ele>242.80000305176</ele>
        <time>2013-03-16T15:59:22Z</time>
      </trkpt>
      <trkpt lat="43.40099" lon="6.08643">
        <ele>242.39999389648</ele>
        <time>2013-03-16T15:59:23Z</time>
      </trkpt>
      <trkpt lat="43.40101" lon="6.08637">
        <ele>242</ele>
        <time>2013-03-16T15:59:24Z</time>
      </trkpt>
      <trkpt lat="43.40105" lon="6.08631">
        <ele>241.60000610352</ele>
        <time>2013-03-16T15:59:25Z</time>
      </trkpt>
      <trkpt lat="43.40113" lon="6.08623">
        <ele>241.19999694824</ele>
        <time>2013-03-16T15:59:27Z</time>
      </trkpt>
      <trkpt lat="43.40117" lon="6.08619">
        <ele>240.80000305176</ele>
        <time>2013-03-16T15:59:28Z</time>
      </trkpt>
      <trkpt lat="43.40122" lon="6.08614">
        <ele>240.39999389648</ele>
        <time>2013-03-16T15:59:29Z</time>
      </trkpt>
      <trkpt lat="43.40126" lon="6.0861">
        <ele>240</ele>
        <time>2013-03-16T15:59:30Z</time>
      </trkpt>
      <trkpt lat="43.40129" lon="6.08606">
        <ele>239.60000610352</ele>
        <time>2013-03-16T15:59:31Z</time>
      </trkpt>
      <trkpt lat="43.40142" lon="6.08596">
        <ele>239.60000610352</ele>
        <time>2013-03-16T15:59:34Z</time>
      </trkpt>
      <trkpt lat="43.40163" lon="6.08582">
        <ele>239.60000610352</ele>
        <time>2013-03-16T15:59:40Z</time>
      </trkpt>
      <trkpt lat="43.40169" lon="6.08568">
        <ele>239.60000610352</ele>
        <time>2013-03-16T15:59:43Z</time>
      </trkpt>
      <trkpt lat="43.40169" lon="6.08552">
        <ele>239.60000610352</ele>
        <time>2013-03-16T15:59:47Z</time>
      </trkpt>
      <trkpt lat="43.40168" lon="6.08548">
        <ele>239.60000610352</ele>
        <time>2013-03-16T15:59:48Z</time>
      </trkpt>
      <trkpt lat="43.40168" lon="6.08539">
        <ele>239.60000610352</ele>
        <time>2013-03-16T15:59:50Z</time>
      </trkpt>
      <trkpt lat="43.40167" lon="6.08528">
        <ele>239.60000610352</ele>
        <time>2013-03-16T15:59:53Z</time>
      </trkpt>
      <trkpt lat="43.40168" lon="6.08521">
        <ele>239.60000610352</ele>
        <time>2013-03-16T15:59:55Z</time>
      </trkpt>
      <trkpt lat="43.40168" lon="6.08498">
        <ele>239.60000610352</ele>
        <time>2013-03-16T16:00:00Z</time>
      </trkpt>
      <trkpt lat="43.40172" lon="6.08472">
        <ele>239.60000610352</ele>
        <time>2013-03-16T16:00:06Z</time>
      </trkpt>
      <trkpt lat="43.40174" lon="6.08443">
        <ele>239.60000610352</ele>
        <time>2013-03-16T16:00:12Z</time>
      </trkpt>
      <trkpt lat="43.40177" lon="6.08386">
        <ele>239.60000610352</ele>
        <time>2013-03-16T16:00:22Z</time>
      </trkpt>
      <trkpt lat="43.40178" lon="6.08361">
        <ele>239.60000610352</ele>
        <time>2013-03-16T16:00:26Z</time>
      </trkpt>
      <trkpt lat="43.4018" lon="6.08314">
        <ele>239.60000610352</ele>
        <time>2013-03-16T16:00:33Z</time>
      </trkpt>
      <trkpt lat="43.4018" lon="6.08297">
        <ele>239.60000610352</ele>
        <time>2013-03-16T16:00:36Z</time>
      </trkpt>
      <trkpt lat="43.40184" lon="6.08276">
        <ele>239.60000610352</ele>
        <time>2013-03-16T16:00:40Z</time>
      </trkpt>
      <trkpt lat="43.40185" lon="6.08264">
        <ele>239.60000610352</ele>
        <time>2013-03-16T16:00:44Z</time>
      </trkpt>
      <trkpt lat="43.40184" lon="6.08253">
        <ele>239.60000610352</ele>
        <time>2013-03-16T16:00:48Z</time>
      </trkpt>
      <trkpt lat="43.40182" lon="6.0825">
        <ele>239.60000610352</ele>
        <time>2013-03-16T16:00:49Z</time>
      </trkpt>
      <trkpt lat="43.40181" lon="6.08248">
        <ele>239.60000610352</ele>
        <time>2013-03-16T16:00:51Z</time>
      </trkpt>
      <trkpt lat="43.40181" lon="6.08247">
        <ele>239.60000610352</ele>
        <time>2013-03-16T16:00:53Z</time>
      </trkpt>
      <trkpt lat="43.40181" lon="6.08247">
        <ele>239.60000610352</ele>
        <time>2013-03-16T16:01:00Z</time>
      </trkpt>
      <trkpt lat="43.40181" lon="6.08247">
        <ele>239.60000610352</ele>
        <time>2013-03-16T16:01:11Z</time>
      </trkpt>
      <trkpt lat="43.4018" lon="6.08245">
        <ele>239.60000610352</ele>
        <time>2013-03-16T16:01:19Z</time>
      </trkpt>
      <trkpt lat="43.40179" lon="6.08243">
        <ele>239.60000610352</ele>
        <time>2013-03-16T16:01:20Z</time>
      </trkpt>
      <trkpt lat="43.40181" lon="6.08235">
        <ele>239.60000610352</ele>
        <time>2013-03-16T16:01:24Z</time>
      </trkpt>
      <trkpt lat="43.40181" lon="6.0823">
        <ele>239.60000610352</ele>
        <time>2013-03-16T16:01:26Z</time>
      </trkpt>
      <trkpt lat="43.40185" lon="6.08216">
        <ele>239.60000610352</ele>
        <time>2013-03-16T16:01:31Z</time>
      </trkpt>
      <trkpt lat="43.40186" lon="6.08214">
        <ele>239.60000610352</ele>
        <time>2013-03-16T16:01:32Z</time>
      </trkpt>
      <trkpt lat="43.4019" lon="6.08198">
        <ele>239.60000610352</ele>
        <time>2013-03-16T16:01:37Z</time>
      </trkpt>
      <trkpt lat="43.40195" lon="6.08172">
        <ele>239.60000610352</ele>
        <time>2013-03-16T16:01:44Z</time>
      </trkpt>
      <trkpt lat="43.40197" lon="6.08155">
        <ele>239.19999694824</ele>
        <time>2013-03-16T16:01:47Z</time>
      </trkpt>
      <trkpt lat="43.40199" lon="6.08142">
        <ele>238.19999694824</ele>
        <time>2013-03-16T16:01:49Z</time>
      </trkpt>
      <trkpt lat="43.40197" lon="6.08129">
        <ele>237.39999389648</ele>
        <time>2013-03-16T16:01:51Z</time>
      </trkpt>
      <trkpt lat="43.40194" lon="6.08119">
        <ele>237.39999389648</ele>
        <time>2013-03-16T16:01:53Z</time>
      </trkpt>
      <trkpt lat="43.40192" lon="6.08088">
        <ele>237.39999389648</ele>
        <time>2013-03-16T16:01:58Z</time>
      </trkpt>
      <trkpt lat="43.40197" lon="6.08076">
        <ele>237</ele>
        <time>2013-03-16T16:02:00Z</time>
      </trkpt>
      <trkpt lat="43.40199" lon="6.08069">
        <ele>236.60000610352</ele>
        <time>2013-03-16T16:02:01Z</time>
      </trkpt>
      <trkpt lat="43.40207" lon="6.08057">
        <ele>235.39999389648</ele>
        <time>2013-03-16T16:02:03Z</time>
      </trkpt>
      <trkpt lat="43.4022" lon="6.08041">
        <ele>235.39999389648</ele>
        <time>2013-03-16T16:02:06Z</time>
      </trkpt>
      <trkpt lat="43.40234" lon="6.08024">
        <ele>235.39999389648</ele>
        <time>2013-03-16T16:02:09Z</time>
      </trkpt>
      <trkpt lat="43.40247" lon="6.08005">
        <ele>234.60000610352</ele>
        <time>2013-03-16T16:02:12Z</time>
      </trkpt>
      <trkpt lat="43.40261" lon="6.07984">
        <ele>233.39999389648</ele>
        <time>2013-03-16T16:02:15Z</time>
      </trkpt>
      <trkpt lat="43.40278" lon="6.07952">
        <ele>233.39999389648</ele>
        <time>2013-03-16T16:02:19Z</time>
      </trkpt>
      <trkpt lat="43.40282" lon="6.07943">
        <ele>233.39999389648</ele>
        <time>2013-03-16T16:02:20Z</time>
      </trkpt>
      <trkpt lat="43.40287" lon="6.07924">
        <ele>232.39999389648</ele>
        <time>2013-03-16T16:02:22Z</time>
      </trkpt>
      <trkpt lat="43.40291" lon="6.07904">
        <ele>231.60000610352</ele>
        <time>2013-03-16T16:02:24Z</time>
      </trkpt>
      <trkpt lat="43.40293" lon="6.07894">
        <ele>231.19999694824</ele>
        <time>2013-03-16T16:02:25Z</time>
      </trkpt>
      <trkpt lat="43.40299" lon="6.07849">
        <ele>230.80000305176</ele>
        <time>2013-03-16T16:02:29Z</time>
      </trkpt>
      <trkpt lat="43.40303" lon="6.07816">
        <ele>229.39999389648</ele>
        <time>2013-03-16T16:02:32Z</time>
      </trkpt>
      <trkpt lat="43.40304" lon="6.07805">
        <ele>229</ele>
        <time>2013-03-16T16:02:33Z</time>
      </trkpt>
      <trkpt lat="43.40313" lon="6.07738">
        <ele>229</ele>
        <time>2013-03-16T16:02:39Z</time>
      </trkpt>
      <trkpt lat="43.40318" lon="6.07715">
        <ele>229</ele>
        <time>2013-03-16T16:02:41Z</time>
      </trkpt>
      <trkpt lat="43.40322" lon="6.07704">
        <ele>228.60000610352</ele>
        <time>2013-03-16T16:02:42Z</time>
      </trkpt>
      <trkpt lat="43.40327" lon="6.07695">
        <ele>228.19999694824</ele>
        <time>2013-03-16T16:02:43Z</time>
      </trkpt>
      <trkpt lat="43.40333" lon="6.07687">
        <ele>227.80000305176</ele>
        <time>2013-03-16T16:02:44Z</time>
      </trkpt>
      <trkpt lat="43.40346" lon="6.07674">
        <ele>226.80000305176</ele>
        <time>2013-03-16T16:02:46Z</time>
      </trkpt>
      <trkpt lat="43.40363" lon="6.07651">
        <ele>226.80000305176</ele>
        <time>2013-03-16T16:02:49Z</time>
      </trkpt>
      <trkpt lat="43.40366" lon="6.07641">
        <ele>226.80000305176</ele>
        <time>2013-03-16T16:02:50Z</time>
      </trkpt>
      <trkpt lat="43.40372" lon="6.07601">
        <ele>226.80000305176</ele>
        <time>2013-03-16T16:02:54Z</time>
      </trkpt>
      <trkpt lat="43.40373" lon="6.07553">
        <ele>226.80000305176</ele>
        <time>2013-03-16T16:02:59Z</time>
      </trkpt>
      <trkpt lat="43.40374" lon="6.07535">
        <ele>226.80000305176</ele>
        <time>2013-03-16T16:03:01Z</time>
      </trkpt>
      <trkpt lat="43.40381" lon="6.07484">
        <ele>226.80000305176</ele>
        <time>2013-03-16T16:03:07Z</time>
      </trkpt>
      <trkpt lat="43.40389" lon="6.07418">
        <ele>226.80000305176</ele>
        <time>2013-03-16T16:03:14Z</time>
      </trkpt>
      <trkpt lat="43.40387" lon="6.07359">
        <ele>226.80000305176</ele>
        <time>2013-03-16T16:03:20Z</time>
      </trkpt>
      <trkpt lat="43.40381" lon="6.07312">
        <ele>226.39999389648</ele>
        <time>2013-03-16T16:03:25Z</time>
      </trkpt>
      <trkpt lat="43.40383" lon="6.07292">
        <ele>225.60000610352</ele>
        <time>2013-03-16T16:03:27Z</time>
      </trkpt>
      <trkpt lat="43.40387" lon="6.07283">
        <ele>225.19999694824</ele>
        <time>2013-03-16T16:03:28Z</time>
      </trkpt>
      <trkpt lat="43.40389" lon="6.07273">
        <ele>224.80000305176</ele>
        <time>2013-03-16T16:03:29Z</time>
      </trkpt>
      <trkpt lat="43.40387" lon="6.07243">
        <ele>224.80000305176</ele>
        <time>2013-03-16T16:03:32Z</time>
      </trkpt>
      <trkpt lat="43.40385" lon="6.07233">
        <ele>224.80000305176</ele>
        <time>2013-03-16T16:03:33Z</time>
      </trkpt>
      <trkpt lat="43.40385" lon="6.07224">
        <ele>224.39999389648</ele>
        <time>2013-03-16T16:03:34Z</time>
      </trkpt>
      <trkpt lat="43.40387" lon="6.07205">
        <ele>223.39999389648</ele>
        <time>2013-03-16T16:03:36Z</time>
      </trkpt>
      <trkpt lat="43.40389" lon="6.07188">
        <ele>222.60000610352</ele>
        <time>2013-03-16T16:03:38Z</time>
      </trkpt>
      <trkpt lat="43.40394" lon="6.07148">
        <ele>222.60000610352</ele>
        <time>2013-03-16T16:03:43Z</time>
      </trkpt>
      <trkpt lat="43.40399" lon="6.07113">
        <ele>222.60000610352</ele>
        <time>2013-03-16T16:03:48Z</time>
      </trkpt>
      <trkpt lat="43.40401" lon="6.071">
        <ele>222.60000610352</ele>
        <time>2013-03-16T16:03:50Z</time>
      </trkpt>
      <trkpt lat="43.40408" lon="6.07058">
        <ele>222.60000610352</ele>
        <time>2013-03-16T16:03:57Z</time>
      </trkpt>
      <trkpt lat="43.40411" lon="6.0704">
        <ele>223</ele>
        <time>2013-03-16T16:04:00Z</time>
      </trkpt>
      <trkpt lat="43.40426" lon="6.06959">
        <ele>224.60000610352</ele>
        <time>2013-03-16T16:04:16Z</time>
      </trkpt>
      <trkpt lat="43.40431" lon="6.06938">
        <ele>224.60000610352</ele>
        <time>2013-03-16T16:04:21Z</time>
      </trkpt>
      <trkpt lat="43.40439" lon="6.0692">
        <ele>224.60000610352</ele>
        <time>2013-03-16T16:04:25Z</time>
      </trkpt>
      <trkpt lat="43.40445" lon="6.06907">
        <ele>224.60000610352</ele>
        <time>2013-03-16T16:04:28Z</time>
      </trkpt>
      <trkpt lat="43.4045" lon="6.06899">
        <ele>224.60000610352</ele>
        <time>2013-03-16T16:04:31Z</time>
      </trkpt>
      <trkpt lat="43.40451" lon="6.06896">
        <ele>224.60000610352</ele>
        <time>2013-03-16T16:04:35Z</time>
      </trkpt>
      <trkpt lat="43.40451" lon="6.06894">
        <ele>224.60000610352</ele>
        <time>2013-03-16T16:04:36Z</time>
      </trkpt>
      <trkpt lat="43.40454" lon="6.06882">
        <ele>224.60000610352</ele>
        <time>2013-03-16T16:04:40Z</time>
      </trkpt>
      <trkpt lat="43.40458" lon="6.06865">
        <ele>225</ele>
        <time>2013-03-16T16:04:44Z</time>
      </trkpt>
      <trkpt lat="43.40458" lon="6.06861">
        <ele>225.39999389648</ele>
        <time>2013-03-16T16:04:45Z</time>
      </trkpt>
      <trkpt lat="43.40459" lon="6.06855">
        <ele>225.80000305176</ele>
        <time>2013-03-16T16:04:46Z</time>
      </trkpt>
      <trkpt lat="43.4046" lon="6.06845">
        <ele>226.60000610352</ele>
        <time>2013-03-16T16:04:48Z</time>
      </trkpt>
      <trkpt lat="43.40463" lon="6.06816">
        <ele>226.60000610352</ele>
        <time>2013-03-16T16:04:53Z</time>
      </trkpt>
      <trkpt lat="43.40463" lon="6.0681">
        <ele>226.60000610352</ele>
        <time>2013-03-16T16:04:54Z</time>
      </trkpt>
      <trkpt lat="43.40463" lon="6.06753">
        <ele>226.60000610352</ele>
        <time>2013-03-16T16:05:04Z</time>
      </trkpt>
      <trkpt lat="43.40462" lon="6.06728">
        <ele>226.60000610352</ele>
        <time>2013-03-16T16:05:08Z</time>
      </trkpt>
      <trkpt lat="43.40465" lon="6.06711">
        <ele>226.60000610352</ele>
        <time>2013-03-16T16:05:11Z</time>
      </trkpt>
      <trkpt lat="43.40467" lon="6.06694">
        <ele>226.60000610352</ele>
        <time>2013-03-16T16:05:14Z</time>
      </trkpt>
      <trkpt lat="43.40469" lon="6.06689">
        <ele>226.60000610352</ele>
        <time>2013-03-16T16:05:15Z</time>
      </trkpt>
      <trkpt lat="43.40477" lon="6.06658">
        <ele>226.60000610352</ele>
        <time>2013-03-16T16:05:21Z</time>
      </trkpt>
      <trkpt lat="43.40484" lon="6.06628">
        <ele>226.60000610352</ele>
        <time>2013-03-16T16:05:27Z</time>
      </trkpt>
      <trkpt lat="43.40488" lon="6.06591">
        <ele>226.60000610352</ele>
        <time>2013-03-16T16:05:34Z</time>
      </trkpt>
      <trkpt lat="43.4048" lon="6.06582">
        <ele>226.60000610352</ele>
        <time>2013-03-16T16:05:37Z</time>
      </trkpt>
      <trkpt lat="43.40446" lon="6.06573">
        <ele>226.60000610352</ele>
        <time>2013-03-16T16:05:46Z</time>
      </trkpt>
      <trkpt lat="43.40438" lon="6.0657">
        <ele>226.60000610352</ele>
        <time>2013-03-16T16:05:48Z</time>
      </trkpt>
      <trkpt lat="43.40422" lon="6.06567">
        <ele>226.60000610352</ele>
        <time>2013-03-16T16:05:52Z</time>
      </trkpt>
      <trkpt lat="43.40412" lon="6.06564">
        <ele>227</ele>
        <time>2013-03-16T16:05:55Z</time>
      </trkpt>
      <trkpt lat="43.40409" lon="6.06563">
        <ele>227.60000610352</ele>
        <time>2013-03-16T16:05:56Z</time>
      </trkpt>
      <trkpt lat="43.40403" lon="6.06559">
        <ele>228.39999389648</ele>
        <time>2013-03-16T16:05:58Z</time>
      </trkpt>
      <trkpt lat="43.40402" lon="6.06558">
        <ele>228.80000305176</ele>
        <time>2013-03-16T16:05:59Z</time>
      </trkpt>
      <trkpt lat="43.404" lon="6.06553">
        <ele>228.80000305176</ele>
        <time>2013-03-16T16:06:01Z</time>
      </trkpt>
      <trkpt lat="43.40403" lon="6.06548">
        <ele>228.80000305176</ele>
        <time>2013-03-16T16:06:11Z</time>
      </trkpt>
      <trkpt lat="43.40404" lon="6.06544">
        <ele>228.80000305176</ele>
        <time>2013-03-16T16:06:14Z</time>
      </trkpt>
      <trkpt lat="43.4041" lon="6.06546">
        <ele>228.80000305176</ele>
        <time>2013-03-16T16:06:20Z</time>
      </trkpt>
      <trkpt lat="43.40416" lon="6.06547">
        <ele>228.80000305176</ele>
        <time>2013-03-16T16:06:26Z</time>
      </trkpt>
      <trkpt lat="43.40417" lon="6.06547">
        <ele>228.80000305176</ele>
        <time>2013-03-16T16:06:29Z</time>
      </trkpt>
      <trkpt lat="43.40417" lon="6.06547">
        <ele>228.80000305176</ele>
        <time>2013-03-16T16:06:38Z</time>
      </trkpt>
    </trkseg>
  </trk>
</gpx>